<?xml version='1.0' encoding='UTF-8'?><gpx version="1.1" creator="JPX - https://github.com/jenetics/jpx" xmlns="http://www.topografix.com/GPX/1/1"><trk><trkseg><trkpt lat="36.9529489" lon="14.5534417"><ele>127.0</ele><time>2026-04-18T13:13:20.192Z</time></trkpt><trkpt lat="36.9528224" lon="14.5533251"><ele>127.0</ele><time>2026-04-18T13:13:22.168Z</time></trkpt><trkpt lat="36.9527292" lon="14.5531652"><ele>127.0</ele><time>2026-04-18T13:13:25.184Z</time></trkpt><trkpt lat="36.9526405" lon="14.5529776"><ele>132.5</ele><time>2026-04-18T13:13:28.208Z</time></trkpt><trkpt lat="36.9525892" lon="14.5527844"><ele>138.0</ele><time>2026-04-18T13:13:31.111Z</time></trkpt><trkpt lat="36.9525899" lon="14.5526932"><ele>143.5</ele><time>2026-04-18T13:13:33.192Z</time></trkpt><trkpt lat="36.9525234" lon="14.5524965"><ele>149.0</ele><time>2026-04-18T13:13:35.097Z</time></trkpt><trkpt lat="36.9524246" lon="14.5524274"><ele>150.4</ele><time>2026-04-18T13:13:37.097Z</time></trkpt><trkpt lat="36.9523345" lon="14.5524749"><ele>151.8</ele><time>2026-04-18T13:13:39.097Z</time></trkpt><trkpt lat="36.9522921" lon="14.5525823"><ele>153.2</ele><time>2026-04-18T13:13:41.097Z</time></trkpt><trkpt lat="36.9522879" lon="14.5526801"><ele>154.6</ele><time>2026-04-18T13:13:43.097Z</time></trkpt><trkpt lat="36.9523023" lon="14.5528001"><ele>156.0</ele><time>2026-04-18T13:13:45.098Z</time></trkpt><trkpt lat="36.952275" lon="14.5529185"><ele>152.2</ele><time>2026-04-18T13:13:47.097Z</time></trkpt><trkpt lat="36.9522239" lon="14.5530306"><ele>148.39999999999998</ele><time>2026-04-18T13:13:49.096Z</time></trkpt><trkpt lat="36.9521922" lon="14.5530993"><ele>144.6</ele><time>2026-04-18T13:13:50.096Z</time></trkpt><trkpt lat="36.9521633" lon="14.5532225"><ele>140.79999999999998</ele><time>2026-04-18T13:13:52.097Z</time></trkpt><trkpt lat="36.9521827" lon="14.5533056"><ele>137.0</ele><time>2026-04-18T13:13:54.097Z</time></trkpt><trkpt lat="36.9522255" lon="14.5534376"><ele>137.0</ele><time>2026-04-18T13:13:57.098Z</time></trkpt><trkpt lat="36.9522316" lon="14.5535911"><ele>137.0</ele><time>2026-04-18T13:13:59.097Z</time></trkpt><trkpt lat="36.9522352" lon="14.5537331"><ele>137.0</ele><time>2026-04-18T13:14:01.098Z</time></trkpt><trkpt lat="36.9522001" lon="14.553837"><ele>137.0</ele><time>2026-04-18T13:14:03.098Z</time></trkpt><trkpt lat="36.9521166" lon="14.5539431"><ele>137.0</ele><time>2026-04-18T13:14:05.096Z</time></trkpt><trkpt lat="36.9520906" lon="14.5540292"><ele>134.66666666666666</ele><time>2026-04-18T13:14:06.099Z</time></trkpt><trkpt lat="36.952082" lon="14.5541285"><ele>132.33333333333331</ele><time>2026-04-18T13:14:07.097Z</time></trkpt><trkpt lat="36.9520824" lon="14.5542131"><ele>130.0</ele><time>2026-04-18T13:14:08.097Z</time></trkpt><trkpt lat="36.9520895" lon="14.5542956"><ele>127.66666666666666</ele><time>2026-04-18T13:14:09.098Z</time></trkpt><trkpt lat="36.9520981" lon="14.554435"><ele>125.33333333333333</ele><time>2026-04-18T13:14:11.097Z</time></trkpt><trkpt lat="36.9521197" lon="14.5545505"><ele>123.0</ele><time>2026-04-18T13:14:13.097Z</time></trkpt><trkpt lat="36.9521228" lon="14.554663"><ele>122.0</ele><time>2026-04-18T13:14:16.096Z</time></trkpt><trkpt lat="36.9520548" lon="14.5547336"><ele>121.00000000000001</ele><time>2026-04-18T13:14:18.096Z</time></trkpt><trkpt lat="36.9519749" lon="14.5547779"><ele>120.00000000000001</ele><time>2026-04-18T13:14:19.097Z</time></trkpt><trkpt lat="36.9518693" lon="14.5548257"><ele>119.0</ele><time>2026-04-18T13:14:20.097Z</time></trkpt><trkpt lat="36.951741" lon="14.5548655"><ele>118.0</ele><time>2026-04-18T13:14:21.097Z</time></trkpt><trkpt lat="36.9515917" lon="14.5549109"><ele>117.0</ele><time>2026-04-18T13:14:22.097Z</time></trkpt><trkpt lat="36.9514417" lon="14.5549496"><ele>116.0</ele><time>2026-04-18T13:14:23.097Z</time></trkpt><trkpt lat="36.9512984" lon="14.5549879"><ele>115.0</ele><time>2026-04-18T13:14:24.097Z</time></trkpt><trkpt lat="36.9511623" lon="14.5550241"><ele>114.0</ele><time>2026-04-18T13:14:25.096Z</time></trkpt><trkpt lat="36.951032" lon="14.5550718"><ele>114.0</ele><time>2026-04-18T13:14:26.098Z</time></trkpt><trkpt lat="36.9509132" lon="14.5551276"><ele>114.0</ele><time>2026-04-18T13:14:27.098Z</time></trkpt><trkpt lat="36.9508078" lon="14.5552007"><ele>114.0</ele><time>2026-04-18T13:14:28.098Z</time></trkpt><trkpt lat="36.950715" lon="14.5552911"><ele>114.0</ele><time>2026-04-18T13:14:29.099Z</time></trkpt><trkpt lat="36.9506277" lon="14.5554134"><ele>111.0</ele><time>2026-04-18T13:14:30.1Z</time></trkpt><trkpt lat="36.9505554" lon="14.5555567"><ele>108.0</ele><time>2026-04-18T13:14:31.097Z</time></trkpt><trkpt lat="36.9504982" lon="14.555708"><ele>105.0</ele><time>2026-04-18T13:14:32.098Z</time></trkpt><trkpt lat="36.9504537" lon="14.5558527"><ele>102.0</ele><time>2026-04-18T13:14:33.097Z</time></trkpt><trkpt lat="36.9504301" lon="14.5559799"><ele>102.0</ele><time>2026-04-18T13:14:34.097Z</time></trkpt><trkpt lat="36.9504262" lon="14.5560765"><ele>102.0</ele><time>2026-04-18T13:14:35.098Z</time></trkpt><trkpt lat="36.9504428" lon="14.5561559"><ele>102.0</ele><time>2026-04-18T13:14:36.097Z</time></trkpt><trkpt lat="36.9504929" lon="14.5562937"><ele>102.0</ele><time>2026-04-18T13:14:38.098Z</time></trkpt><trkpt lat="36.950525" lon="14.5564123"><ele>102.0</ele><time>2026-04-18T13:14:40.097Z</time></trkpt><trkpt lat="36.9505156" lon="14.5565289"><ele>103.83333333333333</ele><time>2026-04-18T13:14:42.097Z</time></trkpt><trkpt lat="36.9504923" lon="14.5566204"><ele>105.66666666666666</ele><time>2026-04-18T13:14:44.098Z</time></trkpt><trkpt lat="36.9504615" lon="14.5567095"><ele>107.5</ele><time>2026-04-18T13:14:46.096Z</time></trkpt><trkpt lat="36.9504218" lon="14.5567973"><ele>109.33333333333333</ele><time>2026-04-18T13:14:48.097Z</time></trkpt><trkpt lat="36.9503451" lon="14.5568502"><ele>111.16666666666666</ele><time>2026-04-18T13:14:50.097Z</time></trkpt><trkpt lat="36.9502785" lon="14.5568637"><ele>113.0</ele><time>2026-04-18T13:14:51.098Z</time></trkpt><trkpt lat="36.9502022" lon="14.5568602"><ele>112.99999999999999</ele><time>2026-04-18T13:14:52.097Z</time></trkpt><trkpt lat="36.95013" lon="14.5568713"><ele>113.0</ele><time>2026-04-18T13:14:53.096Z</time></trkpt><trkpt lat="36.9500499" lon="14.5569435"><ele>113.0</ele><time>2026-04-18T13:14:55.101Z</time></trkpt><trkpt lat="36.9500201" lon="14.5570398"><ele>113.0</ele><time>2026-04-18T13:14:57.1Z</time></trkpt><trkpt lat="36.9499612" lon="14.5571351"><ele>112.99999999999999</ele><time>2026-04-18T13:14:59.099Z</time></trkpt><trkpt lat="36.9499229" lon="14.5572105"><ele>113.0</ele><time>2026-04-18T13:15:00.098Z</time></trkpt><trkpt lat="36.9498891" lon="14.5573074"><ele>110.4</ele><time>2026-04-18T13:15:01.1Z</time></trkpt><trkpt lat="36.9498616" lon="14.5574129"><ele>107.80000000000001</ele><time>2026-04-18T13:15:02.097Z</time></trkpt><trkpt lat="36.9498312" lon="14.5575162"><ele>105.2</ele><time>2026-04-18T13:15:03.097Z</time></trkpt><trkpt lat="36.9497884" lon="14.5576181"><ele>102.6</ele><time>2026-04-18T13:15:04.096Z</time></trkpt><trkpt lat="36.9497415" lon="14.5577266"><ele>100.0</ele><time>2026-04-18T13:15:05.098Z</time></trkpt><trkpt lat="36.9496916" lon="14.5578239"><ele>100.6</ele><time>2026-04-18T13:15:06.098Z</time></trkpt><trkpt lat="36.9496485" lon="14.5578967"><ele>101.2</ele><time>2026-04-18T13:15:07.098Z</time></trkpt><trkpt lat="36.9495707" lon="14.5579969"><ele>101.80000000000001</ele><time>2026-04-18T13:15:09.099Z</time></trkpt><trkpt lat="36.9494909" lon="14.5580321"><ele>102.4</ele><time>2026-04-18T13:15:11.098Z</time></trkpt><trkpt lat="36.9493862" lon="14.5580717"><ele>103.0</ele><time>2026-04-18T13:15:13.098Z</time></trkpt><trkpt lat="36.9493076" lon="14.5581302"><ele>103.00000000000001</ele><time>2026-04-18T13:15:15.098Z</time></trkpt><trkpt lat="36.9492505" lon="14.5581827"><ele>103.0</ele><time>2026-04-18T13:15:17.098Z</time></trkpt><trkpt lat="36.9491999" lon="14.5582528"><ele>103.0</ele><time>2026-04-18T13:15:19.101Z</time></trkpt><trkpt lat="36.9491579" lon="14.5583301"><ele>103.0</ele><time>2026-04-18T13:15:21.099Z</time></trkpt><trkpt lat="36.9490938" lon="14.5584"><ele>103.00000000000001</ele><time>2026-04-18T13:15:23.098Z</time></trkpt><trkpt lat="36.9490158" lon="14.5584892"><ele>103.0</ele><time>2026-04-18T13:15:25.097Z</time></trkpt><trkpt lat="36.9489669" lon="14.5585979"><ele>104.0</ele><time>2026-04-18T13:15:27.098Z</time></trkpt><trkpt lat="36.9489358" lon="14.5586833"><ele>105.0</ele><time>2026-04-18T13:15:29.097Z</time></trkpt><trkpt lat="36.9489187" lon="14.5587691"><ele>106.00000000000001</ele><time>2026-04-18T13:15:31.098Z</time></trkpt><trkpt lat="36.9489032" lon="14.5588657"><ele>107.0</ele><time>2026-04-18T13:15:33.099Z</time></trkpt><trkpt lat="36.9489254" lon="14.5590088"><ele>108.0</ele><time>2026-04-18T13:15:35.098Z</time></trkpt><trkpt lat="36.9489697" lon="14.5591448"><ele>110.16666666666667</ele><time>2026-04-18T13:15:37.098Z</time></trkpt><trkpt lat="36.9489464" lon="14.5592692"><ele>112.33333333333334</ele><time>2026-04-18T13:15:39.098Z</time></trkpt><trkpt lat="36.9489473" lon="14.5593886"><ele>114.5</ele><time>2026-04-18T13:15:41.1Z</time></trkpt><trkpt lat="36.9489292" lon="14.5594754"><ele>116.66666666666667</ele><time>2026-04-18T13:15:43.099Z</time></trkpt><trkpt lat="36.948876" lon="14.5595334"><ele>118.83333333333334</ele><time>2026-04-18T13:15:45.099Z</time></trkpt><trkpt lat="36.9488153" lon="14.5596091"><ele>121.0</ele><time>2026-04-18T13:15:48.1Z</time></trkpt><trkpt lat="36.9487704" lon="14.5596884"><ele>122.83333333333334</ele><time>2026-04-18T13:15:50.097Z</time></trkpt><trkpt lat="36.9487205" lon="14.5597666"><ele>124.66666666666667</ele><time>2026-04-18T13:15:52.098Z</time></trkpt><trkpt lat="36.948678" lon="14.5598641"><ele>126.5</ele><time>2026-04-18T13:15:54.098Z</time></trkpt><trkpt lat="36.9486364" lon="14.5599698"><ele>128.33333333333334</ele><time>2026-04-18T13:15:56.098Z</time></trkpt><trkpt lat="36.9486074" lon="14.5600615"><ele>130.16666666666666</ele><time>2026-04-18T13:15:58.099Z</time></trkpt><trkpt lat="36.9485872" lon="14.5601796"><ele>132.0</ele><time>2026-04-18T13:16:00.099Z</time></trkpt><trkpt lat="36.9485661" lon="14.5602949"><ele>134.66666666666666</ele><time>2026-04-18T13:16:02.098Z</time></trkpt><trkpt lat="36.9485586" lon="14.5604263"><ele>137.33333333333334</ele><time>2026-04-18T13:16:04.098Z</time></trkpt><trkpt lat="36.9485355" lon="14.5605211"><ele>140.0</ele><time>2026-04-18T13:16:06.098Z</time></trkpt><trkpt lat="36.9485442" lon="14.5606314"><ele>142.66666666666669</ele><time>2026-04-18T13:16:08.099Z</time></trkpt><trkpt lat="36.9485296" lon="14.5607441"><ele>145.33333333333334</ele><time>2026-04-18T13:16:11.097Z</time></trkpt><trkpt lat="36.9485239" lon="14.5608467"><ele>148.0</ele><time>2026-04-18T13:16:13.099Z</time></trkpt><trkpt lat="36.9485154" lon="14.5609632"><ele>148.0</ele><time>2026-04-18T13:16:15.099Z</time></trkpt><trkpt lat="36.9485112" lon="14.5610713"><ele>148.0</ele><time>2026-04-18T13:16:17.098Z</time></trkpt><trkpt lat="36.9485005" lon="14.5611787"><ele>148.0</ele><time>2026-04-18T13:16:19.098Z</time></trkpt><trkpt lat="36.9485044" lon="14.5612972"><ele>148.0</ele><time>2026-04-18T13:16:21.099Z</time></trkpt><trkpt lat="36.9485188" lon="14.5614167"><ele>148.0</ele><time>2026-04-18T13:16:23.099Z</time></trkpt><trkpt lat="36.9485218" lon="14.561508"><ele>148.0</ele><time>2026-04-18T13:16:25.096Z</time></trkpt><trkpt lat="36.9485316" lon="14.5615974"><ele>150.0</ele><time>2026-04-18T13:16:27.099Z</time></trkpt><trkpt lat="36.94856" lon="14.5617144"><ele>152.0</ele><time>2026-04-18T13:16:29.098Z</time></trkpt><trkpt lat="36.9486161" lon="14.5618127"><ele>154.0</ele><time>2026-04-18T13:16:31.097Z</time></trkpt><trkpt lat="36.9486392" lon="14.5619126"><ele>156.0</ele><time>2026-04-18T13:16:33.098Z</time></trkpt><trkpt lat="36.9486547" lon="14.5620104"><ele>158.0</ele><time>2026-04-18T13:16:35.097Z</time></trkpt><trkpt lat="36.9486423" lon="14.5621377"><ele>159.60000000000002</ele><time>2026-04-18T13:16:37.1Z</time></trkpt><trkpt lat="36.9486106" lon="14.562274"><ele>161.20000000000002</ele><time>2026-04-18T13:16:39.098Z</time></trkpt><trkpt lat="36.9485928" lon="14.5623861"><ele>162.8</ele><time>2026-04-18T13:16:41.097Z</time></trkpt><trkpt lat="36.948563" lon="14.5624741"><ele>164.4</ele><time>2026-04-18T13:16:43.096Z</time></trkpt><trkpt lat="36.9485552" lon="14.5625832"><ele>166.0</ele><time>2026-04-18T13:16:45.1Z</time></trkpt><trkpt lat="36.9485656" lon="14.5627001"><ele>166.0</ele><time>2026-04-18T13:16:47.096Z</time></trkpt><trkpt lat="36.9485827" lon="14.5628538"><ele>166.0</ele><time>2026-04-18T13:16:49.096Z</time></trkpt><trkpt lat="36.9485897" lon="14.5629448"><ele>166.0</ele><time>2026-04-18T13:16:50.097Z</time></trkpt><trkpt lat="36.9485979" lon="14.56304"><ele>166.0</ele><time>2026-04-18T13:16:51.097Z</time></trkpt><trkpt lat="36.9485933" lon="14.5631253"><ele>166.0</ele><time>2026-04-18T13:16:52.097Z</time></trkpt><trkpt lat="36.9485528" lon="14.5632743"><ele>166.4</ele><time>2026-04-18T13:16:54.097Z</time></trkpt><trkpt lat="36.9485347" lon="14.5633762"><ele>166.8</ele><time>2026-04-18T13:16:55.097Z</time></trkpt><trkpt lat="36.9485017" lon="14.5634852"><ele>167.20000000000002</ele><time>2026-04-18T13:16:56.097Z</time></trkpt><trkpt lat="36.9484597" lon="14.5635969"><ele>167.60000000000002</ele><time>2026-04-18T13:16:57.097Z</time></trkpt><trkpt lat="36.9484092" lon="14.5637066"><ele>168.0</ele><time>2026-04-18T13:16:58.097Z</time></trkpt><trkpt lat="36.9483548" lon="14.5638195"><ele>168.0</ele><time>2026-04-18T13:16:59.097Z</time></trkpt><trkpt lat="36.9482952" lon="14.5639384"><ele>168.0</ele><time>2026-04-18T13:17:00.097Z</time></trkpt><trkpt lat="36.9482292" lon="14.5640555"><ele>168.0</ele><time>2026-04-18T13:17:01.098Z</time></trkpt><trkpt lat="36.9481535" lon="14.564162"><ele>168.0</ele><time>2026-04-18T13:17:02.098Z</time></trkpt><trkpt lat="36.94807" lon="14.5642601"><ele>168.0</ele><time>2026-04-18T13:17:03.097Z</time></trkpt><trkpt lat="36.947981" lon="14.5643578"><ele>168.0</ele><time>2026-04-18T13:17:04.097Z</time></trkpt><trkpt lat="36.9478885" lon="14.5644583"><ele>168.0</ele><time>2026-04-18T13:17:05.097Z</time></trkpt><trkpt lat="36.9477974" lon="14.5645645"><ele>168.0</ele><time>2026-04-18T13:17:06.097Z</time></trkpt><trkpt lat="36.9477103" lon="14.5646672"><ele>167.75</ele><time>2026-04-18T13:17:07.099Z</time></trkpt><trkpt lat="36.9476198" lon="14.5647478"><ele>167.5</ele><time>2026-04-18T13:17:08.097Z</time></trkpt><trkpt lat="36.9475198" lon="14.5648111"><ele>167.25</ele><time>2026-04-18T13:17:09.097Z</time></trkpt><trkpt lat="36.9474098" lon="14.5648627"><ele>167.0</ele><time>2026-04-18T13:17:10.097Z</time></trkpt><trkpt lat="36.9472969" lon="14.5649081"><ele>166.8</ele><time>2026-04-18T13:17:11.096Z</time></trkpt><trkpt lat="36.9471916" lon="14.5649531"><ele>166.6</ele><time>2026-04-18T13:17:12.098Z</time></trkpt><trkpt lat="36.9470992" lon="14.5649971"><ele>166.4</ele><time>2026-04-18T13:17:13.098Z</time></trkpt><trkpt lat="36.9470191" lon="14.565041"><ele>166.20000000000002</ele><time>2026-04-18T13:17:14.097Z</time></trkpt><trkpt lat="36.9469539" lon="14.5650855"><ele>166.0</ele><time>2026-04-18T13:17:15.098Z</time></trkpt><trkpt lat="36.9468872" lon="14.5651438"><ele>166.0</ele><time>2026-04-18T13:17:17.098Z</time></trkpt><trkpt lat="36.946808" lon="14.5651741"><ele>166.0</ele><time>2026-04-18T13:17:21.097Z</time></trkpt><trkpt lat="36.9467332" lon="14.5651649"><ele>166.0</ele><time>2026-04-18T13:17:24.098Z</time></trkpt><trkpt lat="36.9466715" lon="14.5650797"><ele>166.0</ele><time>2026-04-18T13:18:39.097Z</time></trkpt><trkpt lat="36.9465953" lon="14.5650137"><ele>166.0</ele><time>2026-04-18T13:18:40.097Z</time></trkpt><trkpt lat="36.9465021" lon="14.5649487"><ele>166.0</ele><time>2026-04-18T13:18:41.097Z</time></trkpt><trkpt lat="36.9464128" lon="14.5648967"><ele>166.20000000000002</ele><time>2026-04-18T13:18:42.097Z</time></trkpt><trkpt lat="36.9463057" lon="14.5648827"><ele>166.4</ele><time>2026-04-18T13:18:43.097Z</time></trkpt><trkpt lat="36.9461988" lon="14.5648906"><ele>166.6</ele><time>2026-04-18T13:18:44.097Z</time></trkpt><trkpt lat="36.9460947" lon="14.5649077"><ele>166.8</ele><time>2026-04-18T13:18:45.099Z</time></trkpt><trkpt lat="36.9459924" lon="14.5649128"><ele>167.0</ele><time>2026-04-18T13:18:46.098Z</time></trkpt><trkpt lat="36.945892" lon="14.5648887"><ele>167.6</ele><time>2026-04-18T13:18:47.098Z</time></trkpt><trkpt lat="36.9457913" lon="14.5648387"><ele>168.2</ele><time>2026-04-18T13:18:48.097Z</time></trkpt><trkpt lat="36.9456928" lon="14.5647853"><ele>168.8</ele><time>2026-04-18T13:18:49.097Z</time></trkpt><trkpt lat="36.9455932" lon="14.5647555"><ele>169.4</ele><time>2026-04-18T13:18:50.097Z</time></trkpt><trkpt lat="36.945492" lon="14.5647524"><ele>170.0</ele><time>2026-04-18T13:18:51.098Z</time></trkpt><trkpt lat="36.9453919" lon="14.5647608"><ele>170.0</ele><time>2026-04-18T13:18:52.097Z</time></trkpt><trkpt lat="36.9453066" lon="14.5647437"><ele>170.0</ele><time>2026-04-18T13:18:53.096Z</time></trkpt><trkpt lat="36.9452206" lon="14.5647114"><ele>170.0</ele><time>2026-04-18T13:18:54.098Z</time></trkpt><trkpt lat="36.9451443" lon="14.5646518"><ele>170.0</ele><time>2026-04-18T13:18:55.097Z</time></trkpt><trkpt lat="36.9450647" lon="14.5645766"><ele>170.0</ele><time>2026-04-18T13:18:56.098Z</time></trkpt><trkpt lat="36.9449754" lon="14.5645132"><ele>170.0</ele><time>2026-04-18T13:18:57.099Z</time></trkpt><trkpt lat="36.9448805" lon="14.5644699"><ele>170.0</ele><time>2026-04-18T13:18:58.099Z</time></trkpt><trkpt lat="36.94478" lon="14.5644328"><ele>170.0</ele><time>2026-04-18T13:18:59.099Z</time></trkpt><trkpt lat="36.944679" lon="14.5643811"><ele>170.0</ele><time>2026-04-18T13:19:00.098Z</time></trkpt><trkpt lat="36.9445747" lon="14.5643156"><ele>170.0</ele><time>2026-04-18T13:19:01.098Z</time></trkpt><trkpt lat="36.9444855" lon="14.5642464"><ele>170.0</ele><time>2026-04-18T13:19:02.098Z</time></trkpt><trkpt lat="36.944419" lon="14.5641707"><ele>170.0</ele><time>2026-04-18T13:19:03.098Z</time></trkpt><trkpt lat="36.9443681" lon="14.5640917"><ele>170.0</ele><time>2026-04-18T13:19:04.099Z</time></trkpt><trkpt lat="36.9443325" lon="14.5640111"><ele>170.0</ele><time>2026-04-18T13:19:05.097Z</time></trkpt><trkpt lat="36.9443113" lon="14.5639212"><ele>170.0</ele><time>2026-04-18T13:19:06.098Z</time></trkpt><trkpt lat="36.9442824" lon="14.5638135"><ele>170.0</ele><time>2026-04-18T13:19:07.099Z</time></trkpt><trkpt lat="36.944246" lon="14.5636883"><ele>172.25</ele><time>2026-04-18T13:19:08.098Z</time></trkpt><trkpt lat="36.9442126" lon="14.5635505"><ele>174.5</ele><time>2026-04-18T13:19:09.098Z</time></trkpt><trkpt lat="36.9441882" lon="14.5634028"><ele>176.75</ele><time>2026-04-18T13:19:10.098Z</time></trkpt><trkpt lat="36.9441753" lon="14.5632366"><ele>179.0</ele><time>2026-04-18T13:19:11.098Z</time></trkpt><trkpt lat="36.9441821" lon="14.5630732"><ele>179.0</ele><time>2026-04-18T13:19:12.101Z</time></trkpt><trkpt lat="36.9441937" lon="14.5629113"><ele>179.0</ele><time>2026-04-18T13:19:13.098Z</time></trkpt><trkpt lat="36.9442004" lon="14.5627617"><ele>179.0</ele><time>2026-04-18T13:19:14.098Z</time></trkpt><trkpt lat="36.9441948" lon="14.5626185"><ele>179.0</ele><time>2026-04-18T13:19:15.097Z</time></trkpt><trkpt lat="36.9441732" lon="14.5624795"><ele>178.75</ele><time>2026-04-18T13:19:16.098Z</time></trkpt><trkpt lat="36.9441431" lon="14.5623361"><ele>178.5</ele><time>2026-04-18T13:19:17.097Z</time></trkpt><trkpt lat="36.9441072" lon="14.5621927"><ele>178.25</ele><time>2026-04-18T13:19:18.097Z</time></trkpt><trkpt lat="36.9440582" lon="14.5620502"><ele>178.0</ele><time>2026-04-18T13:19:19.1Z</time></trkpt><trkpt lat="36.9440006" lon="14.5619129"><ele>177.4</ele><time>2026-04-18T13:19:20.098Z</time></trkpt><trkpt lat="36.9439451" lon="14.5617899"><ele>176.8</ele><time>2026-04-18T13:19:21.098Z</time></trkpt><trkpt lat="36.9438901" lon="14.5616713"><ele>176.2</ele><time>2026-04-18T13:19:22.098Z</time></trkpt><trkpt lat="36.9438397" lon="14.5615652"><ele>175.6</ele><time>2026-04-18T13:19:23.098Z</time></trkpt><trkpt lat="36.9437973" lon="14.5614762"><ele>175.0</ele><time>2026-04-18T13:19:24.099Z</time></trkpt><trkpt lat="36.9437796" lon="14.561363"><ele>175.0</ele><time>2026-04-18T13:19:26.097Z</time></trkpt><trkpt lat="36.9437634" lon="14.5612615"><ele>175.0</ele><time>2026-04-18T13:19:28.099Z</time></trkpt><trkpt lat="36.9437176" lon="14.5611507"><ele>175.0</ele><time>2026-04-18T13:19:30.098Z</time></trkpt><trkpt lat="36.9436959" lon="14.5610733"><ele>175.0</ele><time>2026-04-18T13:19:31.098Z</time></trkpt><trkpt lat="36.9436711" lon="14.5609977"><ele>175.0</ele><time>2026-04-18T13:19:32.099Z</time></trkpt><trkpt lat="36.9436407" lon="14.5609237"><ele>175.0</ele><time>2026-04-18T13:19:33.099Z</time></trkpt><trkpt lat="36.9436051" lon="14.5608403"><ele>175.2</ele><time>2026-04-18T13:19:34.098Z</time></trkpt><trkpt lat="36.9435736" lon="14.5607475"><ele>175.4</ele><time>2026-04-18T13:19:35.098Z</time></trkpt><trkpt lat="36.9435379" lon="14.5606619"><ele>175.60000000000002</ele><time>2026-04-18T13:19:36.098Z</time></trkpt><trkpt lat="36.9434912" lon="14.5605931"><ele>175.8</ele><time>2026-04-18T13:19:37.098Z</time></trkpt><trkpt lat="36.9434045" lon="14.5604867"><ele>176.0</ele><time>2026-04-18T13:19:39.099Z</time></trkpt><trkpt lat="36.9433362" lon="14.5603816"><ele>176.16666666666666</ele><time>2026-04-18T13:19:41.098Z</time></trkpt><trkpt lat="36.9433247" lon="14.5602734"><ele>176.33333333333331</ele><time>2026-04-18T13:19:43.099Z</time></trkpt><trkpt lat="36.9433623" lon="14.5601998"><ele>176.5</ele><time>2026-04-18T13:19:45.099Z</time></trkpt><trkpt lat="36.9434337" lon="14.5602119"><ele>176.66666666666666</ele><time>2026-04-18T13:19:47.098Z</time></trkpt><trkpt lat="36.9435103" lon="14.5601587"><ele>176.83333333333334</ele><time>2026-04-18T13:19:50.098Z</time></trkpt><trkpt lat="36.9435855" lon="14.5601425"><ele>177.0</ele><time>2026-04-18T13:19:52.098Z</time></trkpt><trkpt lat="36.9436651" lon="14.5601168"><ele>174.66666666666666</ele><time>2026-04-18T13:19:54.097Z</time></trkpt><trkpt lat="36.9437363" lon="14.5601144"><ele>172.33333333333334</ele><time>2026-04-18T13:19:56.097Z</time></trkpt><trkpt lat="36.9437988" lon="14.5600923"><ele>170.0</ele><time>2026-04-18T13:19:58.097Z</time></trkpt><trkpt lat="36.9438842" lon="14.5600755"><ele>167.66666666666669</ele><time>2026-04-18T13:20:00.097Z</time></trkpt><trkpt lat="36.9439704" lon="14.5600333"><ele>165.33333333333334</ele><time>2026-04-18T13:20:02.098Z</time></trkpt><trkpt lat="36.9440654" lon="14.5600188"><ele>163.0</ele><time>2026-04-18T13:20:04.098Z</time></trkpt><trkpt lat="36.9441608" lon="14.5599781"><ele>161.33333333333334</ele><time>2026-04-18T13:20:06.098Z</time></trkpt><trkpt lat="36.9442294" lon="14.559897"><ele>159.66666666666669</ele><time>2026-04-18T13:20:08.098Z</time></trkpt><trkpt lat="36.9442538" lon="14.5598051"><ele>158.0</ele><time>2026-04-18T13:20:10.098Z</time></trkpt><trkpt lat="36.9443018" lon="14.5597093"><ele>156.33333333333334</ele><time>2026-04-18T13:20:12.098Z</time></trkpt><trkpt lat="36.9443495" lon="14.5596098"><ele>154.66666666666666</ele><time>2026-04-18T13:20:14.099Z</time></trkpt><trkpt lat="36.9443806" lon="14.5595006"><ele>153.0</ele><time>2026-04-18T13:20:16.102Z</time></trkpt><trkpt lat="36.9444127" lon="14.5594146"><ele>153.0</ele><time>2026-04-18T13:20:18.098Z</time></trkpt><trkpt lat="36.9444408" lon="14.5592886"><ele>153.0</ele><time>2026-04-18T13:20:21.098Z</time></trkpt><trkpt lat="36.9444797" lon="14.5591546"><ele>153.0</ele><time>2026-04-18T13:20:23.098Z</time></trkpt><trkpt lat="36.9445212" lon="14.5590931"><ele>153.0</ele><time>2026-04-18T13:20:24.098Z</time></trkpt><trkpt lat="36.9445666" lon="14.5590359"><ele>153.0</ele><time>2026-04-18T13:20:25.099Z</time></trkpt><trkpt lat="36.9446814" lon="14.558983"><ele>153.0</ele><time>2026-04-18T13:20:27.098Z</time></trkpt><trkpt lat="36.944802" lon="14.5589213"><ele>153.0</ele><time>2026-04-18T13:20:29.097Z</time></trkpt><trkpt lat="36.9448573" lon="14.5588674"><ele>153.0</ele><time>2026-04-18T13:20:30.098Z</time></trkpt><trkpt lat="36.9449368" lon="14.5587645"><ele>153.0</ele><time>2026-04-18T13:20:32.098Z</time></trkpt><trkpt lat="36.9450231" lon="14.5586879"><ele>153.0</ele><time>2026-04-18T13:20:34.098Z</time></trkpt><trkpt lat="36.9451397" lon="14.5586532"><ele>153.33333333333334</ele><time>2026-04-18T13:20:36.099Z</time></trkpt><trkpt lat="36.9452276" lon="14.5586546"><ele>153.66666666666666</ele><time>2026-04-18T13:20:37.098Z</time></trkpt><trkpt lat="36.9453115" lon="14.5586482"><ele>154.0</ele><time>2026-04-18T13:20:38.099Z</time></trkpt><trkpt lat="36.9453835" lon="14.5586334"><ele>154.33333333333331</ele><time>2026-04-18T13:20:39.098Z</time></trkpt><trkpt lat="36.9454642" lon="14.5586104"><ele>154.66666666666666</ele><time>2026-04-18T13:20:40.098Z</time></trkpt><trkpt lat="36.9455354" lon="14.558563"><ele>155.0</ele><time>2026-04-18T13:20:41.098Z</time></trkpt><trkpt lat="36.9456081" lon="14.5585046"><ele>155.0</ele><time>2026-04-18T13:20:42.099Z</time></trkpt><trkpt lat="36.9456781" lon="14.5584372"><ele>155.0</ele><time>2026-04-18T13:20:43.1Z</time></trkpt><trkpt lat="36.9457504" lon="14.5583622"><ele>155.0</ele><time>2026-04-18T13:20:44.099Z</time></trkpt><trkpt lat="36.9458136" lon="14.5582834"><ele>155.0</ele><time>2026-04-18T13:20:45.101Z</time></trkpt><trkpt lat="36.9458779" lon="14.5582119"><ele>155.0</ele><time>2026-04-18T13:20:46.099Z</time></trkpt><trkpt lat="36.9459415" lon="14.5581542"><ele>155.0</ele><time>2026-04-18T13:20:47.098Z</time></trkpt><trkpt lat="36.9459996" lon="14.558109"><ele>153.8</ele><time>2026-04-18T13:20:48.098Z</time></trkpt><trkpt lat="36.9460628" lon="14.5580125"><ele>152.6</ele><time>2026-04-18T13:20:50.099Z</time></trkpt><trkpt lat="36.9460322" lon="14.5579068"><ele>151.4</ele><time>2026-04-18T13:20:52.1Z</time></trkpt><trkpt lat="36.9459788" lon="14.5578507"><ele>150.2</ele><time>2026-04-18T13:20:53.1Z</time></trkpt><trkpt lat="36.9459331" lon="14.5577268"><ele>149.0</ele><time>2026-04-18T13:20:55.099Z</time></trkpt><trkpt lat="36.9459305" lon="14.5575789"><ele>149.0</ele><time>2026-04-18T13:20:57.1Z</time></trkpt><trkpt lat="36.9459548" lon="14.5574587"><ele>149.0</ele><time>2026-04-18T13:20:59.098Z</time></trkpt><trkpt lat="36.9460073" lon="14.5573373"><ele>149.0</ele><time>2026-04-18T13:21:01.098Z</time></trkpt><trkpt lat="36.9460879" lon="14.5572338"><ele>149.0</ele><time>2026-04-18T13:21:03.099Z</time></trkpt><trkpt lat="36.94616" lon="14.557183"><ele>149.0</ele><time>2026-04-18T13:21:04.098Z</time></trkpt><trkpt lat="36.9462446" lon="14.5571192"><ele>149.0</ele><time>2026-04-18T13:21:05.099Z</time></trkpt><trkpt lat="36.9463419" lon="14.5570378"><ele>149.0</ele><time>2026-04-18T13:21:06.1Z</time></trkpt><trkpt lat="36.9464399" lon="14.5569405"><ele>149.0</ele><time>2026-04-18T13:21:07.1Z</time></trkpt><trkpt lat="36.9465214" lon="14.5568456"><ele>149.0</ele><time>2026-04-18T13:21:08.099Z</time></trkpt><trkpt lat="36.9465723" lon="14.5567541"><ele>149.0</ele><time>2026-04-18T13:21:09.098Z</time></trkpt><trkpt lat="36.9466065" lon="14.5566684"><ele>147.0</ele><time>2026-04-18T13:21:10.098Z</time></trkpt><trkpt lat="36.9466382" lon="14.5565848"><ele>145.0</ele><time>2026-04-18T13:21:11.097Z</time></trkpt><trkpt lat="36.9466857" lon="14.5565002"><ele>143.0</ele><time>2026-04-18T13:21:12.099Z</time></trkpt><trkpt lat="36.9467493" lon="14.556415"><ele>141.0</ele><time>2026-04-18T13:21:13.099Z</time></trkpt><trkpt lat="36.9468329" lon="14.5563256"><ele>139.0</ele><time>2026-04-18T13:21:14.098Z</time></trkpt><trkpt lat="36.9469086" lon="14.5562392"><ele>142.33333333333334</ele><time>2026-04-18T13:21:15.098Z</time></trkpt><trkpt lat="36.9469767" lon="14.5561512"><ele>145.66666666666669</ele><time>2026-04-18T13:21:16.098Z</time></trkpt><trkpt lat="36.9470414" lon="14.5560661"><ele>149.0</ele><time>2026-04-18T13:21:17.097Z</time></trkpt><trkpt lat="36.9471007" lon="14.5559859"><ele>152.33333333333334</ele><time>2026-04-18T13:21:18.099Z</time></trkpt><trkpt lat="36.9471602" lon="14.5559"><ele>155.66666666666666</ele><time>2026-04-18T13:21:19.098Z</time></trkpt><trkpt lat="36.9472086" lon="14.555821"><ele>159.0</ele><time>2026-04-18T13:21:20.098Z</time></trkpt><trkpt lat="36.9472504" lon="14.5557511"><ele>159.0</ele><time>2026-04-18T13:21:21.097Z</time></trkpt><trkpt lat="36.9473117" lon="14.5556215"><ele>159.0</ele><time>2026-04-18T13:21:23.098Z</time></trkpt><trkpt lat="36.9473541" lon="14.5555497"><ele>159.0</ele><time>2026-04-18T13:21:24.098Z</time></trkpt><trkpt lat="36.9474031" lon="14.5554792"><ele>159.0</ele><time>2026-04-18T13:21:25.097Z</time></trkpt><trkpt lat="36.9474687" lon="14.5553985"><ele>159.0</ele><time>2026-04-18T13:21:26.099Z</time></trkpt><trkpt lat="36.9475198" lon="14.555293"><ele>158.83333333333334</ele><time>2026-04-18T13:21:27.099Z</time></trkpt><trkpt lat="36.9475583" lon="14.5551909"><ele>158.66666666666666</ele><time>2026-04-18T13:21:28.099Z</time></trkpt><trkpt lat="36.9475879" lon="14.5550951"><ele>158.5</ele><time>2026-04-18T13:21:29.099Z</time></trkpt><trkpt lat="36.9476189" lon="14.5550045"><ele>158.33333333333331</ele><time>2026-04-18T13:21:30.101Z</time></trkpt><trkpt lat="36.9476514" lon="14.5549089"><ele>158.16666666666666</ele><time>2026-04-18T13:21:31.098Z</time></trkpt><trkpt lat="36.9476872" lon="14.554792"><ele>158.0</ele><time>2026-04-18T13:21:32.099Z</time></trkpt><trkpt lat="36.9477222" lon="14.5546576"><ele>158.8</ele><time>2026-04-18T13:21:33.099Z</time></trkpt><trkpt lat="36.9477495" lon="14.5545187"><ele>159.60000000000002</ele><time>2026-04-18T13:21:34.098Z</time></trkpt><trkpt lat="36.9477748" lon="14.5543816"><ele>160.39999999999998</ele><time>2026-04-18T13:21:35.098Z</time></trkpt><trkpt lat="36.9478" lon="14.554254"><ele>161.2</ele><time>2026-04-18T13:21:36.098Z</time></trkpt><trkpt lat="36.9478231" lon="14.554144"><ele>162.0</ele><time>2026-04-18T13:21:37.099Z</time></trkpt><trkpt lat="36.947845" lon="14.5540415"><ele>162.0</ele><time>2026-04-18T13:21:38.098Z</time></trkpt><trkpt lat="36.9478646" lon="14.5539466"><ele>162.0</ele><time>2026-04-18T13:21:39.1Z</time></trkpt><trkpt lat="36.9478762" lon="14.5538356"><ele>162.0</ele><time>2026-04-18T13:21:40.098Z</time></trkpt><trkpt lat="36.9478626" lon="14.5537142"><ele>162.0</ele><time>2026-04-18T13:21:41.098Z</time></trkpt><trkpt lat="36.9478255" lon="14.5536052"><ele>162.0</ele><time>2026-04-18T13:21:42.1Z</time></trkpt><trkpt lat="36.9477658" lon="14.5535126"><ele>164.39999999999998</ele><time>2026-04-18T13:21:43.099Z</time></trkpt><trkpt lat="36.9476933" lon="14.5534305"><ele>166.79999999999998</ele><time>2026-04-18T13:21:44.1Z</time></trkpt><trkpt lat="36.9476137" lon="14.5533565"><ele>169.2</ele><time>2026-04-18T13:21:45.098Z</time></trkpt><trkpt lat="36.9475309" lon="14.5532892"><ele>171.6</ele><time>2026-04-18T13:21:46.098Z</time></trkpt><trkpt lat="36.9474363" lon="14.5532425"><ele>174.0</ele><time>2026-04-18T13:21:47.099Z</time></trkpt><trkpt lat="36.9473417" lon="14.5532222"><ele>174.0</ele><time>2026-04-18T13:21:48.098Z</time></trkpt><trkpt lat="36.9472432" lon="14.5532116"><ele>174.0</ele><time>2026-04-18T13:21:49.098Z</time></trkpt><trkpt lat="36.9471561" lon="14.5532203"><ele>174.0</ele><time>2026-04-18T13:21:50.098Z</time></trkpt><trkpt lat="36.9470677" lon="14.5532463"><ele>174.0</ele><time>2026-04-18T13:21:51.101Z</time></trkpt><trkpt lat="36.9469827" lon="14.5532913"><ele>174.0</ele><time>2026-04-18T13:21:52.098Z</time></trkpt><trkpt lat="36.9469088" lon="14.5533581"><ele>174.0</ele><time>2026-04-18T13:21:53.098Z</time></trkpt><trkpt lat="36.9468399" lon="14.5534191"><ele>174.0</ele><time>2026-04-18T13:21:54.098Z</time></trkpt><trkpt lat="36.9467741" lon="14.5534725"><ele>174.0</ele><time>2026-04-18T13:21:55.099Z</time></trkpt><trkpt lat="36.9467101" lon="14.5535185"><ele>174.0</ele><time>2026-04-18T13:21:56.099Z</time></trkpt><trkpt lat="36.9466059" lon="14.5535844"><ele>174.0</ele><time>2026-04-18T13:21:58.099Z</time></trkpt><trkpt lat="36.9465157" lon="14.5536133"><ele>174.0</ele><time>2026-04-18T13:22:00.096Z</time></trkpt><trkpt lat="36.9464511" lon="14.5536265"><ele>173.39999999999998</ele><time>2026-04-18T13:22:04.097Z</time></trkpt><trkpt lat="36.9463466" lon="14.5536144"><ele>172.8</ele><time>2026-04-18T13:22:26.097Z</time></trkpt><trkpt lat="36.94627" lon="14.5536214"><ele>172.2</ele><time>2026-04-18T13:22:27.097Z</time></trkpt><trkpt lat="36.9461991" lon="14.5536464"><ele>171.60000000000002</ele><time>2026-04-18T13:22:28.096Z</time></trkpt><trkpt lat="36.946094" lon="14.5536538"><ele>171.0</ele><time>2026-04-18T13:22:30.098Z</time></trkpt><trkpt lat="36.9459963" lon="14.5535955"><ele>171.0</ele><time>2026-04-18T13:22:32.098Z</time></trkpt><trkpt lat="36.9459345" lon="14.5535501"><ele>171.0</ele><time>2026-04-18T13:22:33.104Z</time></trkpt><trkpt lat="36.9458708" lon="14.553503"><ele>171.0</ele><time>2026-04-18T13:22:34.097Z</time></trkpt><trkpt lat="36.945813" lon="14.5534548"><ele>171.0</ele><time>2026-04-18T13:22:35.099Z</time></trkpt><trkpt lat="36.9457568" lon="14.553414"><ele>171.0</ele><time>2026-04-18T13:22:36.099Z</time></trkpt><trkpt lat="36.9456632" lon="14.5533401"><ele>171.0</ele><time>2026-04-18T13:22:38.098Z</time></trkpt><trkpt lat="36.9456576" lon="14.553177"><ele>170.0</ele><time>2026-04-18T13:22:40.097Z</time></trkpt><trkpt lat="36.9456601" lon="14.5530842"><ele>169.0</ele><time>2026-04-18T13:22:41.097Z</time></trkpt><trkpt lat="36.9456541" lon="14.5530046"><ele>168.0</ele><time>2026-04-18T13:22:42.097Z</time></trkpt><trkpt lat="36.9456295" lon="14.5528632"><ele>167.0</ele><time>2026-04-18T13:22:44.098Z</time></trkpt><trkpt lat="36.9455595" lon="14.5527568"><ele>166.0</ele><time>2026-04-18T13:22:46.097Z</time></trkpt><trkpt lat="36.9454422" lon="14.5527127"><ele>163.33333333333334</ele><time>2026-04-18T13:22:48.101Z</time></trkpt><trkpt lat="36.945313" lon="14.5527073"><ele>160.66666666666669</ele><time>2026-04-18T13:22:50.098Z</time></trkpt><trkpt lat="36.945242" lon="14.5527138"><ele>158.0</ele><time>2026-04-18T13:22:51.101Z</time></trkpt><trkpt lat="36.9451727" lon="14.5527238"><ele>155.33333333333334</ele><time>2026-04-18T13:22:52.097Z</time></trkpt><trkpt lat="36.9451047" lon="14.5527382"><ele>152.66666666666666</ele><time>2026-04-18T13:22:53.097Z</time></trkpt><trkpt lat="36.945041" lon="14.5527498"><ele>150.0</ele><time>2026-04-18T13:22:54.097Z</time></trkpt><trkpt lat="36.9449391" lon="14.5527576"><ele>149.83333333333334</ele><time>2026-04-18T13:22:56.098Z</time></trkpt><trkpt lat="36.944854" lon="14.5527413"><ele>149.66666666666666</ele><time>2026-04-18T13:22:58.097Z</time></trkpt><trkpt lat="36.944797" lon="14.5526841"><ele>149.5</ele><time>2026-04-18T13:23:00.097Z</time></trkpt><trkpt lat="36.9447235" lon="14.5526914"><ele>149.33333333333331</ele><time>2026-04-18T13:23:02.099Z</time></trkpt><trkpt lat="36.9446338" lon="14.5528218"><ele>149.16666666666666</ele><time>2026-04-18T13:23:04.098Z</time></trkpt><trkpt lat="36.944585" lon="14.5528764"><ele>149.0</ele><time>2026-04-18T13:23:05.097Z</time></trkpt><trkpt lat="36.9444741" lon="14.5528994"><ele>149.0</ele><time>2026-04-18T13:23:07.097Z</time></trkpt><trkpt lat="36.9443799" lon="14.552882"><ele>149.0</ele><time>2026-04-18T13:23:09.099Z</time></trkpt><trkpt lat="36.9443411" lon="14.5528153"><ele>149.0</ele><time>2026-04-18T13:23:12.098Z</time></trkpt><trkpt lat="36.944376" lon="14.5527422"><ele>149.0</ele><time>2026-04-18T13:23:16.097Z</time></trkpt><trkpt lat="36.9444363" lon="14.5526527"><ele>149.0</ele><time>2026-04-18T13:23:20.098Z</time></trkpt><trkpt lat="36.9444838" lon="14.5525988"><ele>149.0</ele><time>2026-04-18T13:23:22.098Z</time></trkpt><trkpt lat="36.944564" lon="14.5525845"><ele>149.0</ele><time>2026-04-18T13:23:24.098Z</time></trkpt><trkpt lat="36.9446549" lon="14.5525492"><ele>149.0</ele><time>2026-04-18T13:23:26.097Z</time></trkpt><trkpt lat="36.9447358" lon="14.5524651"><ele>149.0</ele><time>2026-04-18T13:23:28.097Z</time></trkpt><trkpt lat="36.9448121" lon="14.552367"><ele>149.0</ele><time>2026-04-18T13:23:30.097Z</time></trkpt><trkpt lat="36.9448269" lon="14.5522598"><ele>149.0</ele><time>2026-04-18T13:23:32.185Z</time></trkpt><trkpt lat="36.9448196" lon="14.5521498"><ele>150.2</ele><time>2026-04-18T13:23:34.099Z</time></trkpt><trkpt lat="36.9448197" lon="14.5520089"><ele>151.4</ele><time>2026-04-18T13:23:43.097Z</time></trkpt><trkpt lat="36.9448071" lon="14.5519179"><ele>152.6</ele><time>2026-04-18T13:23:45.097Z</time></trkpt><trkpt lat="36.9447845" lon="14.5517962"><ele>153.8</ele><time>2026-04-18T13:23:47.096Z</time></trkpt><trkpt lat="36.9447607" lon="14.5516609"><ele>155.0</ele><time>2026-04-18T13:23:49.097Z</time></trkpt><trkpt lat="36.9447469" lon="14.551552"><ele>155.0</ele><time>2026-04-18T13:23:51.099Z</time></trkpt><trkpt lat="36.9447677" lon="14.5514473"><ele>155.0</ele><time>2026-04-18T13:24:08.098Z</time></trkpt><trkpt lat="36.9447792" lon="14.5513522"><ele>155.0</ele><time>2026-04-18T13:24:09.097Z</time></trkpt><trkpt lat="36.9447824" lon="14.5512555"><ele>155.0</ele><time>2026-04-18T13:24:10.098Z</time></trkpt><trkpt lat="36.9447926" lon="14.5511738"><ele>155.0</ele><time>2026-04-18T13:24:11.097Z</time></trkpt><trkpt lat="36.944852" lon="14.5511093"><ele>155.0</ele><time>2026-04-18T13:24:13.099Z</time></trkpt><trkpt lat="36.9449204" lon="14.5510517"><ele>154.75</ele><time>2026-04-18T13:24:15.098Z</time></trkpt><trkpt lat="36.945" lon="14.5509637"><ele>154.5</ele><time>2026-04-18T13:24:17.097Z</time></trkpt><trkpt lat="36.9450989" lon="14.5508866"><ele>154.25</ele><time>2026-04-18T13:24:19.098Z</time></trkpt><trkpt lat="36.945199" lon="14.5508087"><ele>154.0</ele><time>2026-04-18T13:24:21.098Z</time></trkpt><trkpt lat="36.9453061" lon="14.5507365"><ele>154.0</ele><time>2026-04-18T13:24:23.099Z</time></trkpt><trkpt lat="36.9453603" lon="14.5506941"><ele>154.0</ele><time>2026-04-18T13:24:24.098Z</time></trkpt><trkpt lat="36.9454506" lon="14.5506104"><ele>154.0</ele><time>2026-04-18T13:24:26.099Z</time></trkpt><trkpt lat="36.9455527" lon="14.5505016"><ele>154.0</ele><time>2026-04-18T13:24:28.097Z</time></trkpt><trkpt lat="36.9456108" lon="14.5504443"><ele>154.0</ele><time>2026-04-18T13:24:29.1Z</time></trkpt><trkpt lat="36.9456945" lon="14.5503484"><ele>155.6</ele><time>2026-04-18T13:24:31.099Z</time></trkpt><trkpt lat="36.94573" lon="14.5502632"><ele>157.2</ele><time>2026-04-18T13:24:33.098Z</time></trkpt><trkpt lat="36.9457919" lon="14.5502162"><ele>158.79999999999998</ele><time>2026-04-18T13:24:37.098Z</time></trkpt><trkpt lat="36.9458583" lon="14.5501617"><ele>160.4</ele><time>2026-04-18T13:24:39.097Z</time></trkpt><trkpt lat="36.9459523" lon="14.5500865"><ele>162.0</ele><time>2026-04-18T13:24:41.097Z</time></trkpt><trkpt lat="36.946035" lon="14.5499566"><ele>159.33333333333334</ele><time>2026-04-18T13:24:43.098Z</time></trkpt><trkpt lat="36.9460889" lon="14.5499005"><ele>156.66666666666666</ele><time>2026-04-18T13:24:44.098Z</time></trkpt><trkpt lat="36.9461497" lon="14.5498468"><ele>154.0</ele><time>2026-04-18T13:24:45.098Z</time></trkpt><trkpt lat="36.9462035" lon="14.5497901"><ele>151.33333333333331</ele><time>2026-04-18T13:24:46.099Z</time></trkpt><trkpt lat="36.9462514" lon="14.549731"><ele>148.66666666666666</ele><time>2026-04-18T13:24:47.098Z</time></trkpt><trkpt lat="36.946315" lon="14.5496234"><ele>146.0</ele><time>2026-04-18T13:24:49.097Z</time></trkpt><trkpt lat="36.9463453" lon="14.5494827"><ele>145.33333333333331</ele><time>2026-04-18T13:24:51.098Z</time></trkpt><trkpt lat="36.9463436" lon="14.5493326"><ele>144.66666666666666</ele><time>2026-04-18T13:24:53.098Z</time></trkpt><trkpt lat="36.9463444" lon="14.5492513"><ele>144.0</ele><time>2026-04-18T13:24:54.098Z</time></trkpt><trkpt lat="36.9463512" lon="14.5491661"><ele>143.33333333333334</ele><time>2026-04-18T13:24:55.099Z</time></trkpt><trkpt lat="36.9463627" lon="14.5490731"><ele>142.66666666666669</ele><time>2026-04-18T13:24:56.1Z</time></trkpt><trkpt lat="36.9463766" lon="14.5489793"><ele>142.0</ele><time>2026-04-18T13:24:57.1Z</time></trkpt><trkpt lat="36.9463851" lon="14.5488519"><ele>142.0</ele><time>2026-04-18T13:24:59.098Z</time></trkpt><trkpt lat="36.9463706" lon="14.548772"><ele>142.0</ele><time>2026-04-18T13:25:03.1Z</time></trkpt><trkpt lat="36.9463411" lon="14.5486514"><ele>142.0</ele><time>2026-04-18T13:25:08.1Z</time></trkpt><trkpt lat="36.946265" lon="14.5485094"><ele>142.0</ele><time>2026-04-18T13:25:10.098Z</time></trkpt><trkpt lat="36.9462242" lon="14.5484385"><ele>142.0</ele><time>2026-04-18T13:25:11.097Z</time></trkpt><trkpt lat="36.9461647" lon="14.548335"><ele>140.66666666666669</ele><time>2026-04-18T13:25:13.097Z</time></trkpt><trkpt lat="36.9461087" lon="14.5482587"><ele>139.33333333333334</ele><time>2026-04-18T13:25:16.097Z</time></trkpt><trkpt lat="36.9461302" lon="14.5481742"><ele>138.0</ele><time>2026-04-18T13:25:20.097Z</time></trkpt><trkpt lat="36.9461675" lon="14.5480618"><ele>136.66666666666666</ele><time>2026-04-18T13:25:22.099Z</time></trkpt><trkpt lat="36.9461991" lon="14.5479794"><ele>135.33333333333331</ele><time>2026-04-18T13:25:24.098Z</time></trkpt><trkpt lat="36.9462054" lon="14.5478914"><ele>134.0</ele><time>2026-04-18T13:25:27.098Z</time></trkpt><trkpt lat="36.9462122" lon="14.5478001"><ele>131.0</ele><time>2026-04-18T13:25:31.098Z</time></trkpt><trkpt lat="36.946182" lon="14.5477233"><ele>128.0</ele><time>2026-04-18T13:25:37.098Z</time></trkpt><trkpt lat="36.9461635" lon="14.5476093"><ele>125.0</ele><time>2026-04-18T13:25:40.098Z</time></trkpt><trkpt lat="36.9461296" lon="14.5475119"><ele>122.0</ele><time>2026-04-18T13:25:42.097Z</time></trkpt><trkpt lat="36.9460716" lon="14.5474159"><ele>118.99999999999999</ele><time>2026-04-18T13:25:44.097Z</time></trkpt><trkpt lat="36.9460198" lon="14.5473503"><ele>116.0</ele><time>2026-04-18T13:25:46.098Z</time></trkpt><trkpt lat="36.9459546" lon="14.5474272"><ele>115.99999999999999</ele><time>2026-04-18T13:25:50.099Z</time></trkpt><trkpt lat="36.9459024" lon="14.5474972"><ele>116.0</ele><time>2026-04-18T13:25:52.098Z</time></trkpt><trkpt lat="36.9458294" lon="14.5475652"><ele>116.0</ele><time>2026-04-18T13:25:54.098Z</time></trkpt><trkpt lat="36.9457535" lon="14.5475828"><ele>116.0</ele><time>2026-04-18T13:25:56.098Z</time></trkpt><trkpt lat="36.9456643" lon="14.5475893"><ele>115.99999999999999</ele><time>2026-04-18T13:25:58.096Z</time></trkpt><trkpt lat="36.9455538" lon="14.5475993"><ele>116.0</ele><time>2026-04-18T13:26:00.098Z</time></trkpt><trkpt lat="36.9454703" lon="14.5476306"><ele>117.33333333333333</ele><time>2026-04-18T13:26:02.1Z</time></trkpt><trkpt lat="36.9454129" lon="14.5476656"><ele>118.66666666666666</ele><time>2026-04-18T13:26:04.099Z</time></trkpt><trkpt lat="36.9453502" lon="14.5476578"><ele>120.0</ele><time>2026-04-18T13:26:06.099Z</time></trkpt><trkpt lat="36.9452653" lon="14.5477024"><ele>121.33333333333334</ele><time>2026-04-18T13:26:08.097Z</time></trkpt><trkpt lat="36.9452148" lon="14.547613"><ele>122.66666666666667</ele><time>2026-04-18T13:26:11.098Z</time></trkpt><trkpt lat="36.9452801" lon="14.5475059"><ele>124.0</ele><time>2026-04-18T13:26:13.098Z</time></trkpt><trkpt lat="36.9453341" lon="14.5474529"><ele>124.00000000000001</ele><time>2026-04-18T13:26:14.097Z</time></trkpt><trkpt lat="36.9453826" lon="14.5474003"><ele>124.0</ele><time>2026-04-18T13:26:15.099Z</time></trkpt><trkpt lat="36.9454568" lon="14.5473015"><ele>124.0</ele><time>2026-04-18T13:26:17.098Z</time></trkpt><trkpt lat="36.9454987" lon="14.547209"><ele>124.0</ele><time>2026-04-18T13:26:19.097Z</time></trkpt><trkpt lat="36.9454807" lon="14.5471186"><ele>124.00000000000001</ele><time>2026-04-18T13:26:22.098Z</time></trkpt><trkpt lat="36.9454832" lon="14.5470333"><ele>124.0</ele><time>2026-04-18T13:26:25.098Z</time></trkpt><trkpt lat="36.9454617" lon="14.5469563"><ele>123.33333333333334</ele><time>2026-04-18T13:26:28.097Z</time></trkpt><trkpt lat="36.9454365" lon="14.5468742"><ele>122.66666666666667</ele><time>2026-04-18T13:26:33.098Z</time></trkpt><trkpt lat="36.9454409" lon="14.5467507"><ele>122.0</ele><time>2026-04-18T13:26:37.098Z</time></trkpt><trkpt lat="36.94546" lon="14.5466723"><ele>121.33333333333334</ele><time>2026-04-18T13:26:39.098Z</time></trkpt><trkpt lat="36.9454755" lon="14.5465757"><ele>120.66666666666667</ele><time>2026-04-18T13:26:41.096Z</time></trkpt><trkpt lat="36.9454411" lon="14.5464872"><ele>120.0</ele><time>2026-04-18T13:26:43.098Z</time></trkpt><trkpt lat="36.9453971" lon="14.5464065"><ele>120.0</ele><time>2026-04-18T13:26:45.098Z</time></trkpt><trkpt lat="36.9453585" lon="14.5463355"><ele>120.0</ele><time>2026-04-18T13:26:48.097Z</time></trkpt><trkpt lat="36.9452913" lon="14.5462932"><ele>120.0</ele><time>2026-04-18T13:26:51.097Z</time></trkpt><trkpt lat="36.9452936" lon="14.5461902"><ele>120.0</ele><time>2026-04-18T13:26:53.097Z</time></trkpt><trkpt lat="36.9453199" lon="14.546115"><ele>120.0</ele><time>2026-04-18T13:26:54.097Z</time></trkpt><trkpt lat="36.9453441" lon="14.5460415"><ele>120.0</ele><time>2026-04-18T13:26:55.098Z</time></trkpt><trkpt lat="36.9453799" lon="14.5459636"><ele>120.0</ele><time>2026-04-18T13:26:56.098Z</time></trkpt><trkpt lat="36.9454127" lon="14.5458917"><ele>122.66666666666667</ele><time>2026-04-18T13:26:57.099Z</time></trkpt><trkpt lat="36.9454556" lon="14.545832"><ele>125.33333333333334</ele><time>2026-04-18T13:26:58.098Z</time></trkpt><trkpt lat="36.9454911" lon="14.5457258"><ele>128.0</ele><time>2026-04-18T13:27:00.098Z</time></trkpt><trkpt lat="36.9454531" lon="14.5456314"><ele>130.66666666666669</ele><time>2026-04-18T13:27:02.097Z</time></trkpt><trkpt lat="36.9453843" lon="14.5455546"><ele>133.33333333333334</ele><time>2026-04-18T13:27:04.097Z</time></trkpt><trkpt lat="36.9453059" lon="14.5454872"><ele>136.0</ele><time>2026-04-18T13:27:06.097Z</time></trkpt><trkpt lat="36.9452255" lon="14.5454424"><ele>136.0</ele><time>2026-04-18T13:27:08.098Z</time></trkpt><trkpt lat="36.9451592" lon="14.5453845"><ele>136.0</ele><time>2026-04-18T13:27:10.1Z</time></trkpt><trkpt lat="36.9450761" lon="14.5454037"><ele>136.0</ele><time>2026-04-18T13:27:12.099Z</time></trkpt><trkpt lat="36.9449537" lon="14.5454322"><ele>136.0</ele><time>2026-04-18T13:27:14.098Z</time></trkpt><trkpt lat="36.9448743" lon="14.5454293"><ele>136.0</ele><time>2026-04-18T13:27:15.099Z</time></trkpt><trkpt lat="36.9447794" lon="14.5454194"><ele>136.66666666666669</ele><time>2026-04-18T13:27:16.098Z</time></trkpt><trkpt lat="36.944688" lon="14.5453983"><ele>137.33333333333334</ele><time>2026-04-18T13:27:17.098Z</time></trkpt><trkpt lat="36.9446125" lon="14.5453598"><ele>138.0</ele><time>2026-04-18T13:27:18.098Z</time></trkpt><trkpt lat="36.9445421" lon="14.5453063"><ele>138.66666666666666</ele><time>2026-04-18T13:27:19.098Z</time></trkpt><trkpt lat="36.9444746" lon="14.5452389"><ele>139.33333333333331</ele><time>2026-04-18T13:27:20.099Z</time></trkpt><trkpt lat="36.9444105" lon="14.5451632"><ele>140.0</ele><time>2026-04-18T13:27:21.1Z</time></trkpt><trkpt lat="36.9443493" lon="14.5450941"><ele>140.0</ele><time>2026-04-18T13:27:22.098Z</time></trkpt><trkpt lat="36.9442922" lon="14.5450355"><ele>140.0</ele><time>2026-04-18T13:27:23.097Z</time></trkpt><trkpt lat="36.9442416" lon="14.5449826"><ele>140.0</ele><time>2026-04-18T13:27:24.097Z</time></trkpt><trkpt lat="36.9441377" lon="14.5449036"><ele>140.0</ele><time>2026-04-18T13:27:26.097Z</time></trkpt><trkpt lat="36.9440462" lon="14.5448451"><ele>140.0</ele><time>2026-04-18T13:27:28.097Z</time></trkpt><trkpt lat="36.9439503" lon="14.5448265"><ele>139.16666666666666</ele><time>2026-04-18T13:27:30.099Z</time></trkpt><trkpt lat="36.9438671" lon="14.5447868"><ele>138.33333333333331</ele><time>2026-04-18T13:27:32.097Z</time></trkpt><trkpt lat="36.9437777" lon="14.5447074"><ele>137.5</ele><time>2026-04-18T13:27:34.096Z</time></trkpt><trkpt lat="36.943738" lon="14.5446461"><ele>136.66666666666666</ele><time>2026-04-18T13:27:35.098Z</time></trkpt><trkpt lat="36.9437021" lon="14.5445722"><ele>135.83333333333334</ele><time>2026-04-18T13:27:36.097Z</time></trkpt><trkpt lat="36.9436684" lon="14.5444928"><ele>135.0</ele><time>2026-04-18T13:27:37.096Z</time></trkpt><trkpt lat="36.9436359" lon="14.5444118"><ele>135.0</ele><time>2026-04-18T13:27:38.097Z</time></trkpt><trkpt lat="36.9436052" lon="14.5443317"><ele>135.0</ele><time>2026-04-18T13:27:39.099Z</time></trkpt><trkpt lat="36.9435767" lon="14.5442494"><ele>135.0</ele><time>2026-04-18T13:27:40.097Z</time></trkpt><trkpt lat="36.9435568" lon="14.5441689"><ele>135.0</ele><time>2026-04-18T13:27:41.097Z</time></trkpt><trkpt lat="36.9435337" lon="14.5440896"><ele>135.0</ele><time>2026-04-18T13:27:42.098Z</time></trkpt><trkpt lat="36.9435191" lon="14.5440097"><ele>135.0</ele><time>2026-04-18T13:27:43.097Z</time></trkpt><trkpt lat="36.9434895" lon="14.5438801"><ele>135.0</ele><time>2026-04-18T13:27:45.098Z</time></trkpt><trkpt lat="36.9434242" lon="14.5437999"><ele>135.0</ele><time>2026-04-18T13:27:47.099Z</time></trkpt><trkpt lat="36.9433303" lon="14.543774"><ele>135.0</ele><time>2026-04-18T13:27:49.097Z</time></trkpt><trkpt lat="36.9432422" lon="14.5437498"><ele>135.0</ele><time>2026-04-18T13:27:51.097Z</time></trkpt><trkpt lat="36.9431647" lon="14.543714"><ele>135.0</ele><time>2026-04-18T13:27:53.097Z</time></trkpt><trkpt lat="36.9430885" lon="14.54363"><ele>136.33333333333334</ele><time>2026-04-18T13:28:02.1Z</time></trkpt><trkpt lat="36.9430507" lon="14.5435533"><ele>137.66666666666666</ele><time>2026-04-18T13:28:04.097Z</time></trkpt><trkpt lat="36.9430584" lon="14.5434593"><ele>139.0</ele><time>2026-04-18T13:28:06.097Z</time></trkpt><trkpt lat="36.943087" lon="14.5433689"><ele>140.33333333333331</ele><time>2026-04-18T13:28:08.1Z</time></trkpt><trkpt lat="36.9431089" lon="14.5432697"><ele>141.66666666666666</ele><time>2026-04-18T13:28:10.098Z</time></trkpt><trkpt lat="36.9431082" lon="14.5431717"><ele>143.0</ele><time>2026-04-18T13:28:12.098Z</time></trkpt><trkpt lat="36.9430362" lon="14.5430895"><ele>143.0</ele><time>2026-04-18T13:28:15.098Z</time></trkpt><trkpt lat="36.9429268" lon="14.5431113"><ele>143.0</ele><time>2026-04-18T13:28:17.099Z</time></trkpt><trkpt lat="36.942818" lon="14.5431637"><ele>143.0</ele><time>2026-04-18T13:28:19.097Z</time></trkpt><trkpt lat="36.9426989" lon="14.5431693"><ele>143.0</ele><time>2026-04-18T13:28:21.097Z</time></trkpt><trkpt lat="36.9425849" lon="14.5431276"><ele>141.5</ele><time>2026-04-18T13:28:23.097Z</time></trkpt><trkpt lat="36.9424961" lon="14.5430759"><ele>140.0</ele><time>2026-04-18T13:28:25.098Z</time></trkpt><trkpt lat="36.9424275" lon="14.5430563"><ele>138.5</ele><time>2026-04-18T13:28:27.098Z</time></trkpt><trkpt lat="36.942367" lon="14.5429851"><ele>137.0</ele><time>2026-04-18T13:28:30.1Z</time></trkpt><trkpt lat="36.9423256" lon="14.5429063"><ele>135.5</ele><time>2026-04-18T13:28:32.098Z</time></trkpt><trkpt lat="36.9422542" lon="14.5428241"><ele>134.0</ele><time>2026-04-18T13:28:34.097Z</time></trkpt><trkpt lat="36.9422293" lon="14.5427326"><ele>130.8</ele><time>2026-04-18T13:28:36.098Z</time></trkpt><trkpt lat="36.942273" lon="14.5426399"><ele>127.60000000000001</ele><time>2026-04-18T13:28:38.097Z</time></trkpt><trkpt lat="36.9422824" lon="14.5425437"><ele>124.4</ele><time>2026-04-18T13:28:40.098Z</time></trkpt><trkpt lat="36.9422554" lon="14.542427"><ele>121.2</ele><time>2026-04-18T13:28:42.096Z</time></trkpt><trkpt lat="36.9423071" lon="14.5423202"><ele>118.0</ele><time>2026-04-18T13:28:44.098Z</time></trkpt><trkpt lat="36.9423721" lon="14.5422097"><ele>118.0</ele><time>2026-04-18T13:28:46.098Z</time></trkpt><trkpt lat="36.9424441" lon="14.5420919"><ele>118.00000000000001</ele><time>2026-04-18T13:28:48.099Z</time></trkpt><trkpt lat="36.9425183" lon="14.5419905"><ele>118.00000000000001</ele><time>2026-04-18T13:28:50.099Z</time></trkpt><trkpt lat="36.9425673" lon="14.5418776"><ele>118.0</ele><time>2026-04-18T13:28:52.097Z</time></trkpt><trkpt lat="36.9425688" lon="14.5417596"><ele>118.0</ele><time>2026-04-18T13:28:54.098Z</time></trkpt><trkpt lat="36.9425636" lon="14.5416736"><ele>114.4</ele><time>2026-04-18T13:28:56.098Z</time></trkpt><trkpt lat="36.9425136" lon="14.5416235"><ele>110.80000000000001</ele><time>2026-04-18T13:28:58.098Z</time></trkpt><trkpt lat="36.9424099" lon="14.5416358"><ele>107.2</ele><time>2026-04-18T13:29:00.098Z</time></trkpt><trkpt lat="36.9423491" lon="14.5416665"><ele>103.6</ele><time>2026-04-18T13:29:01.097Z</time></trkpt><trkpt lat="36.9422357" lon="14.5417305"><ele>100.0</ele><time>2026-04-18T13:29:03.099Z</time></trkpt><trkpt lat="36.942122" lon="14.5417943"><ele>100.0</ele><time>2026-04-18T13:29:05.096Z</time></trkpt><trkpt lat="36.9420126" lon="14.5418314"><ele>100.0</ele><time>2026-04-18T13:29:07.097Z</time></trkpt><trkpt lat="36.9419387" lon="14.5418285"><ele>100.0</ele><time>2026-04-18T13:29:10.098Z</time></trkpt><trkpt lat="36.9418699" lon="14.5418506"><ele>100.0</ele><time>2026-04-18T13:29:32.097Z</time></trkpt><trkpt lat="36.9417953" lon="14.5418978"><ele>100.0</ele><time>2026-04-18T13:29:34.098Z</time></trkpt><trkpt lat="36.9416822" lon="14.5419746"><ele>99.83333333333334</ele><time>2026-04-18T13:29:36.097Z</time></trkpt><trkpt lat="36.9416241" lon="14.5420211"><ele>99.66666666666667</ele><time>2026-04-18T13:29:37.097Z</time></trkpt><trkpt lat="36.9415589" lon="14.5420697"><ele>99.5</ele><time>2026-04-18T13:29:38.096Z</time></trkpt><trkpt lat="36.9414965" lon="14.5420969"><ele>99.33333333333334</ele><time>2026-04-18T13:29:39.098Z</time></trkpt><trkpt lat="36.9414005" lon="14.5421039"><ele>99.16666666666667</ele><time>2026-04-18T13:29:41.099Z</time></trkpt><trkpt lat="36.9413276" lon="14.5421279"><ele>99.0</ele><time>2026-04-18T13:29:43.098Z</time></trkpt><trkpt lat="36.9412525" lon="14.5421662"><ele>99.83333333333333</ele><time>2026-04-18T13:30:32.1Z</time></trkpt><trkpt lat="36.941179" lon="14.5422339"><ele>100.66666666666666</ele><time>2026-04-18T13:30:34.098Z</time></trkpt><trkpt lat="36.9411265" lon="14.5422801"><ele>101.5</ele><time>2026-04-18T13:30:35.098Z</time></trkpt><trkpt lat="36.9410205" lon="14.5423292"><ele>102.33333333333333</ele><time>2026-04-18T13:30:37.098Z</time></trkpt><trkpt lat="36.9409374" lon="14.5423883"><ele>103.16666666666666</ele><time>2026-04-18T13:30:39.098Z</time></trkpt><trkpt lat="36.94089" lon="14.5424582"><ele>104.0</ele><time>2026-04-18T13:30:41.098Z</time></trkpt><trkpt lat="36.9407479" lon="14.5424635"><ele>103.99999999999999</ele><time>2026-04-18T13:33:42.099Z</time></trkpt><trkpt lat="36.9406809" lon="14.5424882"><ele>104.0</ele><time>2026-04-18T13:34:42.1Z</time></trkpt><trkpt lat="36.9406061" lon="14.5424908"><ele>104.0</ele><time>2026-04-18T13:34:45.098Z</time></trkpt><trkpt lat="36.9405168" lon="14.5424646"><ele>104.0</ele><time>2026-04-18T13:34:48.1Z</time></trkpt><trkpt lat="36.9404531" lon="14.5424452"><ele>103.99999999999999</ele><time>2026-04-18T13:34:50.098Z</time></trkpt><trkpt lat="36.9403865" lon="14.5424217"><ele>104.0</ele><time>2026-04-18T13:34:52.1Z</time></trkpt><trkpt lat="36.9402983" lon="14.5423667"><ele>103.99999999999999</ele><time>2026-04-18T13:34:55.1Z</time></trkpt><trkpt lat="36.9402277" lon="14.5423357"><ele>104.0</ele><time>2026-04-18T13:34:57.101Z</time></trkpt><trkpt lat="36.9401653" lon="14.542299"><ele>104.0</ele><time>2026-04-18T13:34:59.099Z</time></trkpt><trkpt lat="36.9401121" lon="14.5422519"><ele>104.0</ele><time>2026-04-18T13:35:01.099Z</time></trkpt><trkpt lat="36.9400479" lon="14.5422002"><ele>103.99999999999999</ele><time>2026-04-18T13:35:04.1Z</time></trkpt><trkpt lat="36.9399993" lon="14.5421139"><ele>104.0</ele><time>2026-04-18T13:35:07.1Z</time></trkpt><trkpt lat="36.9399296" lon="14.5420598"><ele>107.99999999999999</ele><time>2026-04-18T13:35:15.099Z</time></trkpt><trkpt lat="36.9398469" lon="14.5420126"><ele>112.0</ele><time>2026-04-18T13:35:36.102Z</time></trkpt><trkpt lat="36.9397771" lon="14.5419713"><ele>116.0</ele><time>2026-04-18T13:35:40.1Z</time></trkpt><trkpt lat="36.9396974" lon="14.5419412"><ele>120.0</ele><time>2026-04-18T13:35:48.101Z</time></trkpt><trkpt lat="36.9396286" lon="14.541876"><ele>123.99999999999999</ele><time>2026-04-18T13:35:52.1Z</time></trkpt><trkpt lat="36.9395448" lon="14.541859"><ele>128.0</ele><time>2026-04-18T13:35:56.099Z</time></trkpt><trkpt lat="36.9394882" lon="14.5419048"><ele>127.99999999999999</ele><time>2026-04-18T13:35:58.1Z</time></trkpt><trkpt lat="36.9394535" lon="14.5419776"><ele>128.0</ele><time>2026-04-18T13:36:00.1Z</time></trkpt><trkpt lat="36.9394311" lon="14.5420574"><ele>128.0</ele><time>2026-04-18T13:36:03.099Z</time></trkpt><trkpt lat="36.9394016" lon="14.5421299"><ele>128.0</ele><time>2026-04-18T13:36:06.1Z</time></trkpt><trkpt lat="36.9393409" lon="14.5422078"><ele>127.99999999999999</ele><time>2026-04-18T13:36:09.099Z</time></trkpt><trkpt lat="36.9392764" lon="14.5422402"><ele>128.0</ele><time>2026-04-18T13:36:11.098Z</time></trkpt><trkpt lat="36.9391771" lon="14.5422757"><ele>129.5</ele><time>2026-04-18T13:36:13.1Z</time></trkpt><trkpt lat="36.9390777" lon="14.5422913"><ele>131.0</ele><time>2026-04-18T13:36:15.099Z</time></trkpt><trkpt lat="36.9390024" lon="14.542297"><ele>132.5</ele><time>2026-04-18T13:36:17.098Z</time></trkpt><trkpt lat="36.9389279" lon="14.5422966"><ele>134.0</ele><time>2026-04-18T13:36:23.098Z</time></trkpt><trkpt lat="36.9388458" lon="14.5423013"><ele>135.5</ele><time>2026-04-18T13:36:25.099Z</time></trkpt><trkpt lat="36.9387711" lon="14.542299"><ele>137.0</ele><time>2026-04-18T13:36:27.1Z</time></trkpt><trkpt lat="36.9386917" lon="14.5423115"><ele>137.0</ele><time>2026-04-18T13:36:29.099Z</time></trkpt><trkpt lat="36.9386128" lon="14.5423204"><ele>137.0</ele><time>2026-04-18T13:36:31.099Z</time></trkpt><trkpt lat="36.938532" lon="14.5422841"><ele>137.0</ele><time>2026-04-18T13:36:34.099Z</time></trkpt><trkpt lat="36.9385179" lon="14.5421491"><ele>137.0</ele><time>2026-04-18T13:38:31.099Z</time></trkpt><trkpt lat="36.9385295" lon="14.5420609"><ele>137.0</ele><time>2026-04-18T13:38:32.099Z</time></trkpt><trkpt lat="36.9385346" lon="14.5419817"><ele>137.0</ele><time>2026-04-18T13:38:33.101Z</time></trkpt><trkpt lat="36.9385175" lon="14.5418552"><ele>138.33333333333331</ele><time>2026-04-18T13:38:35.098Z</time></trkpt><trkpt lat="36.9384672" lon="14.5417854"><ele>139.66666666666666</ele><time>2026-04-18T13:38:38.099Z</time></trkpt><trkpt lat="36.9384021" lon="14.5417401"><ele>141.0</ele><time>2026-04-18T13:38:54.099Z</time></trkpt><trkpt lat="36.9383393" lon="14.541716"><ele>142.33333333333334</ele><time>2026-04-18T13:38:55.1Z</time></trkpt><trkpt lat="36.9382583" lon="14.5417007"><ele>143.66666666666669</ele><time>2026-04-18T13:38:56.101Z</time></trkpt><trkpt lat="36.9381695" lon="14.5416858"><ele>145.0</ele><time>2026-04-18T13:38:57.1Z</time></trkpt><trkpt lat="36.9380791" lon="14.5416684"><ele>147.0</ele><time>2026-04-18T13:38:58.1Z</time></trkpt><trkpt lat="36.9379796" lon="14.5416486"><ele>149.0</ele><time>2026-04-18T13:38:59.099Z</time></trkpt><trkpt lat="36.9378767" lon="14.541621"><ele>151.0</ele><time>2026-04-18T13:39:00.1Z</time></trkpt><trkpt lat="36.9377719" lon="14.5415913"><ele>153.0</ele><time>2026-04-18T13:39:01.099Z</time></trkpt><trkpt lat="36.9376636" lon="14.5415619"><ele>155.0</ele><time>2026-04-18T13:39:02.098Z</time></trkpt><trkpt lat="36.9375579" lon="14.5415313"><ele>156.4</ele><time>2026-04-18T13:39:03.101Z</time></trkpt><trkpt lat="36.937453" lon="14.5415009"><ele>157.8</ele><time>2026-04-18T13:39:04.099Z</time></trkpt><trkpt lat="36.9373506" lon="14.5414765"><ele>159.2</ele><time>2026-04-18T13:39:05.098Z</time></trkpt><trkpt lat="36.9372615" lon="14.541451"><ele>160.6</ele><time>2026-04-18T13:39:06.098Z</time></trkpt><trkpt lat="36.937188" lon="14.5414174"><ele>162.0</ele><time>2026-04-18T13:39:07.099Z</time></trkpt><trkpt lat="36.9371088" lon="14.5413771"><ele>162.0</ele><time>2026-04-18T13:39:08.099Z</time></trkpt><trkpt lat="36.9370315" lon="14.5413211"><ele>162.0</ele><time>2026-04-18T13:39:09.1Z</time></trkpt><trkpt lat="36.9369527" lon="14.5412568"><ele>162.0</ele><time>2026-04-18T13:39:10.099Z</time></trkpt><trkpt lat="36.9368718" lon="14.5411869"><ele>162.0</ele><time>2026-04-18T13:39:11.099Z</time></trkpt><trkpt lat="36.9367925" lon="14.5411099"><ele>162.0</ele><time>2026-04-18T13:39:12.098Z</time></trkpt><trkpt lat="36.9367104" lon="14.5410302"><ele>162.6</ele><time>2026-04-18T13:39:13.098Z</time></trkpt><trkpt lat="36.9366317" lon="14.5409433"><ele>163.2</ele><time>2026-04-18T13:39:14.1Z</time></trkpt><trkpt lat="36.9365568" lon="14.5408575"><ele>163.8</ele><time>2026-04-18T13:39:15.11Z</time></trkpt><trkpt lat="36.9364847" lon="14.5407708"><ele>164.4</ele><time>2026-04-18T13:39:16.101Z</time></trkpt><trkpt lat="36.9364149" lon="14.5406799"><ele>165.0</ele><time>2026-04-18T13:39:17.101Z</time></trkpt><trkpt lat="36.9363503" lon="14.5405899"><ele>165.0</ele><time>2026-04-18T13:39:18.099Z</time></trkpt><trkpt lat="36.9362876" lon="14.5405051"><ele>165.0</ele><time>2026-04-18T13:39:19.1Z</time></trkpt><trkpt lat="36.9362197" lon="14.5404192"><ele>165.0</ele><time>2026-04-18T13:39:20.1Z</time></trkpt><trkpt lat="36.9361519" lon="14.5403322"><ele>165.0</ele><time>2026-04-18T13:39:21.101Z</time></trkpt><trkpt lat="36.9360935" lon="14.5402484"><ele>165.0</ele><time>2026-04-18T13:39:22.099Z</time></trkpt><trkpt lat="36.9360407" lon="14.5401776"><ele>163.6</ele><time>2026-04-18T13:39:23.099Z</time></trkpt><trkpt lat="36.9359918" lon="14.5401221"><ele>162.2</ele><time>2026-04-18T13:39:24.098Z</time></trkpt><trkpt lat="36.9358998" lon="14.540061"><ele>160.8</ele><time>2026-04-18T13:39:26.099Z</time></trkpt><trkpt lat="36.9357958" lon="14.5400889"><ele>159.4</ele><time>2026-04-18T13:39:28.098Z</time></trkpt><trkpt lat="36.9357227" lon="14.5401738"><ele>158.0</ele><time>2026-04-18T13:39:29.101Z</time></trkpt><trkpt lat="36.935649" lon="14.5402639"><ele>158.0</ele><time>2026-04-18T13:39:30.099Z</time></trkpt><trkpt lat="36.9355722" lon="14.5403564"><ele>158.0</ele><time>2026-04-18T13:39:31.1Z</time></trkpt><trkpt lat="36.9354999" lon="14.5404404"><ele>158.0</ele><time>2026-04-18T13:39:32.1Z</time></trkpt><trkpt lat="36.9354285" lon="14.5405166"><ele>158.0</ele><time>2026-04-18T13:39:33.1Z</time></trkpt><trkpt lat="36.9353518" lon="14.540571"><ele>158.0</ele><time>2026-04-18T13:39:34.1Z</time></trkpt><trkpt lat="36.9352774" lon="14.5406004"><ele>158.0</ele><time>2026-04-18T13:39:35.101Z</time></trkpt><trkpt lat="36.9351991" lon="14.5405907"><ele>158.0</ele><time>2026-04-18T13:39:36.099Z</time></trkpt><trkpt lat="36.9351092" lon="14.5405432"><ele>158.0</ele><time>2026-04-18T13:39:37.098Z</time></trkpt><trkpt lat="36.9350145" lon="14.5404416"><ele>158.0</ele><time>2026-04-18T13:39:38.1Z</time></trkpt><trkpt lat="36.9349147" lon="14.5403086"><ele>158.0</ele><time>2026-04-18T13:39:39.1Z</time></trkpt><trkpt lat="36.9348041" lon="14.540159"><ele>153.33333333333331</ele><time>2026-04-18T13:39:40.1Z</time></trkpt><trkpt lat="36.9346775" lon="14.5399945"><ele>148.66666666666666</ele><time>2026-04-18T13:39:41.099Z</time></trkpt><trkpt lat="36.9345386" lon="14.5398215"><ele>144.0</ele><time>2026-04-18T13:39:42.1Z</time></trkpt><trkpt lat="36.9343892" lon="14.5396479"><ele>143.33333333333334</ele><time>2026-04-18T13:39:43.098Z</time></trkpt><trkpt lat="36.9342416" lon="14.5394733"><ele>142.66666666666669</ele><time>2026-04-18T13:39:44.099Z</time></trkpt><trkpt lat="36.9341027" lon="14.5393155"><ele>142.0</ele><time>2026-04-18T13:39:45.098Z</time></trkpt><trkpt lat="36.9339699" lon="14.539174"><ele>141.33333333333334</ele><time>2026-04-18T13:39:46.098Z</time></trkpt><trkpt lat="36.9338431" lon="14.539038"><ele>140.66666666666666</ele><time>2026-04-18T13:39:47.1Z</time></trkpt><trkpt lat="36.9337279" lon="14.5388959"><ele>140.0</ele><time>2026-04-18T13:39:48.098Z</time></trkpt><trkpt lat="36.9336194" lon="14.5387569"><ele>141.5</ele><time>2026-04-18T13:39:49.099Z</time></trkpt><trkpt lat="36.9335121" lon="14.5386317"><ele>143.0</ele><time>2026-04-18T13:39:50.098Z</time></trkpt><trkpt lat="36.933405" lon="14.5385184"><ele>144.5</ele><time>2026-04-18T13:39:51.1Z</time></trkpt><trkpt lat="36.9332971" lon="14.5384109"><ele>146.0</ele><time>2026-04-18T13:39:52.1Z</time></trkpt><trkpt lat="36.9331918" lon="14.5383111"><ele>146.8</ele><time>2026-04-18T13:39:53.099Z</time></trkpt><trkpt lat="36.9330971" lon="14.5382198"><ele>147.6</ele><time>2026-04-18T13:39:54.1Z</time></trkpt><trkpt lat="36.9330135" lon="14.538132"><ele>148.4</ele><time>2026-04-18T13:39:55.099Z</time></trkpt><trkpt lat="36.9329403" lon="14.5380554"><ele>149.2</ele><time>2026-04-18T13:39:56.1Z</time></trkpt><trkpt lat="36.9328741" lon="14.537999"><ele>150.0</ele><time>2026-04-18T13:39:57.099Z</time></trkpt><trkpt lat="36.9328087" lon="14.5379917"><ele>150.0</ele><time>2026-04-18T13:39:58.099Z</time></trkpt><trkpt lat="36.9327472" lon="14.5380133"><ele>150.0</ele><time>2026-04-18T13:39:59.099Z</time></trkpt><trkpt lat="36.9326759" lon="14.5380632"><ele>150.0</ele><time>2026-04-18T13:40:00.099Z</time></trkpt><trkpt lat="36.9325981" lon="14.538117"><ele>150.0</ele><time>2026-04-18T13:40:01.099Z</time></trkpt><trkpt lat="36.9325176" lon="14.5381874"><ele>150.0</ele><time>2026-04-18T13:40:02.098Z</time></trkpt><trkpt lat="36.9324412" lon="14.5382536"><ele>150.0</ele><time>2026-04-18T13:40:03.099Z</time></trkpt><trkpt lat="36.9323698" lon="14.5383138"><ele>150.33333333333334</ele><time>2026-04-18T13:40:04.099Z</time></trkpt><trkpt lat="36.9323042" lon="14.5383726"><ele>150.66666666666666</ele><time>2026-04-18T13:40:05.098Z</time></trkpt><trkpt lat="36.9322466" lon="14.538428"><ele>151.0</ele><time>2026-04-18T13:40:06.098Z</time></trkpt><trkpt lat="36.9321536" lon="14.5385123"><ele>151.33333333333331</ele><time>2026-04-18T13:40:08.099Z</time></trkpt><trkpt lat="36.9321005" lon="14.5385649"><ele>151.66666666666666</ele><time>2026-04-18T13:40:11.099Z</time></trkpt><trkpt lat="36.932035" lon="14.538598"><ele>152.0</ele><time>2026-04-18T13:40:33.1Z</time></trkpt><trkpt lat="36.9319485" lon="14.5386752"><ele>151.6</ele><time>2026-04-18T13:40:44.097Z</time></trkpt><trkpt lat="36.9318956" lon="14.5387294"><ele>151.2</ele><time>2026-04-18T13:40:45.099Z</time></trkpt><trkpt lat="36.9318119" lon="14.5387852"><ele>150.8</ele><time>2026-04-18T13:40:46.099Z</time></trkpt><trkpt lat="36.9317132" lon="14.5388401"><ele>150.4</ele><time>2026-04-18T13:40:47.098Z</time></trkpt><trkpt lat="36.9316026" lon="14.5389053"><ele>150.0</ele><time>2026-04-18T13:40:48.098Z</time></trkpt><trkpt lat="36.9314881" lon="14.5389831"><ele>150.0</ele><time>2026-04-18T13:40:49.098Z</time></trkpt><trkpt lat="36.9313752" lon="14.5390575"><ele>150.0</ele><time>2026-04-18T13:40:50.099Z</time></trkpt><trkpt lat="36.9312742" lon="14.5391239"><ele>150.0</ele><time>2026-04-18T13:40:51.099Z</time></trkpt><trkpt lat="36.9311854" lon="14.5391842"><ele>150.0</ele><time>2026-04-18T13:40:52.099Z</time></trkpt><trkpt lat="36.9311043" lon="14.5392398"><ele>150.0</ele><time>2026-04-18T13:40:53.099Z</time></trkpt><trkpt lat="36.9310289" lon="14.5392896"><ele>150.0</ele><time>2026-04-18T13:40:54.098Z</time></trkpt><trkpt lat="36.9309665" lon="14.539332"><ele>150.0</ele><time>2026-04-18T13:40:55.098Z</time></trkpt><trkpt lat="36.9308829" lon="14.5394126"><ele>150.0</ele><time>2026-04-18T13:40:57.1Z</time></trkpt><trkpt lat="36.9308271" lon="14.5394492"><ele>150.0</ele><time>2026-04-18T13:41:02.098Z</time></trkpt><trkpt lat="36.9308074" lon="14.5393736"><ele>150.0</ele><time>2026-04-18T13:43:19.099Z</time></trkpt><trkpt lat="36.9307631" lon="14.5393013"><ele>150.0</ele><time>2026-04-18T13:43:21.1Z</time></trkpt><trkpt lat="36.9306877" lon="14.5392587"><ele>149.2</ele><time>2026-04-18T13:43:23.099Z</time></trkpt><trkpt lat="36.930591" lon="14.5392728"><ele>148.4</ele><time>2026-04-18T13:43:25.1Z</time></trkpt><trkpt lat="36.9304797" lon="14.5392806"><ele>147.6</ele><time>2026-04-18T13:43:27.1Z</time></trkpt><trkpt lat="36.930369" lon="14.5392936"><ele>146.8</ele><time>2026-04-18T13:43:29.098Z</time></trkpt><trkpt lat="36.9302703" lon="14.5393076"><ele>146.0</ele><time>2026-04-18T13:43:31.101Z</time></trkpt><trkpt lat="36.9301437" lon="14.5393628"><ele>146.0</ele><time>2026-04-18T13:43:33.099Z</time></trkpt><trkpt lat="36.9300751" lon="14.539406"><ele>146.0</ele><time>2026-04-18T13:43:34.099Z</time></trkpt><trkpt lat="36.9300156" lon="14.5394462"><ele>146.0</ele><time>2026-04-18T13:43:35.1Z</time></trkpt><trkpt lat="36.9298989" lon="14.5395084"><ele>146.0</ele><time>2026-04-18T13:43:53.098Z</time></trkpt><trkpt lat="36.9298183" lon="14.5395687"><ele>146.0</ele><time>2026-04-18T13:43:54.099Z</time></trkpt><trkpt lat="36.9297411" lon="14.5396342"><ele>146.16666666666666</ele><time>2026-04-18T13:43:55.098Z</time></trkpt><trkpt lat="36.9296744" lon="14.5396939"><ele>146.33333333333331</ele><time>2026-04-18T13:43:56.099Z</time></trkpt><trkpt lat="36.9296173" lon="14.5397534"><ele>146.5</ele><time>2026-04-18T13:43:57.1Z</time></trkpt><trkpt lat="36.929572" lon="14.5398186"><ele>146.66666666666666</ele><time>2026-04-18T13:43:58.1Z</time></trkpt><trkpt lat="36.9295038" lon="14.5399222"><ele>146.83333333333334</ele><time>2026-04-18T13:44:00.098Z</time></trkpt><trkpt lat="36.9294352" lon="14.540037"><ele>147.0</ele><time>2026-04-18T13:44:02.1Z</time></trkpt><trkpt lat="36.9293576" lon="14.5400839"><ele>147.0</ele><time>2026-04-18T13:44:04.099Z</time></trkpt><trkpt lat="36.9292609" lon="14.5401469"><ele>147.0</ele><time>2026-04-18T13:44:06.101Z</time></trkpt><trkpt lat="36.9291972" lon="14.540185"><ele>147.0</ele><time>2026-04-18T13:44:07.098Z</time></trkpt><trkpt lat="36.9291236" lon="14.5402236"><ele>147.0</ele><time>2026-04-18T13:44:08.1Z</time></trkpt><trkpt lat="36.9290567" lon="14.5402622"><ele>147.0</ele><time>2026-04-18T13:44:09.1Z</time></trkpt><trkpt lat="36.9289955" lon="14.5402965"><ele>147.0</ele><time>2026-04-18T13:44:10.099Z</time></trkpt><trkpt lat="36.9289109" lon="14.5403026"><ele>147.83333333333334</ele><time>2026-04-18T13:44:12.098Z</time></trkpt><trkpt lat="36.9288414" lon="14.5402983"><ele>148.66666666666666</ele><time>2026-04-18T13:44:14.1Z</time></trkpt><trkpt lat="36.9287428" lon="14.5403189"><ele>149.5</ele><time>2026-04-18T13:44:16.1Z</time></trkpt><trkpt lat="36.9286377" lon="14.540347"><ele>150.33333333333331</ele><time>2026-04-18T13:44:18.099Z</time></trkpt><trkpt lat="36.9285749" lon="14.5403621"><ele>151.16666666666666</ele><time>2026-04-18T13:44:19.099Z</time></trkpt><trkpt lat="36.9285108" lon="14.5403833"><ele>152.0</ele><time>2026-04-18T13:44:20.098Z</time></trkpt><trkpt lat="36.9284432" lon="14.5404097"><ele>152.16666666666666</ele><time>2026-04-18T13:44:21.1Z</time></trkpt><trkpt lat="36.9283745" lon="14.5404372"><ele>152.33333333333331</ele><time>2026-04-18T13:44:22.1Z</time></trkpt><trkpt lat="36.9283025" lon="14.5404734"><ele>152.5</ele><time>2026-04-18T13:44:23.099Z</time></trkpt><trkpt lat="36.9282279" lon="14.5405238"><ele>152.66666666666666</ele><time>2026-04-18T13:44:24.099Z</time></trkpt><trkpt lat="36.9281614" lon="14.5405821"><ele>152.83333333333334</ele><time>2026-04-18T13:44:25.098Z</time></trkpt><trkpt lat="36.9281022" lon="14.540643"><ele>153.0</ele><time>2026-04-18T13:44:26.099Z</time></trkpt><trkpt lat="36.9280505" lon="14.5406896"><ele>153.0</ele><time>2026-04-18T13:44:27.099Z</time></trkpt><trkpt lat="36.927962" lon="14.5407718"><ele>153.0</ele><time>2026-04-18T13:44:29.098Z</time></trkpt><trkpt lat="36.9278677" lon="14.5407874"><ele>153.0</ele><time>2026-04-18T13:44:31.099Z</time></trkpt><trkpt lat="36.9277569" lon="14.5408204"><ele>153.0</ele><time>2026-04-18T13:44:33.099Z</time></trkpt><trkpt lat="36.9276906" lon="14.5408506"><ele>153.0</ele><time>2026-04-18T13:44:34.1Z</time></trkpt><trkpt lat="36.9276252" lon="14.5408819"><ele>151.20000000000002</ele><time>2026-04-18T13:44:35.1Z</time></trkpt><trkpt lat="36.9275601" lon="14.5409186"><ele>149.4</ele><time>2026-04-18T13:44:36.099Z</time></trkpt><trkpt lat="36.9275031" lon="14.5409736"><ele>147.60000000000002</ele><time>2026-04-18T13:44:37.099Z</time></trkpt><trkpt lat="36.9274059" lon="14.5410559"><ele>145.8</ele><time>2026-04-18T13:44:39.099Z</time></trkpt><trkpt lat="36.927318" lon="14.5411251"><ele>144.0</ele><time>2026-04-18T13:44:41.099Z</time></trkpt><trkpt lat="36.9272294" lon="14.541174"><ele>146.6</ele><time>2026-04-18T13:44:44.1Z</time></trkpt><trkpt lat="36.9271419" lon="14.5412315"><ele>149.2</ele><time>2026-04-18T13:44:46.1Z</time></trkpt><trkpt lat="36.9270596" lon="14.5412994"><ele>151.79999999999998</ele><time>2026-04-18T13:44:48.099Z</time></trkpt><trkpt lat="36.9269694" lon="14.5413789"><ele>154.4</ele><time>2026-04-18T13:44:50.099Z</time></trkpt><trkpt lat="36.9268718" lon="14.5414357"><ele>157.0</ele><time>2026-04-18T13:44:52.097Z</time></trkpt><trkpt lat="36.9267774" lon="14.5414567"><ele>154.2</ele><time>2026-04-18T13:44:54.097Z</time></trkpt><trkpt lat="36.9266702" lon="14.5414623"><ele>151.39999999999998</ele><time>2026-04-18T13:44:56.099Z</time></trkpt><trkpt lat="36.9265695" lon="14.5414751"><ele>148.60000000000002</ele><time>2026-04-18T13:44:58.099Z</time></trkpt><trkpt lat="36.9264781" lon="14.5414905"><ele>145.8</ele><time>2026-04-18T13:45:00.098Z</time></trkpt><trkpt lat="36.9264173" lon="14.5415657"><ele>143.0</ele><time>2026-04-18T13:45:02.098Z</time></trkpt><trkpt lat="36.9263527" lon="14.5416451"><ele>143.0</ele><time>2026-04-18T13:46:26.101Z</time></trkpt><trkpt lat="36.9262888" lon="14.5416642"><ele>143.0</ele><time>2026-04-18T13:48:15.1Z</time></trkpt><trkpt lat="36.9262232" lon="14.5417614"><ele>143.0</ele><time>2026-04-18T13:48:17.099Z</time></trkpt><trkpt lat="36.926169" lon="14.5418374"><ele>143.0</ele><time>2026-04-18T13:48:19.098Z</time></trkpt><trkpt lat="36.9260951" lon="14.5418898"><ele>143.0</ele><time>2026-04-18T13:48:22.099Z</time></trkpt><trkpt lat="36.9260459" lon="14.5419767"><ele>143.0</ele><time>2026-04-18T13:48:25.098Z</time></trkpt><trkpt lat="36.9259703" lon="14.5420186"><ele>142.66666666666666</ele><time>2026-04-18T13:48:28.099Z</time></trkpt><trkpt lat="36.9259087" lon="14.5420893"><ele>142.33333333333331</ele><time>2026-04-18T13:48:31.1Z</time></trkpt><trkpt lat="36.9258291" lon="14.5421376"><ele>142.0</ele><time>2026-04-18T13:48:34.101Z</time></trkpt><trkpt lat="36.9257775" lon="14.5421838"><ele>141.66666666666666</ele><time>2026-04-18T13:48:36.101Z</time></trkpt><trkpt lat="36.9257188" lon="14.5422375"><ele>141.33333333333334</ele><time>2026-04-18T13:48:38.098Z</time></trkpt><trkpt lat="36.9256517" lon="14.5423098"><ele>141.0</ele><time>2026-04-18T13:48:40.098Z</time></trkpt><trkpt lat="36.9255887" lon="14.5424062"><ele>141.0</ele><time>2026-04-18T13:48:43.101Z</time></trkpt><trkpt lat="36.925518" lon="14.5424918"><ele>141.0</ele><time>2026-04-18T13:48:45.102Z</time></trkpt><trkpt lat="36.9254618" lon="14.5425739"><ele>141.0</ele><time>2026-04-18T13:48:47.099Z</time></trkpt><trkpt lat="36.9254348" lon="14.5426682"><ele>141.0</ele><time>2026-04-18T13:48:49.099Z</time></trkpt><trkpt lat="36.9254176" lon="14.5427577"><ele>141.0</ele><time>2026-04-18T13:48:51.098Z</time></trkpt><trkpt lat="36.9254157" lon="14.5428441"><ele>141.0</ele><time>2026-04-18T13:48:53.1Z</time></trkpt><trkpt lat="36.925422" lon="14.5429408"><ele>143.5</ele><time>2026-04-18T13:48:55.101Z</time></trkpt><trkpt lat="36.9254459" lon="14.5430414"><ele>146.0</ele><time>2026-04-18T13:48:58.097Z</time></trkpt><trkpt lat="36.9254346" lon="14.5431197"><ele>148.5</ele><time>2026-04-18T13:49:00.098Z</time></trkpt><trkpt lat="36.9254317" lon="14.5432218"><ele>151.0</ele><time>2026-04-18T13:49:03.101Z</time></trkpt><trkpt lat="36.925449" lon="14.5433471"><ele>153.5</ele><time>2026-04-18T13:49:06.098Z</time></trkpt><trkpt lat="36.9254472" lon="14.543451"><ele>156.0</ele><time>2026-04-18T13:49:08.098Z</time></trkpt><trkpt lat="36.9254084" lon="14.5435554"><ele>156.0</ele><time>2026-04-18T13:49:11.1Z</time></trkpt><trkpt lat="36.925371" lon="14.5436569"><ele>156.0</ele><time>2026-04-18T13:49:13.099Z</time></trkpt><trkpt lat="36.9253191" lon="14.5437741"><ele>156.0</ele><time>2026-04-18T13:49:15.1Z</time></trkpt><trkpt lat="36.9252824" lon="14.543866"><ele>156.0</ele><time>2026-04-18T13:49:17.098Z</time></trkpt><trkpt lat="36.9252602" lon="14.5439429"><ele>156.0</ele><time>2026-04-18T13:49:21.099Z</time></trkpt><trkpt lat="36.9252062" lon="14.5440091"><ele>156.0</ele><time>2026-04-18T13:49:30.098Z</time></trkpt><trkpt lat="36.9251484" lon="14.5440793"><ele>156.4</ele><time>2026-04-18T13:49:32.099Z</time></trkpt><trkpt lat="36.9250814" lon="14.5441599"><ele>156.8</ele><time>2026-04-18T13:49:34.098Z</time></trkpt><trkpt lat="36.9250377" lon="14.544248"><ele>157.20000000000002</ele><time>2026-04-18T13:49:57.099Z</time></trkpt><trkpt lat="36.9249985" lon="14.5443369"><ele>157.6</ele><time>2026-04-18T13:49:58.098Z</time></trkpt><trkpt lat="36.9249587" lon="14.5444555"><ele>158.0</ele><time>2026-04-18T13:49:59.099Z</time></trkpt><trkpt lat="36.9249237" lon="14.5445899"><ele>158.5</ele><time>2026-04-18T13:50:00.099Z</time></trkpt><trkpt lat="36.9248937" lon="14.5447406"><ele>159.0</ele><time>2026-04-18T13:50:01.099Z</time></trkpt><trkpt lat="36.9248677" lon="14.5449"><ele>159.5</ele><time>2026-04-18T13:50:02.099Z</time></trkpt><trkpt lat="36.9248432" lon="14.5450726"><ele>160.0</ele><time>2026-04-18T13:50:03.101Z</time></trkpt><trkpt lat="36.9248215" lon="14.545256"><ele>160.5</ele><time>2026-04-18T13:50:04.101Z</time></trkpt><trkpt lat="36.924801" lon="14.5454388"><ele>161.0</ele><time>2026-04-18T13:50:05.098Z</time></trkpt><trkpt lat="36.9247862" lon="14.5456133"><ele>161.5</ele><time>2026-04-18T13:50:06.1Z</time></trkpt><trkpt lat="36.9247786" lon="14.5457914"><ele>162.0</ele><time>2026-04-18T13:50:07.098Z</time></trkpt><trkpt lat="36.9247798" lon="14.545974"><ele>162.0</ele><time>2026-04-18T13:50:08.1Z</time></trkpt><trkpt lat="36.9247934" lon="14.5461564"><ele>162.0</ele><time>2026-04-18T13:50:09.099Z</time></trkpt><trkpt lat="36.9248114" lon="14.5463293"><ele>162.0</ele><time>2026-04-18T13:50:10.1Z</time></trkpt><trkpt lat="36.9248254" lon="14.5464926"><ele>162.0</ele><time>2026-04-18T13:50:11.1Z</time></trkpt><trkpt lat="36.924832" lon="14.546645"><ele>161.25</ele><time>2026-04-18T13:50:12.099Z</time></trkpt><trkpt lat="36.9248376" lon="14.5468029"><ele>160.5</ele><time>2026-04-18T13:50:13.099Z</time></trkpt><trkpt lat="36.9248377" lon="14.54696"><ele>159.75</ele><time>2026-04-18T13:50:14.1Z</time></trkpt><trkpt lat="36.9248351" lon="14.5471168"><ele>159.0</ele><time>2026-04-18T13:50:15.101Z</time></trkpt><trkpt lat="36.9248325" lon="14.5472677"><ele>158.75</ele><time>2026-04-18T13:50:16.1Z</time></trkpt><trkpt lat="36.9248275" lon="14.5474156"><ele>158.5</ele><time>2026-04-18T13:50:17.098Z</time></trkpt><trkpt lat="36.9248215" lon="14.5475596"><ele>158.25</ele><time>2026-04-18T13:50:18.099Z</time></trkpt><trkpt lat="36.9248092" lon="14.5477001"><ele>158.0</ele><time>2026-04-18T13:50:19.099Z</time></trkpt><trkpt lat="36.9247878" lon="14.5478414"><ele>158.0</ele><time>2026-04-18T13:50:20.099Z</time></trkpt><trkpt lat="36.9247531" lon="14.5479837"><ele>158.0</ele><time>2026-04-18T13:50:21.1Z</time></trkpt><trkpt lat="36.9247103" lon="14.5481203"><ele>158.0</ele><time>2026-04-18T13:50:22.101Z</time></trkpt><trkpt lat="36.9246715" lon="14.5482438"><ele>158.0</ele><time>2026-04-18T13:50:23.099Z</time></trkpt><trkpt lat="36.9246468" lon="14.5483527"><ele>158.0</ele><time>2026-04-18T13:50:24.098Z</time></trkpt><trkpt lat="36.9246375" lon="14.5484416"><ele>158.0</ele><time>2026-04-18T13:50:25.099Z</time></trkpt><trkpt lat="36.9246633" lon="14.5485363"><ele>158.0</ele><time>2026-04-18T13:50:28.099Z</time></trkpt><trkpt lat="36.9247024" lon="14.5486578"><ele>158.0</ele><time>2026-04-18T13:50:51.1Z</time></trkpt><trkpt lat="36.9247552" lon="14.5487112"><ele>158.0</ele><time>2026-04-18T13:50:53.099Z</time></trkpt><trkpt lat="36.9248067" lon="14.5487771"><ele>158.0</ele><time>2026-04-18T13:50:56.098Z</time></trkpt><trkpt lat="36.9248635" lon="14.5488538"><ele>158.0</ele><time>2026-04-18T13:51:11.098Z</time></trkpt><trkpt lat="36.9249395" lon="14.5489506"><ele>158.0</ele><time>2026-04-18T13:51:13.1Z</time></trkpt><trkpt lat="36.9249827" lon="14.5490267"><ele>158.0</ele><time>2026-04-18T13:51:15.1Z</time></trkpt><trkpt lat="36.9250498" lon="14.5491296"><ele>158.0</ele><time>2026-04-18T13:51:18.106Z</time></trkpt><trkpt lat="36.9251439" lon="14.5492495"><ele>158.0</ele><time>2026-04-18T13:51:20.099Z</time></trkpt><trkpt lat="36.9252097" lon="14.5493358"><ele>158.0</ele><time>2026-04-18T13:51:22.099Z</time></trkpt><trkpt lat="36.9252765" lon="14.5494476"><ele>158.25</ele><time>2026-04-18T13:51:40.099Z</time></trkpt><trkpt lat="36.9253428" lon="14.5495279"><ele>158.5</ele><time>2026-04-18T13:51:41.1Z</time></trkpt><trkpt lat="36.9254205" lon="14.5496344"><ele>158.75</ele><time>2026-04-18T13:51:42.101Z</time></trkpt><trkpt lat="36.9255057" lon="14.5497581"><ele>159.0</ele><time>2026-04-18T13:51:43.1Z</time></trkpt><trkpt lat="36.9255785" lon="14.549873"><ele>159.2</ele><time>2026-04-18T13:51:44.1Z</time></trkpt><trkpt lat="36.925644" lon="14.5499765"><ele>159.4</ele><time>2026-04-18T13:51:45.102Z</time></trkpt><trkpt lat="36.9257012" lon="14.5500757"><ele>159.6</ele><time>2026-04-18T13:51:46.099Z</time></trkpt><trkpt lat="36.9257625" lon="14.5501864"><ele>159.8</ele><time>2026-04-18T13:51:47.099Z</time></trkpt><trkpt lat="36.9258323" lon="14.550303"><ele>160.0</ele><time>2026-04-18T13:51:48.098Z</time></trkpt><trkpt lat="36.925901" lon="14.550431"><ele>160.25</ele><time>2026-04-18T13:51:49.1Z</time></trkpt><trkpt lat="36.9259679" lon="14.5505693"><ele>160.5</ele><time>2026-04-18T13:51:50.1Z</time></trkpt><trkpt lat="36.9260373" lon="14.5507169"><ele>160.75</ele><time>2026-04-18T13:51:51.1Z</time></trkpt><trkpt lat="36.9261104" lon="14.5508675"><ele>161.0</ele><time>2026-04-18T13:51:52.1Z</time></trkpt><trkpt lat="36.9261846" lon="14.5510191"><ele>161.0</ele><time>2026-04-18T13:51:53.098Z</time></trkpt><trkpt lat="36.9262559" lon="14.5511805"><ele>161.0</ele><time>2026-04-18T13:51:54.099Z</time></trkpt><trkpt lat="36.9263279" lon="14.5513419"><ele>161.0</ele><time>2026-04-18T13:51:55.098Z</time></trkpt><trkpt lat="36.926403" lon="14.5515059"><ele>161.0</ele><time>2026-04-18T13:51:56.099Z</time></trkpt><trkpt lat="36.9264774" lon="14.5516703"><ele>161.0</ele><time>2026-04-18T13:51:57.099Z</time></trkpt><trkpt lat="36.9265509" lon="14.5518268"><ele>161.0</ele><time>2026-04-18T13:51:58.1Z</time></trkpt><trkpt lat="36.9266199" lon="14.5519688"><ele>161.0</ele><time>2026-04-18T13:51:59.099Z</time></trkpt><trkpt lat="36.9266841" lon="14.5521012"><ele>161.0</ele><time>2026-04-18T13:52:00.099Z</time></trkpt><trkpt lat="36.9267444" lon="14.5522251"><ele>161.25</ele><time>2026-04-18T13:52:01.097Z</time></trkpt><trkpt lat="36.9268002" lon="14.5523464"><ele>161.5</ele><time>2026-04-18T13:52:02.099Z</time></trkpt><trkpt lat="36.9268547" lon="14.5524718"><ele>161.75</ele><time>2026-04-18T13:52:03.098Z</time></trkpt><trkpt lat="36.9269124" lon="14.5526017"><ele>162.0</ele><time>2026-04-18T13:52:04.1Z</time></trkpt><trkpt lat="36.9269725" lon="14.5527387"><ele>162.0</ele><time>2026-04-18T13:52:05.099Z</time></trkpt><trkpt lat="36.9270373" lon="14.5528721"><ele>162.0</ele><time>2026-04-18T13:52:06.097Z</time></trkpt><trkpt lat="36.9271004" lon="14.552993"><ele>162.0</ele><time>2026-04-18T13:52:07.098Z</time></trkpt><trkpt lat="36.9271584" lon="14.5530993"><ele>162.0</ele><time>2026-04-18T13:52:08.098Z</time></trkpt><trkpt lat="36.9272061" lon="14.5531898"><ele>162.0</ele><time>2026-04-18T13:52:09.099Z</time></trkpt><trkpt lat="36.9272499" lon="14.5532667"><ele>162.2</ele><time>2026-04-18T13:52:10.097Z</time></trkpt><trkpt lat="36.9273213" lon="14.553373"><ele>162.39999999999998</ele><time>2026-04-18T13:52:12.1Z</time></trkpt><trkpt lat="36.9274046" lon="14.5534685"><ele>162.60000000000002</ele><time>2026-04-18T13:52:45.099Z</time></trkpt><trkpt lat="36.927461" lon="14.5536071"><ele>162.8</ele><time>2026-04-18T13:52:47.098Z</time></trkpt><trkpt lat="36.927494" lon="14.5536938"><ele>163.0</ele><time>2026-04-18T13:52:48.099Z</time></trkpt><trkpt lat="36.9275257" lon="14.5537879"><ele>163.2</ele><time>2026-04-18T13:52:49.099Z</time></trkpt><trkpt lat="36.9275615" lon="14.553894"><ele>163.4</ele><time>2026-04-18T13:52:50.098Z</time></trkpt><trkpt lat="36.9275976" lon="14.5540041"><ele>163.6</ele><time>2026-04-18T13:52:51.1Z</time></trkpt><trkpt lat="36.9276405" lon="14.5541194"><ele>163.79999999999998</ele><time>2026-04-18T13:52:52.098Z</time></trkpt><trkpt lat="36.9276866" lon="14.554238"><ele>164.0</ele><time>2026-04-18T13:52:53.098Z</time></trkpt><trkpt lat="36.9277328" lon="14.5543612"><ele>164.0</ele><time>2026-04-18T13:52:54.1Z</time></trkpt><trkpt lat="36.9277783" lon="14.5544884"><ele>164.0</ele><time>2026-04-18T13:52:55.099Z</time></trkpt><trkpt lat="36.9278238" lon="14.5546142"><ele>164.0</ele><time>2026-04-18T13:52:56.099Z</time></trkpt><trkpt lat="36.9278747" lon="14.5547438"><ele>164.0</ele><time>2026-04-18T13:52:57.099Z</time></trkpt><trkpt lat="36.9279255" lon="14.5548749"><ele>164.0</ele><time>2026-04-18T13:52:58.099Z</time></trkpt><trkpt lat="36.9279761" lon="14.5550086"><ele>164.0</ele><time>2026-04-18T13:52:59.097Z</time></trkpt><trkpt lat="36.9280284" lon="14.555144"><ele>164.0</ele><time>2026-04-18T13:53:00.097Z</time></trkpt><trkpt lat="36.9280825" lon="14.5552831"><ele>164.0</ele><time>2026-04-18T13:53:01.098Z</time></trkpt><trkpt lat="36.9281371" lon="14.555424"><ele>164.0</ele><time>2026-04-18T13:53:02.097Z</time></trkpt><trkpt lat="36.9281911" lon="14.5555617"><ele>164.0</ele><time>2026-04-18T13:53:03.101Z</time></trkpt><trkpt lat="36.9282432" lon="14.5556922"><ele>164.0</ele><time>2026-04-18T13:53:04.097Z</time></trkpt><trkpt lat="36.9282878" lon="14.5558144"><ele>164.0</ele><time>2026-04-18T13:53:05.098Z</time></trkpt><trkpt lat="36.9283368" lon="14.555923"><ele>164.0</ele><time>2026-04-18T13:53:06.099Z</time></trkpt><trkpt lat="36.9283844" lon="14.556032"><ele>164.5</ele><time>2026-04-18T13:53:07.099Z</time></trkpt><trkpt lat="36.9284306" lon="14.5561571"><ele>165.0</ele><time>2026-04-18T13:53:08.098Z</time></trkpt><trkpt lat="36.9284839" lon="14.5563017"><ele>165.5</ele><time>2026-04-18T13:53:09.098Z</time></trkpt><trkpt lat="36.928548" lon="14.5564602"><ele>166.0</ele><time>2026-04-18T13:53:10.099Z</time></trkpt><trkpt lat="36.9286134" lon="14.5566326"><ele>166.0</ele><time>2026-04-18T13:53:11.097Z</time></trkpt><trkpt lat="36.9286722" lon="14.5567981"><ele>166.0</ele><time>2026-04-18T13:53:12.098Z</time></trkpt><trkpt lat="36.9287322" lon="14.556966"><ele>166.0</ele><time>2026-04-18T13:53:13.098Z</time></trkpt><trkpt lat="36.9287907" lon="14.5571437"><ele>166.0</ele><time>2026-04-18T13:53:14.098Z</time></trkpt><trkpt lat="36.9288454" lon="14.5573303"><ele>165.66666666666669</ele><time>2026-04-18T13:53:15.098Z</time></trkpt><trkpt lat="36.9288961" lon="14.5575228"><ele>165.33333333333334</ele><time>2026-04-18T13:53:16.099Z</time></trkpt><trkpt lat="36.9289462" lon="14.5577106"><ele>165.0</ele><time>2026-04-18T13:53:17.098Z</time></trkpt><trkpt lat="36.9289927" lon="14.557886"><ele>165.75</ele><time>2026-04-18T13:53:18.099Z</time></trkpt><trkpt lat="36.9290306" lon="14.5580494"><ele>166.5</ele><time>2026-04-18T13:53:19.099Z</time></trkpt><trkpt lat="36.9290682" lon="14.5582031"><ele>167.25</ele><time>2026-04-18T13:53:20.099Z</time></trkpt><trkpt lat="36.9291028" lon="14.5583522"><ele>168.0</ele><time>2026-04-18T13:53:21.099Z</time></trkpt><trkpt lat="36.9291336" lon="14.5584978"><ele>168.0</ele><time>2026-04-18T13:53:22.098Z</time></trkpt><trkpt lat="36.9291698" lon="14.5586449"><ele>168.0</ele><time>2026-04-18T13:53:23.098Z</time></trkpt><trkpt lat="36.9292052" lon="14.5587902"><ele>168.0</ele><time>2026-04-18T13:53:24.098Z</time></trkpt><trkpt lat="36.9292399" lon="14.5589385"><ele>168.0</ele><time>2026-04-18T13:53:25.098Z</time></trkpt><trkpt lat="36.9292785" lon="14.5590901"><ele>168.2</ele><time>2026-04-18T13:53:26.098Z</time></trkpt><trkpt lat="36.929315" lon="14.5592396"><ele>168.4</ele><time>2026-04-18T13:53:27.098Z</time></trkpt><trkpt lat="36.9293506" lon="14.5593765"><ele>168.6</ele><time>2026-04-18T13:53:28.097Z</time></trkpt><trkpt lat="36.9293822" lon="14.5595017"><ele>168.79999999999998</ele><time>2026-04-18T13:53:29.096Z</time></trkpt><trkpt lat="36.9294083" lon="14.5596217"><ele>169.0</ele><time>2026-04-18T13:53:30.097Z</time></trkpt><trkpt lat="36.9294369" lon="14.5597339"><ele>169.39999999999998</ele><time>2026-04-18T13:53:31.096Z</time></trkpt><trkpt lat="36.9294641" lon="14.5598487"><ele>169.8</ele><time>2026-04-18T13:53:32.097Z</time></trkpt><trkpt lat="36.9294901" lon="14.5599594"><ele>170.2</ele><time>2026-04-18T13:53:33.098Z</time></trkpt><trkpt lat="36.9295137" lon="14.5600559"><ele>170.60000000000002</ele><time>2026-04-18T13:53:34.098Z</time></trkpt><trkpt lat="36.9295295" lon="14.5601391"><ele>171.0</ele><time>2026-04-18T13:53:35.098Z</time></trkpt><trkpt lat="36.92957" lon="14.560279"><ele>171.4</ele><time>2026-04-18T13:53:37.098Z</time></trkpt><trkpt lat="36.9296049" lon="14.5603864"><ele>171.8</ele><time>2026-04-18T13:53:39.099Z</time></trkpt><trkpt lat="36.9296376" lon="14.5604828"><ele>172.20000000000002</ele><time>2026-04-18T13:53:42.098Z</time></trkpt><trkpt lat="36.9296598" lon="14.5605947"><ele>172.60000000000002</ele><time>2026-04-18T13:54:03.098Z</time></trkpt><trkpt lat="36.9296531" lon="14.5606845"><ele>173.0</ele><time>2026-04-18T13:54:06.097Z</time></trkpt><trkpt lat="36.9295733" lon="14.5607987"><ele>173.0</ele><time>2026-04-18T13:54:26.097Z</time></trkpt><trkpt lat="36.9295111" lon="14.5608357"><ele>173.0</ele><time>2026-04-18T13:54:28.099Z</time></trkpt><trkpt lat="36.9294316" lon="14.5608904"><ele>173.0</ele><time>2026-04-18T13:54:31.098Z</time></trkpt><trkpt lat="36.9293619" lon="14.5609427"><ele>173.0</ele><time>2026-04-18T13:54:34.1Z</time></trkpt><trkpt lat="36.9292878" lon="14.5610002"><ele>173.0</ele><time>2026-04-18T13:54:37.098Z</time></trkpt><trkpt lat="36.9292347" lon="14.561056"><ele>173.0</ele><time>2026-04-18T13:54:40.099Z</time></trkpt><trkpt lat="36.9291551" lon="14.561045"><ele>172.83333333333331</ele><time>2026-04-18T13:54:43.099Z</time></trkpt><trkpt lat="36.9290696" lon="14.5610842"><ele>172.66666666666666</ele><time>2026-04-18T13:54:45.099Z</time></trkpt><trkpt lat="36.9290013" lon="14.5611304"><ele>172.5</ele><time>2026-04-18T13:54:48.097Z</time></trkpt><trkpt lat="36.9289364" lon="14.5611863"><ele>172.33333333333334</ele><time>2026-04-18T13:54:51.098Z</time></trkpt><trkpt lat="36.9288488" lon="14.5612403"><ele>172.16666666666669</ele><time>2026-04-18T13:54:53.099Z</time></trkpt><trkpt lat="36.9287681" lon="14.5612993"><ele>172.0</ele><time>2026-04-18T13:54:55.098Z</time></trkpt><trkpt lat="36.9286874" lon="14.5613618"><ele>172.0</ele><time>2026-04-18T13:54:57.1Z</time></trkpt><trkpt lat="36.928609" lon="14.5613736"><ele>172.0</ele><time>2026-04-18T13:54:59.101Z</time></trkpt><trkpt lat="36.9285227" lon="14.5614345"><ele>172.0</ele><time>2026-04-18T13:55:01.1Z</time></trkpt><trkpt lat="36.9284305" lon="14.5615126"><ele>172.0</ele><time>2026-04-18T13:55:03.099Z</time></trkpt><trkpt lat="36.928362" lon="14.56157"><ele>172.0</ele><time>2026-04-18T13:55:05.099Z</time></trkpt><trkpt lat="36.9282637" lon="14.5616619"><ele>172.0</ele><time>2026-04-18T13:56:29.098Z</time></trkpt><trkpt lat="36.928188" lon="14.5617168"><ele>172.0</ele><time>2026-04-18T13:56:32.1Z</time></trkpt><trkpt lat="36.9281179" lon="14.5617484"><ele>172.0</ele><time>2026-04-18T13:56:35.099Z</time></trkpt><trkpt lat="36.9280516" lon="14.5617261"><ele>172.0</ele><time>2026-04-18T13:56:51.1Z</time></trkpt><trkpt lat="36.9279803" lon="14.561753"><ele>172.0</ele><time>2026-04-18T13:57:00.099Z</time></trkpt><trkpt lat="36.9278855" lon="14.5618098"><ele>172.0</ele><time>2026-04-18T13:57:02.099Z</time></trkpt><trkpt lat="36.9278133" lon="14.5618639"><ele>172.0</ele><time>2026-04-18T13:57:04.099Z</time></trkpt><trkpt lat="36.9277441" lon="14.5619151"><ele>172.0</ele><time>2026-04-18T13:57:06.1Z</time></trkpt><trkpt lat="36.9276749" lon="14.561961"><ele>172.0</ele><time>2026-04-18T13:57:08.098Z</time></trkpt><trkpt lat="36.9276048" lon="14.5620188"><ele>172.0</ele><time>2026-04-18T13:57:10.099Z</time></trkpt><trkpt lat="36.927541" lon="14.5620603"><ele>172.0</ele><time>2026-04-18T13:57:12.097Z</time></trkpt><trkpt lat="36.9274662" lon="14.5621167"><ele>172.0</ele><time>2026-04-18T13:57:14.099Z</time></trkpt><trkpt lat="36.9274086" lon="14.5621774"><ele>172.66666666666669</ele><time>2026-04-18T13:57:17.098Z</time></trkpt><trkpt lat="36.927345" lon="14.5623216"><ele>173.33333333333334</ele><time>2026-04-18T13:57:32.1Z</time></trkpt><trkpt lat="36.9272924" lon="14.5623746"><ele>174.0</ele><time>2026-04-18T13:57:34.1Z</time></trkpt><trkpt lat="36.9272202" lon="14.5624305"><ele>174.66666666666666</ele><time>2026-04-18T13:57:36.099Z</time></trkpt><trkpt lat="36.9271692" lon="14.5624767"><ele>175.33333333333331</ele><time>2026-04-18T13:57:38.099Z</time></trkpt><trkpt lat="36.9271164" lon="14.5625252"><ele>176.0</ele><time>2026-04-18T13:57:40.099Z</time></trkpt><trkpt lat="36.9270627" lon="14.5625806"><ele>176.0</ele><time>2026-04-18T13:57:42.099Z</time></trkpt><trkpt lat="36.9269902" lon="14.5626199"><ele>176.0</ele><time>2026-04-18T13:57:46.099Z</time></trkpt><trkpt lat="36.9269107" lon="14.5627054"><ele>176.0</ele><time>2026-04-18T13:59:35.099Z</time></trkpt><trkpt lat="36.9268583" lon="14.5627757"><ele>176.0</ele><time>2026-04-18T13:59:39.1Z</time></trkpt><trkpt lat="36.9268049" lon="14.56283"><ele>176.0</ele><time>2026-04-18T13:59:42.099Z</time></trkpt><trkpt lat="36.9267521" lon="14.5629125"><ele>176.0</ele><time>2026-04-18T13:59:45.099Z</time></trkpt><trkpt lat="36.9267141" lon="14.5629967"><ele>177.20000000000002</ele><time>2026-04-18T13:59:47.099Z</time></trkpt><trkpt lat="36.9266414" lon="14.5630882"><ele>178.4</ele><time>2026-04-18T13:59:49.099Z</time></trkpt><trkpt lat="36.9265639" lon="14.5631899"><ele>179.6</ele><time>2026-04-18T13:59:51.097Z</time></trkpt><trkpt lat="36.9264826" lon="14.5632857"><ele>180.8</ele><time>2026-04-18T13:59:53.098Z</time></trkpt><trkpt lat="36.9264088" lon="14.5633628"><ele>182.0</ele><time>2026-04-18T13:59:55.1Z</time></trkpt><trkpt lat="36.9263395" lon="14.5633811"><ele>182.0</ele><time>2026-04-18T13:59:58.1Z</time></trkpt><trkpt lat="36.9262646" lon="14.5634275"><ele>182.0</ele><time>2026-04-18T14:00:02.1Z</time></trkpt><trkpt lat="36.9262102" lon="14.5634969"><ele>182.0</ele><time>2026-04-18T14:00:05.099Z</time></trkpt><trkpt lat="36.9261641" lon="14.5635565"><ele>182.0</ele><time>2026-04-18T14:00:09.101Z</time></trkpt><trkpt lat="36.9262143" lon="14.5634768"><ele>182.0</ele><time>2026-04-18T14:08:41.099Z</time></trkpt><trkpt lat="36.9262043" lon="14.5633691"><ele>182.0</ele><time>2026-04-18T14:09:42.099Z</time></trkpt><trkpt lat="36.9261841" lon="14.5632934"><ele>182.0</ele><time>2026-04-18T14:09:58.1Z</time></trkpt><trkpt lat="36.9260979" lon="14.5632773"><ele>182.0</ele><time>2026-04-18T14:10:36.097Z</time></trkpt><trkpt lat="36.9260334" lon="14.5632829"><ele>182.0</ele><time>2026-04-18T14:10:38.099Z</time></trkpt><trkpt lat="36.9259528" lon="14.5632465"><ele>182.0</ele><time>2026-04-18T14:10:40.098Z</time></trkpt><trkpt lat="36.9258946" lon="14.5631763"><ele>182.0</ele><time>2026-04-18T14:10:42.1Z</time></trkpt><trkpt lat="36.9258298" lon="14.5630768"><ele>182.0</ele><time>2026-04-18T14:10:44.097Z</time></trkpt><trkpt lat="36.925774" lon="14.5629618"><ele>182.6</ele><time>2026-04-18T14:10:46.101Z</time></trkpt><trkpt lat="36.9256999" lon="14.5628542"><ele>183.2</ele><time>2026-04-18T14:10:48.1Z</time></trkpt><trkpt lat="36.9256234" lon="14.5627555"><ele>183.8</ele><time>2026-04-18T14:10:50.098Z</time></trkpt><trkpt lat="36.9255809" lon="14.5626864"><ele>184.4</ele><time>2026-04-18T14:10:52.099Z</time></trkpt><trkpt lat="36.9255438" lon="14.5625899"><ele>185.0</ele><time>2026-04-18T14:11:05.101Z</time></trkpt><trkpt lat="36.9254845" lon="14.562468"><ele>185.0</ele><time>2026-04-18T14:11:19.098Z</time></trkpt><trkpt lat="36.9254587" lon="14.5623276"><ele>185.0</ele><time>2026-04-18T14:11:21.099Z</time></trkpt><trkpt lat="36.9254295" lon="14.562237"><ele>185.0</ele><time>2026-04-18T14:11:23.098Z</time></trkpt><trkpt lat="36.9253495" lon="14.5621507"><ele>185.0</ele><time>2026-04-18T14:11:31.098Z</time></trkpt><trkpt lat="36.9252609" lon="14.5620693"><ele>185.0</ele><time>2026-04-18T14:11:33.1Z</time></trkpt><trkpt lat="36.9252097" lon="14.5620185"><ele>184.4</ele><time>2026-04-18T14:11:35.098Z</time></trkpt><trkpt lat="36.9251618" lon="14.5619501"><ele>183.8</ele><time>2026-04-18T14:11:39.106Z</time></trkpt><trkpt lat="36.9250787" lon="14.5618442"><ele>183.2</ele><time>2026-04-18T14:11:47.1Z</time></trkpt><trkpt lat="36.9249938" lon="14.5617834"><ele>182.6</ele><time>2026-04-18T14:11:49.169Z</time></trkpt><trkpt lat="36.9249467" lon="14.5617067"><ele>182.0</ele><time>2026-04-18T14:11:51.101Z</time></trkpt><trkpt lat="36.9248799" lon="14.5616365"><ele>182.5</ele><time>2026-04-18T14:11:59.098Z</time></trkpt><trkpt lat="36.9248158" lon="14.5615336"><ele>183.0</ele><time>2026-04-18T14:12:01.1Z</time></trkpt><trkpt lat="36.9247609" lon="14.561436"><ele>183.5</ele><time>2026-04-18T14:12:03.1Z</time></trkpt><trkpt lat="36.924727" lon="14.5613596"><ele>184.0</ele><time>2026-04-18T14:12:06.099Z</time></trkpt><trkpt lat="36.9246839" lon="14.5612888"><ele>184.5</ele><time>2026-04-18T14:12:25.099Z</time></trkpt><trkpt lat="36.924636" lon="14.561227"><ele>185.0</ele><time>2026-04-18T14:12:26.1Z</time></trkpt><trkpt lat="36.9245535" lon="14.5611343"><ele>185.0</ele><time>2026-04-18T14:12:28.101Z</time></trkpt><trkpt lat="36.9245038" lon="14.561083"><ele>185.0</ele><time>2026-04-18T14:12:30.099Z</time></trkpt><trkpt lat="36.9244321" lon="14.5610453"><ele>185.0</ele><time>2026-04-18T14:12:34.099Z</time></trkpt><trkpt lat="36.9243629" lon="14.5609935"><ele>185.0</ele><time>2026-04-18T14:12:37.101Z</time></trkpt><trkpt lat="36.9243059" lon="14.5609421"><ele>185.0</ele><time>2026-04-18T14:12:40.097Z</time></trkpt><trkpt lat="36.9242384" lon="14.5608487"><ele>185.0</ele><time>2026-04-18T14:13:05.099Z</time></trkpt><trkpt lat="36.9241743" lon="14.5607855"><ele>185.16666666666666</ele><time>2026-04-18T14:13:08.101Z</time></trkpt><trkpt lat="36.9241124" lon="14.5607215"><ele>185.33333333333331</ele><time>2026-04-18T14:13:11.097Z</time></trkpt><trkpt lat="36.924049" lon="14.5606553"><ele>185.5</ele><time>2026-04-18T14:13:20.1Z</time></trkpt><trkpt lat="36.9240172" lon="14.5605865"><ele>185.66666666666666</ele><time>2026-04-18T14:13:22.1Z</time></trkpt><trkpt lat="36.9239802" lon="14.5604957"><ele>185.83333333333334</ele><time>2026-04-18T14:13:25.099Z</time></trkpt><trkpt lat="36.9239305" lon="14.5604197"><ele>186.0</ele><time>2026-04-18T14:13:28.101Z</time></trkpt><trkpt lat="36.9238892" lon="14.5603397"><ele>186.00000000000003</ele><time>2026-04-18T14:13:33.101Z</time></trkpt><trkpt lat="36.9238573" lon="14.5602586"><ele>186.0</ele><time>2026-04-18T14:13:36.099Z</time></trkpt><trkpt lat="36.9238312" lon="14.5601867"><ele>186.0</ele><time>2026-04-18T14:13:40.102Z</time></trkpt><trkpt lat="36.9237684" lon="14.5601178"><ele>186.0</ele><time>2026-04-18T14:13:53.099Z</time></trkpt><trkpt lat="36.9237563" lon="14.5600323"><ele>186.0</ele><time>2026-04-18T14:13:55.099Z</time></trkpt><trkpt lat="36.9237322" lon="14.5599562"><ele>186.00000000000003</ele><time>2026-04-18T14:13:57.1Z</time></trkpt><trkpt lat="36.9236855" lon="14.5598941"><ele>186.0</ele><time>2026-04-18T14:13:59.1Z</time></trkpt><trkpt lat="36.9236322" lon="14.5597863"><ele>186.0</ele><time>2026-04-18T14:14:18.098Z</time></trkpt><trkpt lat="36.9235492" lon="14.559687"><ele>186.0</ele><time>2026-04-18T14:14:30.1Z</time></trkpt><trkpt lat="36.9235056" lon="14.5596168"><ele>186.0</ele><time>2026-04-18T14:14:33.1Z</time></trkpt><trkpt lat="36.9234367" lon="14.5595435"><ele>186.0</ele><time>2026-04-18T14:14:41.099Z</time></trkpt><trkpt lat="36.9233633" lon="14.5594974"><ele>186.0</ele><time>2026-04-18T14:14:43.102Z</time></trkpt><trkpt lat="36.9232977" lon="14.5594716"><ele>186.0</ele><time>2026-04-18T14:14:45.1Z</time></trkpt><trkpt lat="36.9231679" lon="14.5595558"><ele>186.4</ele><time>2026-04-18T14:14:53.102Z</time></trkpt><trkpt lat="36.9230452" lon="14.5595948"><ele>186.8</ele><time>2026-04-18T14:14:55.098Z</time></trkpt><trkpt lat="36.9229779" lon="14.5596376"><ele>187.20000000000002</ele><time>2026-04-18T14:14:56.1Z</time></trkpt><trkpt lat="36.9229232" lon="14.5596935"><ele>187.60000000000002</ele><time>2026-04-18T14:14:57.099Z</time></trkpt><trkpt lat="36.9228487" lon="14.5597799"><ele>188.0</ele><time>2026-04-18T14:14:59.098Z</time></trkpt><trkpt lat="36.922787" lon="14.5598522"><ele>188.0</ele><time>2026-04-18T14:15:01.099Z</time></trkpt><trkpt lat="36.9227306" lon="14.5599553"><ele>188.0</ele><time>2026-04-18T14:15:03.099Z</time></trkpt><trkpt lat="36.9227031" lon="14.5600396"><ele>188.0</ele><time>2026-04-18T14:15:05.099Z</time></trkpt><trkpt lat="36.9226743" lon="14.5601289"><ele>188.0</ele><time>2026-04-18T14:15:08.099Z</time></trkpt><trkpt lat="36.9226377" lon="14.5602243"><ele>188.0</ele><time>2026-04-18T14:15:11.1Z</time></trkpt><trkpt lat="36.9226065" lon="14.5603321"><ele>188.0</ele><time>2026-04-18T14:15:14.098Z</time></trkpt><trkpt lat="36.9225684" lon="14.5604137"><ele>190.2</ele><time>2026-04-18T14:15:17.102Z</time></trkpt><trkpt lat="36.9225126" lon="14.5605156"><ele>192.4</ele><time>2026-04-18T14:15:20.099Z</time></trkpt><trkpt lat="36.922453" lon="14.5606153"><ele>194.6</ele><time>2026-04-18T14:15:22.098Z</time></trkpt><trkpt lat="36.9223972" lon="14.5607361"><ele>196.79999999999998</ele><time>2026-04-18T14:15:24.099Z</time></trkpt><trkpt lat="36.9223522" lon="14.5608595"><ele>199.0</ele><time>2026-04-18T14:15:26.1Z</time></trkpt><trkpt lat="36.9223296" lon="14.5609467"><ele>199.0</ele><time>2026-04-18T14:15:28.099Z</time></trkpt><trkpt lat="36.9223128" lon="14.5610526"><ele>199.0</ele><time>2026-04-18T14:15:30.1Z</time></trkpt><trkpt lat="36.9223073" lon="14.5611746"><ele>199.0</ele><time>2026-04-18T14:15:32.102Z</time></trkpt><trkpt lat="36.9222889" lon="14.5612998"><ele>199.0</ele><time>2026-04-18T14:15:34.101Z</time></trkpt><trkpt lat="36.9222137" lon="14.5614278"><ele>199.0</ele><time>2026-04-18T14:15:36.099Z</time></trkpt><trkpt lat="36.9221505" lon="14.5615537"><ele>199.99999999999997</ele><time>2026-04-18T14:15:38.099Z</time></trkpt><trkpt lat="36.9221221" lon="14.5616248"><ele>201.0</ele><time>2026-04-18T14:15:39.101Z</time></trkpt><trkpt lat="36.9221043" lon="14.5617004"><ele>202.0</ele><time>2026-04-18T14:15:40.1Z</time></trkpt><trkpt lat="36.9220981" lon="14.5617845"><ele>203.0</ele><time>2026-04-18T14:15:41.099Z</time></trkpt><trkpt lat="36.9220822" lon="14.5619071"><ele>203.99999999999997</ele><time>2026-04-18T14:15:43.1Z</time></trkpt><trkpt lat="36.9220564" lon="14.5619803"><ele>205.0</ele><time>2026-04-18T14:15:46.101Z</time></trkpt><trkpt lat="36.9219744" lon="14.5620427"><ele>204.99999999999997</ele><time>2026-04-18T14:15:49.099Z</time></trkpt><trkpt lat="36.9219098" lon="14.5620369"><ele>205.0</ele><time>2026-04-18T14:15:51.099Z</time></trkpt><trkpt lat="36.9218317" lon="14.561972"><ele>205.0</ele><time>2026-04-18T14:15:53.1Z</time></trkpt><trkpt lat="36.921774" lon="14.5619031"><ele>205.0</ele><time>2026-04-18T14:15:54.099Z</time></trkpt><trkpt lat="36.9217028" lon="14.5618203"><ele>204.99999999999997</ele><time>2026-04-18T14:15:55.1Z</time></trkpt><trkpt lat="36.9216295" lon="14.5617396"><ele>205.0</ele><time>2026-04-18T14:15:56.098Z</time></trkpt><trkpt lat="36.9215568" lon="14.5616646"><ele>206.2</ele><time>2026-04-18T14:15:57.1Z</time></trkpt><trkpt lat="36.92148" lon="14.5615909"><ele>207.4</ele><time>2026-04-18T14:15:58.1Z</time></trkpt><trkpt lat="36.9213984" lon="14.5615147"><ele>208.60000000000002</ele><time>2026-04-18T14:15:59.098Z</time></trkpt><trkpt lat="36.9213141" lon="14.5614347"><ele>209.8</ele><time>2026-04-18T14:16:00.098Z</time></trkpt><trkpt lat="36.9212304" lon="14.5613503"><ele>211.0</ele><time>2026-04-18T14:16:01.1Z</time></trkpt><trkpt lat="36.9211549" lon="14.5612693"><ele>210.60000000000002</ele><time>2026-04-18T14:16:02.1Z</time></trkpt><trkpt lat="36.9210842" lon="14.5611879"><ele>210.2</ele><time>2026-04-18T14:16:03.099Z</time></trkpt><trkpt lat="36.9210154" lon="14.5611033"><ele>209.8</ele><time>2026-04-18T14:16:04.099Z</time></trkpt><trkpt lat="36.9209505" lon="14.5610129"><ele>209.39999999999998</ele><time>2026-04-18T14:16:05.1Z</time></trkpt><trkpt lat="36.9208887" lon="14.5609249"><ele>209.0</ele><time>2026-04-18T14:16:06.1Z</time></trkpt><trkpt lat="36.9208301" lon="14.5608411"><ele>209.0</ele><time>2026-04-18T14:16:07.1Z</time></trkpt><trkpt lat="36.9207686" lon="14.5607525"><ele>209.0</ele><time>2026-04-18T14:16:08.099Z</time></trkpt><trkpt lat="36.920706" lon="14.5606612"><ele>209.0</ele><time>2026-04-18T14:16:09.101Z</time></trkpt><trkpt lat="36.9206417" lon="14.5605728"><ele>209.0</ele><time>2026-04-18T14:16:10.1Z</time></trkpt><trkpt lat="36.9205854" lon="14.5604901"><ele>209.0</ele><time>2026-04-18T14:16:11.1Z</time></trkpt><trkpt lat="36.9205325" lon="14.560413"><ele>208.00000000000003</ele><time>2026-04-18T14:16:12.1Z</time></trkpt><trkpt lat="36.9204814" lon="14.5603426"><ele>207.0</ele><time>2026-04-18T14:16:13.101Z</time></trkpt><trkpt lat="36.9204401" lon="14.5602819"><ele>206.0</ele><time>2026-04-18T14:16:14.1Z</time></trkpt><trkpt lat="36.9203872" lon="14.5602051"><ele>205.0</ele><time>2026-04-18T14:16:16.099Z</time></trkpt><trkpt lat="36.9203361" lon="14.5601431"><ele>204.00000000000003</ele><time>2026-04-18T14:16:19.099Z</time></trkpt><trkpt lat="36.9202783" lon="14.5601769"><ele>203.0</ele><time>2026-04-18T14:16:21.1Z</time></trkpt><trkpt lat="36.9201855" lon="14.5602829"><ele>203.00000000000003</ele><time>2026-04-18T14:16:23.101Z</time></trkpt><trkpt lat="36.9201456" lon="14.5603551"><ele>203.0</ele><time>2026-04-18T14:16:24.1Z</time></trkpt><trkpt lat="36.9201086" lon="14.560428"><ele>203.0</ele><time>2026-04-18T14:16:25.1Z</time></trkpt><trkpt lat="36.9200328" lon="14.5605322"><ele>203.0</ele><time>2026-04-18T14:16:27.1Z</time></trkpt><trkpt lat="36.9199754" lon="14.5605759"><ele>203.00000000000003</ele><time>2026-04-18T14:16:28.099Z</time></trkpt><trkpt lat="36.919903" lon="14.5606208"><ele>203.0</ele><time>2026-04-18T14:16:29.101Z</time></trkpt><trkpt lat="36.9198315" lon="14.5606791"><ele>205.4</ele><time>2026-04-18T14:16:30.099Z</time></trkpt><trkpt lat="36.9197772" lon="14.5607494"><ele>207.8</ele><time>2026-04-18T14:16:31.1Z</time></trkpt><trkpt lat="36.9197126" lon="14.5608546"><ele>210.2</ele><time>2026-04-18T14:16:33.099Z</time></trkpt><trkpt lat="36.919624" lon="14.5609009"><ele>212.6</ele><time>2026-04-18T14:16:35.099Z</time></trkpt><trkpt lat="36.9195172" lon="14.5609431"><ele>215.0</ele><time>2026-04-18T14:16:37.1Z</time></trkpt><trkpt lat="36.9194215" lon="14.5610049"><ele>215.00000000000003</ele><time>2026-04-18T14:16:39.1Z</time></trkpt><trkpt lat="36.9193546" lon="14.5610778"><ele>215.0</ele><time>2026-04-18T14:16:41.1Z</time></trkpt><trkpt lat="36.9193025" lon="14.5611355"><ele>215.0</ele><time>2026-04-18T14:16:43.1Z</time></trkpt><trkpt lat="36.9193623" lon="14.5610575"><ele>215.0</ele><time>2026-04-18T14:16:53.098Z</time></trkpt><trkpt lat="36.919421" lon="14.5609775"><ele>215.00000000000003</ele><time>2026-04-18T14:16:55.099Z</time></trkpt><trkpt lat="36.9194959" lon="14.5609205"><ele>215.0</ele><time>2026-04-18T14:16:57.1Z</time></trkpt><trkpt lat="36.9195857" lon="14.5608893"><ele>215.0</ele><time>2026-04-18T14:16:59.099Z</time></trkpt><trkpt lat="36.9196797" lon="14.560853"><ele>215.0</ele><time>2026-04-18T14:17:01.101Z</time></trkpt><trkpt lat="36.9197821" lon="14.5607795"><ele>215.0</ele><time>2026-04-18T14:17:03.099Z</time></trkpt><trkpt lat="36.9198532" lon="14.5606855"><ele>215.0</ele><time>2026-04-18T14:17:05.099Z</time></trkpt><trkpt lat="36.919949" lon="14.5606097"><ele>215.0</ele><time>2026-04-18T14:17:07.101Z</time></trkpt><trkpt lat="36.9200486" lon="14.5605414"><ele>213.8</ele><time>2026-04-18T14:17:09.101Z</time></trkpt><trkpt lat="36.9201242" lon="14.5604515"><ele>212.6</ele><time>2026-04-18T14:17:11.098Z</time></trkpt><trkpt lat="36.9201733" lon="14.5603499"><ele>211.39999999999998</ele><time>2026-04-18T14:17:13.1Z</time></trkpt><trkpt lat="36.9202339" lon="14.5602501"><ele>210.2</ele><time>2026-04-18T14:17:15.099Z</time></trkpt><trkpt lat="36.92031" lon="14.560175"><ele>209.0</ele><time>2026-04-18T14:17:17.1Z</time></trkpt><trkpt lat="36.9203733" lon="14.5601727"><ele>209.0</ele><time>2026-04-18T14:17:19.101Z</time></trkpt><trkpt lat="36.9204319" lon="14.5602369"><ele>209.0</ele><time>2026-04-18T14:17:21.1Z</time></trkpt><trkpt lat="36.9205147" lon="14.5603758"><ele>209.0</ele><time>2026-04-18T14:17:23.099Z</time></trkpt><trkpt lat="36.9205737" lon="14.5604671"><ele>209.0</ele><time>2026-04-18T14:17:24.1Z</time></trkpt><trkpt lat="36.9206376" lon="14.5605673"><ele>209.0</ele><time>2026-04-18T14:17:25.101Z</time></trkpt><trkpt lat="36.9207049" lon="14.5606686"><ele>209.0</ele><time>2026-04-18T14:17:26.1Z</time></trkpt><trkpt lat="36.9207754" lon="14.5607702"><ele>209.0</ele><time>2026-04-18T14:17:27.101Z</time></trkpt><trkpt lat="36.9208417" lon="14.5608685"><ele>209.0</ele><time>2026-04-18T14:17:28.101Z</time></trkpt><trkpt lat="36.9209056" lon="14.5609654"><ele>209.0</ele><time>2026-04-18T14:17:29.1Z</time></trkpt><trkpt lat="36.9209716" lon="14.5610627"><ele>209.0</ele><time>2026-04-18T14:17:30.101Z</time></trkpt><trkpt lat="36.9210421" lon="14.5611577"><ele>209.39999999999998</ele><time>2026-04-18T14:17:31.099Z</time></trkpt><trkpt lat="36.921117" lon="14.5612461"><ele>209.8</ele><time>2026-04-18T14:17:32.101Z</time></trkpt><trkpt lat="36.9211922" lon="14.5613268"><ele>210.2</ele><time>2026-04-18T14:17:33.1Z</time></trkpt><trkpt lat="36.9212668" lon="14.5614033"><ele>210.60000000000002</ele><time>2026-04-18T14:17:34.1Z</time></trkpt><trkpt lat="36.9213405" lon="14.561476"><ele>211.0</ele><time>2026-04-18T14:17:35.098Z</time></trkpt><trkpt lat="36.9214158" lon="14.5615495"><ele>211.0</ele><time>2026-04-18T14:17:36.101Z</time></trkpt><trkpt lat="36.9214955" lon="14.5616232"><ele>211.0</ele><time>2026-04-18T14:17:37.1Z</time></trkpt><trkpt lat="36.9215748" lon="14.5616994"><ele>211.0</ele><time>2026-04-18T14:17:38.099Z</time></trkpt><trkpt lat="36.9216515" lon="14.5617798"><ele>211.0</ele><time>2026-04-18T14:17:39.099Z</time></trkpt><trkpt lat="36.9217251" lon="14.561858"><ele>211.0</ele><time>2026-04-18T14:17:40.099Z</time></trkpt><trkpt lat="36.9217898" lon="14.5619292"><ele>209.99999999999997</ele><time>2026-04-18T14:17:41.1Z</time></trkpt><trkpt lat="36.9218493" lon="14.5619906"><ele>209.0</ele><time>2026-04-18T14:17:42.1Z</time></trkpt><trkpt lat="36.9219047" lon="14.5620311"><ele>208.0</ele><time>2026-04-18T14:17:43.1Z</time></trkpt><trkpt lat="36.9220025" lon="14.5620311"><ele>207.0</ele><time>2026-04-18T14:17:45.101Z</time></trkpt><trkpt lat="36.922054" lon="14.5619793"><ele>205.99999999999997</ele><time>2026-04-18T14:17:47.099Z</time></trkpt><trkpt lat="36.9220091" lon="14.5618902"><ele>205.0</ele><time>2026-04-18T14:17:51.101Z</time></trkpt><trkpt lat="36.9219547" lon="14.5618419"><ele>204.99999999999997</ele><time>2026-04-18T14:18:05.099Z</time></trkpt><trkpt lat="36.9218958" lon="14.5617769"><ele>205.0</ele><time>2026-04-18T14:18:06.1Z</time></trkpt><trkpt lat="36.9218344" lon="14.5617159"><ele>205.0</ele><time>2026-04-18T14:18:07.1Z</time></trkpt><trkpt lat="36.9217859" lon="14.5616641"><ele>205.0</ele><time>2026-04-18T14:18:08.099Z</time></trkpt><trkpt lat="36.9217245" lon="14.5615952"><ele>204.99999999999997</ele><time>2026-04-18T14:18:10.099Z</time></trkpt><trkpt lat="36.9216481" lon="14.5615264"><ele>205.0</ele><time>2026-04-18T14:18:21.099Z</time></trkpt><trkpt lat="36.9215528" lon="14.5614215"><ele>204.83333333333331</ele><time>2026-04-18T14:18:23.098Z</time></trkpt><trkpt lat="36.9214868" lon="14.5613646"><ele>204.66666666666666</ele><time>2026-04-18T14:18:24.099Z</time></trkpt><trkpt lat="36.9214071" lon="14.5613212"><ele>204.5</ele><time>2026-04-18T14:18:25.099Z</time></trkpt><trkpt lat="36.9213305" lon="14.561283"><ele>204.33333333333331</ele><time>2026-04-18T14:18:26.098Z</time></trkpt><trkpt lat="36.9212684" lon="14.5612382"><ele>204.16666666666666</ele><time>2026-04-18T14:18:27.1Z</time></trkpt><trkpt lat="36.9212105" lon="14.5611808"><ele>204.0</ele><time>2026-04-18T14:18:28.099Z</time></trkpt><trkpt lat="36.9211543" lon="14.5611122"><ele>204.0</ele><time>2026-04-18T14:18:29.099Z</time></trkpt><trkpt lat="36.921098" lon="14.5610387"><ele>204.0</ele><time>2026-04-18T14:18:30.098Z</time></trkpt><trkpt lat="36.9210427" lon="14.5609708"><ele>204.0</ele><time>2026-04-18T14:18:31.1Z</time></trkpt><trkpt lat="36.9209919" lon="14.5608934"><ele>204.0</ele><time>2026-04-18T14:18:32.099Z</time></trkpt><trkpt lat="36.9209426" lon="14.5608115"><ele>204.0</ele><time>2026-04-18T14:18:33.1Z</time></trkpt><trkpt lat="36.9208978" lon="14.5607302"><ele>204.0</ele><time>2026-04-18T14:18:34.1Z</time></trkpt><trkpt lat="36.9208527" lon="14.5606507"><ele>203.83333333333334</ele><time>2026-04-18T14:18:35.099Z</time></trkpt><trkpt lat="36.920808" lon="14.5605645"><ele>203.66666666666669</ele><time>2026-04-18T14:18:36.099Z</time></trkpt><trkpt lat="36.9207625" lon="14.5604773"><ele>203.5</ele><time>2026-04-18T14:18:37.099Z</time></trkpt><trkpt lat="36.9207136" lon="14.5603908"><ele>203.33333333333334</ele><time>2026-04-18T14:18:38.099Z</time></trkpt><trkpt lat="36.9206638" lon="14.5603024"><ele>203.16666666666669</ele><time>2026-04-18T14:18:39.1Z</time></trkpt><trkpt lat="36.9206129" lon="14.5602124"><ele>203.0</ele><time>2026-04-18T14:18:40.099Z</time></trkpt><trkpt lat="36.9205638" lon="14.5601266"><ele>203.0</ele><time>2026-04-18T14:18:41.099Z</time></trkpt><trkpt lat="36.920521" lon="14.5600501"><ele>203.0</ele><time>2026-04-18T14:18:42.1Z</time></trkpt><trkpt lat="36.920482" lon="14.5599797"><ele>203.0</ele><time>2026-04-18T14:18:43.098Z</time></trkpt><trkpt lat="36.9204441" lon="14.5599132"><ele>203.0</ele><time>2026-04-18T14:18:47.098Z</time></trkpt><trkpt lat="36.920348" lon="14.5597677"><ele>203.0</ele><time>2026-04-18T14:19:02.097Z</time></trkpt><trkpt lat="36.9202793" lon="14.5596608"><ele>203.0</ele><time>2026-04-18T14:19:03.098Z</time></trkpt><trkpt lat="36.9202006" lon="14.5595499"><ele>203.0</ele><time>2026-04-18T14:19:04.097Z</time></trkpt><trkpt lat="36.9201229" lon="14.5594379"><ele>203.0</ele><time>2026-04-18T14:19:05.1Z</time></trkpt><trkpt lat="36.9200554" lon="14.5593341"><ele>203.0</ele><time>2026-04-18T14:19:06.099Z</time></trkpt><trkpt lat="36.9199965" lon="14.559237"><ele>203.0</ele><time>2026-04-18T14:19:07.098Z</time></trkpt><trkpt lat="36.9199434" lon="14.5591453"><ele>203.16666666666669</ele><time>2026-04-18T14:19:08.098Z</time></trkpt><trkpt lat="36.9198945" lon="14.5590704"><ele>203.33333333333334</ele><time>2026-04-18T14:19:09.099Z</time></trkpt><trkpt lat="36.919846" lon="14.5590043"><ele>203.5</ele><time>2026-04-18T14:19:10.099Z</time></trkpt><trkpt lat="36.9197919" lon="14.5589285"><ele>203.66666666666669</ele><time>2026-04-18T14:19:11.099Z</time></trkpt><trkpt lat="36.919738" lon="14.5588467"><ele>203.83333333333334</ele><time>2026-04-18T14:19:12.099Z</time></trkpt><trkpt lat="36.9196842" lon="14.5587689"><ele>204.0</ele><time>2026-04-18T14:19:13.099Z</time></trkpt><trkpt lat="36.9196355" lon="14.5586943"><ele>203.66666666666666</ele><time>2026-04-18T14:19:14.098Z</time></trkpt><trkpt lat="36.9195889" lon="14.5586164"><ele>203.33333333333331</ele><time>2026-04-18T14:19:15.098Z</time></trkpt><trkpt lat="36.9195382" lon="14.5585349"><ele>203.0</ele><time>2026-04-18T14:19:16.099Z</time></trkpt><trkpt lat="36.9194869" lon="14.5584472"><ele>202.66666666666666</ele><time>2026-04-18T14:19:17.099Z</time></trkpt><trkpt lat="36.9194292" lon="14.5583577"><ele>202.33333333333331</ele><time>2026-04-18T14:19:18.099Z</time></trkpt><trkpt lat="36.9193607" lon="14.5582739"><ele>202.0</ele><time>2026-04-18T14:19:19.098Z</time></trkpt><trkpt lat="36.9193029" lon="14.5581936"><ele>201.99999999999997</ele><time>2026-04-18T14:19:20.098Z</time></trkpt><trkpt lat="36.9192569" lon="14.5581215"><ele>202.0</ele><time>2026-04-18T14:19:21.099Z</time></trkpt><trkpt lat="36.9192121" lon="14.55805"><ele>202.0</ele><time>2026-04-18T14:19:22.099Z</time></trkpt><trkpt lat="36.9191666" lon="14.5579773"><ele>202.0</ele><time>2026-04-18T14:19:23.098Z</time></trkpt><trkpt lat="36.9191235" lon="14.5579087"><ele>201.99999999999997</ele><time>2026-04-18T14:19:24.099Z</time></trkpt><trkpt lat="36.919085" lon="14.557845"><ele>202.0</ele><time>2026-04-18T14:19:25.098Z</time></trkpt><trkpt lat="36.9190151" lon="14.5577387"><ele>202.16666666666666</ele><time>2026-04-18T14:19:27.099Z</time></trkpt><trkpt lat="36.918943" lon="14.557626"><ele>202.33333333333331</ele><time>2026-04-18T14:19:29.099Z</time></trkpt><trkpt lat="36.9188893" lon="14.5575657"><ele>202.5</ele><time>2026-04-18T14:19:30.1Z</time></trkpt><trkpt lat="36.9188262" lon="14.5575036"><ele>202.66666666666669</ele><time>2026-04-18T14:19:31.099Z</time></trkpt><trkpt lat="36.9187598" lon="14.5574459"><ele>202.83333333333334</ele><time>2026-04-18T14:19:32.098Z</time></trkpt><trkpt lat="36.9186826" lon="14.557398"><ele>203.0</ele><time>2026-04-18T14:19:33.099Z</time></trkpt><trkpt lat="36.9186015" lon="14.5573598"><ele>203.00000000000003</ele><time>2026-04-18T14:19:34.098Z</time></trkpt><trkpt lat="36.9185241" lon="14.557329"><ele>203.0</ele><time>2026-04-18T14:19:35.099Z</time></trkpt><trkpt lat="36.9184571" lon="14.5572946"><ele>203.0</ele><time>2026-04-18T14:19:36.099Z</time></trkpt><trkpt lat="36.9183455" lon="14.5572314"><ele>203.0</ele><time>2026-04-18T14:19:38.099Z</time></trkpt><trkpt lat="36.9182868" lon="14.5571863"><ele>203.00000000000003</ele><time>2026-04-18T14:19:39.1Z</time></trkpt><trkpt lat="36.9182347" lon="14.5571345"><ele>203.0</ele><time>2026-04-18T14:19:40.102Z</time></trkpt><trkpt lat="36.9181819" lon="14.5570849"><ele>202.16666666666669</ele><time>2026-04-18T14:19:41.098Z</time></trkpt><trkpt lat="36.9181324" lon="14.5570347"><ele>201.33333333333334</ele><time>2026-04-18T14:19:42.099Z</time></trkpt><trkpt lat="36.9180768" lon="14.556986"><ele>200.5</ele><time>2026-04-18T14:19:43.099Z</time></trkpt><trkpt lat="36.9179997" lon="14.5569437"><ele>199.66666666666669</ele><time>2026-04-18T14:19:44.1Z</time></trkpt><trkpt lat="36.9179267" lon="14.5568894"><ele>198.83333333333334</ele><time>2026-04-18T14:19:45.099Z</time></trkpt><trkpt lat="36.9178561" lon="14.5568111"><ele>198.0</ele><time>2026-04-18T14:19:46.099Z</time></trkpt><trkpt lat="36.9177808" lon="14.5567187"><ele>198.0</ele><time>2026-04-18T14:19:47.1Z</time></trkpt><trkpt lat="36.9176951" lon="14.5566398"><ele>198.0</ele><time>2026-04-18T14:19:48.099Z</time></trkpt><trkpt lat="36.9176152" lon="14.5565814"><ele>198.0</ele><time>2026-04-18T14:19:49.098Z</time></trkpt><trkpt lat="36.917539" lon="14.5565143"><ele>198.0</ele><time>2026-04-18T14:19:50.097Z</time></trkpt><trkpt lat="36.9174603" lon="14.5564384"><ele>198.0</ele><time>2026-04-18T14:19:51.102Z</time></trkpt><trkpt lat="36.9173724" lon="14.5563721"><ele>197.66666666666666</ele><time>2026-04-18T14:19:52.1Z</time></trkpt><trkpt lat="36.9172857" lon="14.5563074"><ele>197.33333333333331</ele><time>2026-04-18T14:19:53.098Z</time></trkpt><trkpt lat="36.9172056" lon="14.5562399"><ele>197.0</ele><time>2026-04-18T14:19:54.098Z</time></trkpt><trkpt lat="36.9171295" lon="14.5561759"><ele>196.66666666666666</ele><time>2026-04-18T14:19:55.099Z</time></trkpt><trkpt lat="36.9170727" lon="14.5561151"><ele>196.33333333333331</ele><time>2026-04-18T14:19:56.099Z</time></trkpt><trkpt lat="36.9170229" lon="14.5560587"><ele>196.0</ele><time>2026-04-18T14:19:57.098Z</time></trkpt><trkpt lat="36.916972" lon="14.5560111"><ele>195.99999999999997</ele><time>2026-04-18T14:19:58.099Z</time></trkpt><trkpt lat="36.9169202" lon="14.555958"><ele>196.0</ele><time>2026-04-18T14:19:59.1Z</time></trkpt><trkpt lat="36.9168608" lon="14.5558992"><ele>196.0</ele><time>2026-04-18T14:20:00.099Z</time></trkpt><trkpt lat="36.9167964" lon="14.5558414"><ele>196.0</ele><time>2026-04-18T14:20:01.099Z</time></trkpt><trkpt lat="36.9167232" lon="14.5557792"><ele>195.99999999999997</ele><time>2026-04-18T14:20:02.098Z</time></trkpt><trkpt lat="36.91665" lon="14.5557101"><ele>196.0</ele><time>2026-04-18T14:20:03.099Z</time></trkpt><trkpt lat="36.9165793" lon="14.5556403"><ele>196.8</ele><time>2026-04-18T14:20:04.099Z</time></trkpt><trkpt lat="36.9165083" lon="14.5555663"><ele>197.60000000000002</ele><time>2026-04-18T14:20:05.099Z</time></trkpt><trkpt lat="36.9164322" lon="14.5554979"><ele>198.4</ele><time>2026-04-18T14:20:06.099Z</time></trkpt><trkpt lat="36.9163505" lon="14.5554366"><ele>199.2</ele><time>2026-04-18T14:20:07.1Z</time></trkpt><trkpt lat="36.9162648" lon="14.5553652"><ele>200.0</ele><time>2026-04-18T14:20:08.099Z</time></trkpt><trkpt lat="36.916174" lon="14.5552986"><ele>199.6</ele><time>2026-04-18T14:20:09.098Z</time></trkpt><trkpt lat="36.9160866" lon="14.5552215"><ele>199.2</ele><time>2026-04-18T14:20:10.099Z</time></trkpt><trkpt lat="36.9160031" lon="14.5551342"><ele>198.8</ele><time>2026-04-18T14:20:11.098Z</time></trkpt><trkpt lat="36.9159207" lon="14.5550409"><ele>198.4</ele><time>2026-04-18T14:20:12.099Z</time></trkpt><trkpt lat="36.9158422" lon="14.5549439"><ele>198.0</ele><time>2026-04-18T14:20:13.1Z</time></trkpt><trkpt lat="36.9157577" lon="14.5548454"><ele>198.0</ele><time>2026-04-18T14:20:14.1Z</time></trkpt><trkpt lat="36.9156737" lon="14.5547484"><ele>198.0</ele><time>2026-04-18T14:20:15.1Z</time></trkpt><trkpt lat="36.9155871" lon="14.554655"><ele>198.0</ele><time>2026-04-18T14:20:16.1Z</time></trkpt><trkpt lat="36.9155053" lon="14.5545568"><ele>198.0</ele><time>2026-04-18T14:20:17.099Z</time></trkpt><trkpt lat="36.9154251" lon="14.554456"><ele>197.8</ele><time>2026-04-18T14:20:18.1Z</time></trkpt><trkpt lat="36.9153454" lon="14.5543587"><ele>197.60000000000002</ele><time>2026-04-18T14:20:19.1Z</time></trkpt><trkpt lat="36.9152678" lon="14.554269"><ele>197.39999999999998</ele><time>2026-04-18T14:20:20.1Z</time></trkpt><trkpt lat="36.9151954" lon="14.5541822"><ele>197.2</ele><time>2026-04-18T14:20:21.1Z</time></trkpt><trkpt lat="36.9151209" lon="14.5540962"><ele>197.0</ele><time>2026-04-18T14:20:22.1Z</time></trkpt><trkpt lat="36.9150448" lon="14.5540097"><ele>197.0</ele><time>2026-04-18T14:20:23.101Z</time></trkpt><trkpt lat="36.9149669" lon="14.5539261"><ele>197.0</ele><time>2026-04-18T14:20:24.099Z</time></trkpt><trkpt lat="36.9148808" lon="14.5538462"><ele>197.0</ele><time>2026-04-18T14:20:25.099Z</time></trkpt><trkpt lat="36.9147862" lon="14.5537671"><ele>197.0</ele><time>2026-04-18T14:20:26.097Z</time></trkpt><trkpt lat="36.9146854" lon="14.5536927"><ele>197.0</ele><time>2026-04-18T14:20:27.099Z</time></trkpt><trkpt lat="36.9145821" lon="14.5536169"><ele>197.0</ele><time>2026-04-18T14:20:28.099Z</time></trkpt><trkpt lat="36.9144779" lon="14.5535358"><ele>197.0</ele><time>2026-04-18T14:20:29.098Z</time></trkpt><trkpt lat="36.9143744" lon="14.553451"><ele>197.0</ele><time>2026-04-18T14:20:30.101Z</time></trkpt><trkpt lat="36.91427" lon="14.5533665"><ele>197.0</ele><time>2026-04-18T14:20:31.101Z</time></trkpt><trkpt lat="36.9141644" lon="14.5532806"><ele>197.0</ele><time>2026-04-18T14:20:32.099Z</time></trkpt><trkpt lat="36.914058" lon="14.5531915"><ele>197.0</ele><time>2026-04-18T14:20:33.1Z</time></trkpt><trkpt lat="36.9139488" lon="14.5531045"><ele>197.0</ele><time>2026-04-18T14:20:34.1Z</time></trkpt><trkpt lat="36.9138432" lon="14.553015"><ele>197.0</ele><time>2026-04-18T14:20:35.101Z</time></trkpt><trkpt lat="36.9137401" lon="14.5529272"><ele>196.8</ele><time>2026-04-18T14:20:36.099Z</time></trkpt><trkpt lat="36.9136454" lon="14.5528446"><ele>196.6</ele><time>2026-04-18T14:20:37.101Z</time></trkpt><trkpt lat="36.91356" lon="14.5527659"><ele>196.4</ele><time>2026-04-18T14:20:38.098Z</time></trkpt><trkpt lat="36.9134821" lon="14.5526933"><ele>196.20000000000002</ele><time>2026-04-18T14:20:39.1Z</time></trkpt><trkpt lat="36.9134074" lon="14.5526191"><ele>196.0</ele><time>2026-04-18T14:20:40.099Z</time></trkpt><trkpt lat="36.9133325" lon="14.5525328"><ele>196.0</ele><time>2026-04-18T14:20:41.098Z</time></trkpt><trkpt lat="36.9132536" lon="14.5524403"><ele>196.0</ele><time>2026-04-18T14:20:42.099Z</time></trkpt><trkpt lat="36.913176" lon="14.5523464"><ele>196.0</ele><time>2026-04-18T14:20:43.099Z</time></trkpt><trkpt lat="36.9130957" lon="14.5522503"><ele>196.0</ele><time>2026-04-18T14:20:44.099Z</time></trkpt><trkpt lat="36.913021" lon="14.552148"><ele>196.0</ele><time>2026-04-18T14:20:45.099Z</time></trkpt><trkpt lat="36.9129528" lon="14.5520349"><ele>194.25</ele><time>2026-04-18T14:20:46.099Z</time></trkpt><trkpt lat="36.9128898" lon="14.5519121"><ele>192.5</ele><time>2026-04-18T14:20:47.098Z</time></trkpt><trkpt lat="36.9128318" lon="14.5517824"><ele>190.75</ele><time>2026-04-18T14:20:48.101Z</time></trkpt><trkpt lat="36.9127785" lon="14.5516484"><ele>189.0</ele><time>2026-04-18T14:20:49.099Z</time></trkpt><trkpt lat="36.9127246" lon="14.5515135"><ele>189.0</ele><time>2026-04-18T14:20:50.101Z</time></trkpt><trkpt lat="36.9126663" lon="14.5513819"><ele>189.0</ele><time>2026-04-18T14:20:51.1Z</time></trkpt><trkpt lat="36.912596" lon="14.5512563"><ele>189.0</ele><time>2026-04-18T14:20:52.099Z</time></trkpt><trkpt lat="36.9125134" lon="14.5511455"><ele>189.0</ele><time>2026-04-18T14:20:53.098Z</time></trkpt><trkpt lat="36.9124273" lon="14.5510414"><ele>189.6</ele><time>2026-04-18T14:20:54.099Z</time></trkpt><trkpt lat="36.9123409" lon="14.5509452"><ele>190.2</ele><time>2026-04-18T14:20:55.1Z</time></trkpt><trkpt lat="36.912247" lon="14.5508599"><ele>190.79999999999998</ele><time>2026-04-18T14:20:56.1Z</time></trkpt><trkpt lat="36.9121539" lon="14.5507844"><ele>191.39999999999998</ele><time>2026-04-18T14:20:57.101Z</time></trkpt><trkpt lat="36.912069" lon="14.5507159"><ele>192.0</ele><time>2026-04-18T14:20:58.1Z</time></trkpt><trkpt lat="36.9119867" lon="14.5506589"><ele>192.0</ele><time>2026-04-18T14:20:59.101Z</time></trkpt><trkpt lat="36.9119099" lon="14.5506089"><ele>192.0</ele><time>2026-04-18T14:21:00.101Z</time></trkpt><trkpt lat="36.9118323" lon="14.5505594"><ele>192.0</ele><time>2026-04-18T14:21:01.1Z</time></trkpt><trkpt lat="36.9117517" lon="14.5505104"><ele>192.0</ele><time>2026-04-18T14:21:02.1Z</time></trkpt><trkpt lat="36.9116619" lon="14.5504619"><ele>192.0</ele><time>2026-04-18T14:21:03.101Z</time></trkpt><trkpt lat="36.9115678" lon="14.5504123"><ele>191.39999999999998</ele><time>2026-04-18T14:21:04.1Z</time></trkpt><trkpt lat="36.9114639" lon="14.5503717"><ele>190.79999999999998</ele><time>2026-04-18T14:21:05.099Z</time></trkpt><trkpt lat="36.9113571" lon="14.5503418"><ele>190.2</ele><time>2026-04-18T14:21:06.1Z</time></trkpt><trkpt lat="36.9112551" lon="14.5503215"><ele>189.6</ele><time>2026-04-18T14:21:07.098Z</time></trkpt><trkpt lat="36.911159" lon="14.5503038"><ele>189.0</ele><time>2026-04-18T14:21:08.1Z</time></trkpt><trkpt lat="36.9110703" lon="14.5502879"><ele>189.0</ele><time>2026-04-18T14:21:09.099Z</time></trkpt><trkpt lat="36.9109845" lon="14.550268"><ele>189.0</ele><time>2026-04-18T14:21:10.099Z</time></trkpt><trkpt lat="36.9108964" lon="14.5502474"><ele>189.0</ele><time>2026-04-18T14:21:11.099Z</time></trkpt><trkpt lat="36.9108022" lon="14.5502266"><ele>189.0</ele><time>2026-04-18T14:21:12.1Z</time></trkpt><trkpt lat="36.9107059" lon="14.5502026"><ele>189.0</ele><time>2026-04-18T14:21:13.101Z</time></trkpt><trkpt lat="36.9106084" lon="14.5501782"><ele>189.16666666666666</ele><time>2026-04-18T14:21:14.101Z</time></trkpt><trkpt lat="36.9105152" lon="14.5501561"><ele>189.33333333333334</ele><time>2026-04-18T14:21:15.1Z</time></trkpt><trkpt lat="36.9104263" lon="14.5501397"><ele>189.5</ele><time>2026-04-18T14:21:16.1Z</time></trkpt><trkpt lat="36.9103407" lon="14.5501239"><ele>189.66666666666669</ele><time>2026-04-18T14:21:17.099Z</time></trkpt><trkpt lat="36.91026" lon="14.5501124"><ele>189.83333333333334</ele><time>2026-04-18T14:21:18.101Z</time></trkpt><trkpt lat="36.9101881" lon="14.5501057"><ele>190.0</ele><time>2026-04-18T14:21:19.1Z</time></trkpt><trkpt lat="36.9101225" lon="14.5500926"><ele>190.6</ele><time>2026-04-18T14:21:20.098Z</time></trkpt><trkpt lat="36.9100071" lon="14.5500681"><ele>191.2</ele><time>2026-04-18T14:21:22.098Z</time></trkpt><trkpt lat="36.9098997" lon="14.5500474"><ele>191.8</ele><time>2026-04-18T14:21:24.098Z</time></trkpt><trkpt lat="36.9098067" lon="14.5500355"><ele>192.4</ele><time>2026-04-18T14:21:26.1Z</time></trkpt><trkpt lat="36.9097302" lon="14.5500263"><ele>193.0</ele><time>2026-04-18T14:21:28.101Z</time></trkpt><trkpt lat="36.9096463" lon="14.5500064"><ele>192.99999999999997</ele><time>2026-04-18T14:21:31.099Z</time></trkpt><trkpt lat="36.9096109" lon="14.550096"><ele>193.0</ele><time>2026-04-18T14:21:36.097Z</time></trkpt><trkpt lat="36.9095878" lon="14.5501905"><ele>193.0</ele><time>2026-04-18T14:21:38.098Z</time></trkpt><trkpt lat="36.909565" lon="14.5502864"><ele>193.0</ele><time>2026-04-18T14:21:40.098Z</time></trkpt><trkpt lat="36.9095462" lon="14.550379"><ele>192.99999999999997</ele><time>2026-04-18T14:21:42.099Z</time></trkpt><trkpt lat="36.9095278" lon="14.550465"><ele>193.0</ele><time>2026-04-18T14:21:44.098Z</time></trkpt><trkpt lat="36.9095145" lon="14.5505442"><ele>193.71428571428572</ele><time>2026-04-18T14:21:46.11Z</time></trkpt><trkpt lat="36.9095006" lon="14.5506238"><ele>194.42857142857144</ele><time>2026-04-18T14:21:48.099Z</time></trkpt><trkpt lat="36.9094786" lon="14.5507212"><ele>195.14285714285717</ele><time>2026-04-18T14:21:50.098Z</time></trkpt><trkpt lat="36.9094512" lon="14.5508066"><ele>195.85714285714286</ele><time>2026-04-18T14:21:52.099Z</time></trkpt><trkpt lat="36.9094068" lon="14.5508859"><ele>196.57142857142856</ele><time>2026-04-18T14:21:54.1Z</time></trkpt><trkpt lat="36.9093569" lon="14.5509413"><ele>197.2857142857143</ele><time>2026-04-18T14:21:56.098Z</time></trkpt><trkpt lat="36.909314" lon="14.5510196"><ele>198.0</ele><time>2026-04-18T14:21:58.098Z</time></trkpt><trkpt lat="36.9092808" lon="14.5510913"><ele>198.0</ele><time>2026-04-18T14:22:00.097Z</time></trkpt><trkpt lat="36.9092491" lon="14.5511764"><ele>198.0</ele><time>2026-04-18T14:22:02.098Z</time></trkpt><trkpt lat="36.9092156" lon="14.5512653"><ele>198.0</ele><time>2026-04-18T14:22:04.098Z</time></trkpt><trkpt lat="36.9091895" lon="14.5513652"><ele>198.0</ele><time>2026-04-18T14:22:07.097Z</time></trkpt><trkpt lat="36.9091872" lon="14.5514891"><ele>198.0</ele><time>2026-04-18T14:22:30.098Z</time></trkpt><trkpt lat="36.9091667" lon="14.5515741"><ele>198.0</ele><time>2026-04-18T14:22:32.096Z</time></trkpt><trkpt lat="36.9091371" lon="14.5516643"><ele>199.66666666666666</ele><time>2026-04-18T14:22:34.097Z</time></trkpt><trkpt lat="36.9091049" lon="14.5517524"><ele>201.33333333333331</ele><time>2026-04-18T14:22:36.098Z</time></trkpt><trkpt lat="36.9090639" lon="14.5518307"><ele>203.0</ele><time>2026-04-18T14:22:38.099Z</time></trkpt><trkpt lat="36.9090244" lon="14.551909"><ele>204.66666666666666</ele><time>2026-04-18T14:22:40.099Z</time></trkpt><trkpt lat="36.9089829" lon="14.5519916"><ele>206.33333333333331</ele><time>2026-04-18T14:22:42.1Z</time></trkpt><trkpt lat="36.9089428" lon="14.5520938"><ele>208.0</ele><time>2026-04-18T14:22:45.101Z</time></trkpt><trkpt lat="36.9089081" lon="14.552183"><ele>209.49999999999997</ele><time>2026-04-18T14:22:48.098Z</time></trkpt><trkpt lat="36.9088753" lon="14.5522685"><ele>211.0</ele><time>2026-04-18T14:22:51.1Z</time></trkpt><trkpt lat="36.9088312" lon="14.5523483"><ele>212.5</ele><time>2026-04-18T14:23:01.098Z</time></trkpt><trkpt lat="36.9087947" lon="14.5524544"><ele>214.0</ele><time>2026-04-18T14:23:04.1Z</time></trkpt><trkpt lat="36.9088154" lon="14.5525379"><ele>215.49999999999997</ele><time>2026-04-18T14:23:06.1Z</time></trkpt><trkpt lat="36.9088427" lon="14.5526416"><ele>217.0</ele><time>2026-04-18T14:23:08.099Z</time></trkpt><trkpt lat="36.9088739" lon="14.5527633"><ele>216.99999999999997</ele><time>2026-04-18T14:23:10.099Z</time></trkpt><trkpt lat="36.9088943" lon="14.5528624"><ele>217.0</ele><time>2026-04-18T14:23:12.097Z</time></trkpt><trkpt lat="36.9088827" lon="14.5529457"><ele>217.0</ele><time>2026-04-18T14:23:14.097Z</time></trkpt><trkpt lat="36.9088886" lon="14.5530414"><ele>217.0</ele><time>2026-04-18T14:23:16.098Z</time></trkpt><trkpt lat="36.9088696" lon="14.5531539"><ele>216.99999999999997</ele><time>2026-04-18T14:23:19.099Z</time></trkpt><trkpt lat="36.908871" lon="14.5532329"><ele>217.0</ele><time>2026-04-18T14:23:21.099Z</time></trkpt><trkpt lat="36.9088555" lon="14.5533295"><ele>219.33333333333331</ele><time>2026-04-18T14:23:23.098Z</time></trkpt><trkpt lat="36.9088452" lon="14.5534307"><ele>221.66666666666666</ele><time>2026-04-18T14:23:25.099Z</time></trkpt><trkpt lat="36.9088097" lon="14.5535434"><ele>224.0</ele><time>2026-04-18T14:23:48.098Z</time></trkpt><trkpt lat="36.9088143" lon="14.5536343"><ele>226.33333333333331</ele><time>2026-04-18T14:23:50.098Z</time></trkpt><trkpt lat="36.9088636" lon="14.5536976"><ele>228.66666666666666</ele><time>2026-04-18T14:23:52.098Z</time></trkpt><trkpt lat="36.9089326" lon="14.5537338"><ele>231.0</ele><time>2026-04-18T14:23:55.098Z</time></trkpt><trkpt lat="36.9089482" lon="14.553834"><ele>233.33333333333334</ele><time>2026-04-18T14:24:10.097Z</time></trkpt><trkpt lat="36.9089537" lon="14.5539318"><ele>235.66666666666669</ele><time>2026-04-18T14:24:12.098Z</time></trkpt><trkpt lat="36.9088993" lon="14.554032"><ele>238.0</ele><time>2026-04-18T14:24:15.099Z</time></trkpt><trkpt lat="36.9088531" lon="14.5541088"><ele>240.33333333333334</ele><time>2026-04-18T14:24:17.1Z</time></trkpt><trkpt lat="36.9088102" lon="14.5541843"><ele>242.66666666666669</ele><time>2026-04-18T14:24:19.098Z</time></trkpt><trkpt lat="36.9087514" lon="14.5542412"><ele>245.0</ele><time>2026-04-18T14:24:21.097Z</time></trkpt><trkpt lat="36.9086936" lon="14.5542767"><ele>245.0</ele><time>2026-04-18T14:24:23.1Z</time></trkpt><trkpt lat="36.908619" lon="14.5543076"><ele>245.0</ele><time>2026-04-18T14:24:26.097Z</time></trkpt><trkpt lat="36.908563" lon="14.5543647"><ele>245.0</ele><time>2026-04-18T14:24:28.099Z</time></trkpt><trkpt lat="36.9085903" lon="14.5544565"><ele>245.0</ele><time>2026-04-18T14:24:33.1Z</time></trkpt><trkpt lat="36.908613" lon="14.5545456"><ele>245.0</ele><time>2026-04-18T14:24:36.098Z</time></trkpt><trkpt lat="36.9086377" lon="14.5546217"><ele>245.0</ele><time>2026-04-18T14:24:38.096Z</time></trkpt><trkpt lat="36.908667" lon="14.5546983"><ele>245.0</ele><time>2026-04-18T14:24:40.098Z</time></trkpt><trkpt lat="36.9087215" lon="14.5547541"><ele>248.50000000000003</ele><time>2026-04-18T14:24:42.1Z</time></trkpt><trkpt lat="36.9087826" lon="14.5547973"><ele>252.0</ele><time>2026-04-18T14:24:44.097Z</time></trkpt><trkpt lat="36.9088325" lon="14.5548552"><ele>255.5</ele><time>2026-04-18T14:24:47.097Z</time></trkpt><trkpt lat="36.9088396" lon="14.5549363"><ele>259.0</ele><time>2026-04-18T14:24:50.101Z</time></trkpt><trkpt lat="36.9088386" lon="14.5550707"><ele>262.5</ele><time>2026-04-18T14:25:14.096Z</time></trkpt><trkpt lat="36.9088074" lon="14.5551678"><ele>266.0</ele><time>2026-04-18T14:25:17.098Z</time></trkpt><trkpt lat="36.9088063" lon="14.5552549"><ele>266.0</ele><time>2026-04-18T14:25:19.098Z</time></trkpt><trkpt lat="36.9087722" lon="14.5553341"><ele>266.0</ele><time>2026-04-18T14:25:22.099Z</time></trkpt><trkpt lat="36.9087094" lon="14.5554148"><ele>266.0</ele><time>2026-04-18T14:27:23.098Z</time></trkpt><trkpt lat="36.9085953" lon="14.5554999"><ele>266.0</ele><time>2026-04-18T14:28:49.099Z</time></trkpt><trkpt lat="36.9085328" lon="14.5555481"><ele>266.0</ele><time>2026-04-18T14:28:51.098Z</time></trkpt><trkpt lat="36.9084745" lon="14.5555961"><ele>266.0</ele><time>2026-04-18T14:28:54.099Z</time></trkpt><trkpt lat="36.908425" lon="14.5556633"><ele>270.33333333333337</ele><time>2026-04-18T14:28:56.099Z</time></trkpt><trkpt lat="36.9083759" lon="14.5557505"><ele>274.6666666666667</ele><time>2026-04-18T14:28:59.1Z</time></trkpt><trkpt lat="36.9083234" lon="14.5558489"><ele>279.0</ele><time>2026-04-18T14:29:02.1Z</time></trkpt><trkpt lat="36.9082873" lon="14.5559309"><ele>283.3333333333333</ele><time>2026-04-18T14:29:04.101Z</time></trkpt><trkpt lat="36.9082412" lon="14.5560368"><ele>287.66666666666663</ele><time>2026-04-18T14:29:07.099Z</time></trkpt><trkpt lat="36.9081943" lon="14.5561188"><ele>292.0</ele><time>2026-04-18T14:29:09.101Z</time></trkpt><trkpt lat="36.9081586" lon="14.5562004"><ele>293.5</ele><time>2026-04-18T14:29:11.099Z</time></trkpt><trkpt lat="36.9080998" lon="14.5562829"><ele>295.0</ele><time>2026-04-18T14:29:55.099Z</time></trkpt><trkpt lat="36.908113" lon="14.5563741"><ele>296.5</ele><time>2026-04-18T14:32:45.099Z</time></trkpt><trkpt lat="36.9081301" lon="14.556459"><ele>298.0</ele><time>2026-04-18T14:32:48.099Z</time></trkpt><trkpt lat="36.9082586" lon="14.5567929"><ele>298.0</ele><time>2026-04-18T14:34:08.1Z</time></trkpt><trkpt lat="36.9083142" lon="14.5569261"><ele>298.0</ele><time>2026-04-18T14:34:09.099Z</time></trkpt><trkpt lat="36.9083717" lon="14.5570589"><ele>298.0</ele><time>2026-04-18T14:34:10.1Z</time></trkpt><trkpt lat="36.908428" lon="14.5571926"><ele>298.0</ele><time>2026-04-18T14:34:11.099Z</time></trkpt><trkpt lat="36.9084838" lon="14.557325"><ele>298.8</ele><time>2026-04-18T14:34:12.099Z</time></trkpt><trkpt lat="36.9085398" lon="14.5574601"><ele>299.6</ele><time>2026-04-18T14:34:13.098Z</time></trkpt><trkpt lat="36.9085922" lon="14.5575923"><ele>300.4</ele><time>2026-04-18T14:34:14.099Z</time></trkpt><trkpt lat="36.9086437" lon="14.5577135"><ele>301.2</ele><time>2026-04-18T14:34:15.099Z</time></trkpt><trkpt lat="36.9086944" lon="14.5578184"><ele>302.0</ele><time>2026-04-18T14:34:16.099Z</time></trkpt><trkpt lat="36.9087348" lon="14.5579036"><ele>302.6</ele><time>2026-04-18T14:34:17.097Z</time></trkpt><trkpt lat="36.9087716" lon="14.5579773"><ele>303.2</ele><time>2026-04-18T14:34:18.099Z</time></trkpt><trkpt lat="36.90884" lon="14.5580929"><ele>303.8</ele><time>2026-04-18T14:34:20.1Z</time></trkpt><trkpt lat="36.9089098" lon="14.5582248"><ele>304.4</ele><time>2026-04-18T14:34:22.099Z</time></trkpt><trkpt lat="36.9089532" lon="14.5583078"><ele>305.0</ele><time>2026-04-18T14:34:23.098Z</time></trkpt><trkpt lat="36.9089985" lon="14.558401"><ele>305.0</ele><time>2026-04-18T14:34:24.1Z</time></trkpt><trkpt lat="36.909043" lon="14.5584991"><ele>305.0</ele><time>2026-04-18T14:34:25.099Z</time></trkpt><trkpt lat="36.9090822" lon="14.5585979"><ele>305.0</ele><time>2026-04-18T14:34:26.099Z</time></trkpt><trkpt lat="36.9091034" lon="14.5586973"><ele>305.0</ele><time>2026-04-18T14:34:27.097Z</time></trkpt><trkpt lat="36.9090977" lon="14.5588058"><ele>305.0</ele><time>2026-04-18T14:34:28.1Z</time></trkpt><trkpt lat="36.9090426" lon="14.5589165"><ele>306.2</ele><time>2026-04-18T14:34:29.098Z</time></trkpt><trkpt lat="36.9089711" lon="14.5590161"><ele>307.4</ele><time>2026-04-18T14:34:30.099Z</time></trkpt><trkpt lat="36.9089029" lon="14.5591154"><ele>308.6</ele><time>2026-04-18T14:34:31.098Z</time></trkpt><trkpt lat="36.9088367" lon="14.5592233"><ele>309.8</ele><time>2026-04-18T14:34:32.098Z</time></trkpt><trkpt lat="36.9087765" lon="14.5593387"><ele>311.0</ele><time>2026-04-18T14:34:33.1Z</time></trkpt><trkpt lat="36.9087149" lon="14.5594492"><ele>312.8</ele><time>2026-04-18T14:34:34.098Z</time></trkpt><trkpt lat="36.9086508" lon="14.5595615"><ele>314.6</ele><time>2026-04-18T14:34:35.1Z</time></trkpt><trkpt lat="36.9085923" lon="14.5596738"><ele>316.4</ele><time>2026-04-18T14:34:36.099Z</time></trkpt><trkpt lat="36.9085563" lon="14.5597767"><ele>318.2</ele><time>2026-04-18T14:34:37.099Z</time></trkpt><trkpt lat="36.9085501" lon="14.5598759"><ele>320.0</ele><time>2026-04-18T14:34:38.101Z</time></trkpt><trkpt lat="36.9085769" lon="14.5599805"><ele>320.0</ele><time>2026-04-18T14:34:39.1Z</time></trkpt><trkpt lat="36.9086346" lon="14.5600749"><ele>320.0</ele><time>2026-04-18T14:34:40.101Z</time></trkpt><trkpt lat="36.9087085" lon="14.5601618"><ele>320.0</ele><time>2026-04-18T14:34:41.098Z</time></trkpt><trkpt lat="36.9087817" lon="14.5602538"><ele>320.0</ele><time>2026-04-18T14:34:42.1Z</time></trkpt><trkpt lat="36.908861" lon="14.560352"><ele>320.0</ele><time>2026-04-18T14:34:43.097Z</time></trkpt><trkpt lat="36.9089421" lon="14.5604538"><ele>321.25</ele><time>2026-04-18T14:34:44.098Z</time></trkpt><trkpt lat="36.9090315" lon="14.5605586"><ele>322.5</ele><time>2026-04-18T14:34:45.098Z</time></trkpt><trkpt lat="36.9091221" lon="14.5606645"><ele>323.75</ele><time>2026-04-18T14:34:46.097Z</time></trkpt><trkpt lat="36.909212" lon="14.560773"><ele>325.0</ele><time>2026-04-18T14:34:47.099Z</time></trkpt><trkpt lat="36.9093069" lon="14.5608881"><ele>325.0</ele><time>2026-04-18T14:34:48.098Z</time></trkpt><trkpt lat="36.9093989" lon="14.5610085"><ele>325.0</ele><time>2026-04-18T14:34:49.098Z</time></trkpt><trkpt lat="36.9094761" lon="14.5611384"><ele>325.0</ele><time>2026-04-18T14:34:50.098Z</time></trkpt><trkpt lat="36.9095458" lon="14.5612812"><ele>325.0</ele><time>2026-04-18T14:34:51.099Z</time></trkpt><trkpt lat="36.9096044" lon="14.5614276"><ele>328.0</ele><time>2026-04-18T14:34:52.097Z</time></trkpt><trkpt lat="36.9096637" lon="14.5615711"><ele>331.0</ele><time>2026-04-18T14:34:53.099Z</time></trkpt><trkpt lat="36.9097275" lon="14.5617139"><ele>334.0</ele><time>2026-04-18T14:34:54.099Z</time></trkpt><trkpt lat="36.9097945" lon="14.5618517"><ele>337.0</ele><time>2026-04-18T14:34:55.099Z</time></trkpt><trkpt lat="36.9098707" lon="14.5619783"><ele>339.0</ele><time>2026-04-18T14:34:56.101Z</time></trkpt><trkpt lat="36.9099622" lon="14.5620847"><ele>341.0</ele><time>2026-04-18T14:34:57.099Z</time></trkpt><trkpt lat="36.9100751" lon="14.5621644"><ele>343.0</ele><time>2026-04-18T14:34:58.098Z</time></trkpt><trkpt lat="36.9102024" lon="14.5622218"><ele>345.0</ele><time>2026-04-18T14:34:59.1Z</time></trkpt><trkpt lat="36.9103333" lon="14.5622769"><ele>345.0</ele><time>2026-04-18T14:35:00.098Z</time></trkpt><trkpt lat="36.9104646" lon="14.562334"><ele>345.0</ele><time>2026-04-18T14:35:01.099Z</time></trkpt><trkpt lat="36.9105907" lon="14.5623957"><ele>345.0</ele><time>2026-04-18T14:35:02.099Z</time></trkpt><trkpt lat="36.9107176" lon="14.5624594"><ele>345.0</ele><time>2026-04-18T14:35:03.1Z</time></trkpt><trkpt lat="36.9108437" lon="14.5625218"><ele>343.25</ele><time>2026-04-18T14:35:04.097Z</time></trkpt><trkpt lat="36.9109751" lon="14.5625772"><ele>341.5</ele><time>2026-04-18T14:35:05.098Z</time></trkpt><trkpt lat="36.9111108" lon="14.5626255"><ele>339.75</ele><time>2026-04-18T14:35:06.099Z</time></trkpt><trkpt lat="36.9112432" lon="14.5626694"><ele>338.0</ele><time>2026-04-18T14:35:07.1Z</time></trkpt><trkpt lat="36.9113738" lon="14.5627165"><ele>338.0</ele><time>2026-04-18T14:35:08.1Z</time></trkpt><trkpt lat="36.911502" lon="14.5627706"><ele>338.0</ele><time>2026-04-18T14:35:09.099Z</time></trkpt><trkpt lat="36.9116248" lon="14.562833"><ele>338.0</ele><time>2026-04-18T14:35:10.099Z</time></trkpt><trkpt lat="36.9117395" lon="14.5629104"><ele>338.0</ele><time>2026-04-18T14:35:11.099Z</time></trkpt><trkpt lat="36.9118388" lon="14.5630057"><ele>339.0</ele><time>2026-04-18T14:35:12.1Z</time></trkpt><trkpt lat="36.9119228" lon="14.5630999"><ele>340.0</ele><time>2026-04-18T14:35:13.098Z</time></trkpt><trkpt lat="36.9119935" lon="14.5631797"><ele>341.0</ele><time>2026-04-18T14:35:14.099Z</time></trkpt><trkpt lat="36.9120464" lon="14.5632469"><ele>342.0</ele><time>2026-04-18T14:35:15.1Z</time></trkpt><trkpt lat="36.9120866" lon="14.5633088"><ele>343.0</ele><time>2026-04-18T14:35:16.097Z</time></trkpt><trkpt lat="36.9120509" lon="14.563379"><ele>344.0</ele><time>2026-04-18T14:35:26.099Z</time></trkpt><trkpt lat="36.9119492" lon="14.5633383"><ele>344.0</ele><time>2026-04-18T14:35:28.098Z</time></trkpt><trkpt lat="36.911864" lon="14.5633077"><ele>344.0</ele><time>2026-04-18T14:35:29.1Z</time></trkpt><trkpt lat="36.9117612" lon="14.5632889"><ele>344.0</ele><time>2026-04-18T14:35:30.096Z</time></trkpt><trkpt lat="36.9116453" lon="14.5632941"><ele>344.0</ele><time>2026-04-18T14:35:31.098Z</time></trkpt><trkpt lat="36.9115362" lon="14.5633107"><ele>344.0</ele><time>2026-04-18T14:35:32.097Z</time></trkpt><trkpt lat="36.9114293" lon="14.5633338"><ele>346.4</ele><time>2026-04-18T14:35:33.098Z</time></trkpt><trkpt lat="36.9113211" lon="14.5633594"><ele>348.79999999999995</ele><time>2026-04-18T14:35:34.099Z</time></trkpt><trkpt lat="36.9112217" lon="14.5634048"><ele>351.20000000000005</ele><time>2026-04-18T14:35:35.098Z</time></trkpt><trkpt lat="36.911135" lon="14.5634856"><ele>353.6</ele><time>2026-04-18T14:35:36.096Z</time></trkpt><trkpt lat="36.911052" lon="14.5635876"><ele>356.0</ele><time>2026-04-18T14:35:37.098Z</time></trkpt><trkpt lat="36.9109725" lon="14.5636968"><ele>358.5</ele><time>2026-04-18T14:35:38.103Z</time></trkpt><trkpt lat="36.9108921" lon="14.5638095"><ele>361.0</ele><time>2026-04-18T14:35:39.099Z</time></trkpt><trkpt lat="36.9108167" lon="14.5639352"><ele>363.5</ele><time>2026-04-18T14:35:40.099Z</time></trkpt><trkpt lat="36.910747" lon="14.5640708"><ele>366.0</ele><time>2026-04-18T14:35:41.098Z</time></trkpt><trkpt lat="36.9106781" lon="14.5642186"><ele>366.0</ele><time>2026-04-18T14:35:42.098Z</time></trkpt><trkpt lat="36.9106079" lon="14.5643641"><ele>366.0</ele><time>2026-04-18T14:35:43.098Z</time></trkpt><trkpt lat="36.9105426" lon="14.5644906"><ele>366.0</ele><time>2026-04-18T14:35:44.098Z</time></trkpt><trkpt lat="36.9104811" lon="14.5646012"><ele>366.0</ele><time>2026-04-18T14:35:45.098Z</time></trkpt><trkpt lat="36.9104279" lon="14.5646979"><ele>366.20000000000005</ele><time>2026-04-18T14:35:46.099Z</time></trkpt><trkpt lat="36.9103846" lon="14.5647846"><ele>366.40000000000003</ele><time>2026-04-18T14:35:47.098Z</time></trkpt><trkpt lat="36.9103532" lon="14.5648661"><ele>366.6</ele><time>2026-04-18T14:35:48.098Z</time></trkpt><trkpt lat="36.9103199" lon="14.5650219"><ele>366.8</ele><time>2026-04-18T14:35:50.099Z</time></trkpt><trkpt lat="36.9103171" lon="14.5651238"><ele>367.0</ele><time>2026-04-18T14:35:51.099Z</time></trkpt><trkpt lat="36.9103265" lon="14.5652462"><ele>367.5</ele><time>2026-04-18T14:35:52.098Z</time></trkpt><trkpt lat="36.9103412" lon="14.5653855"><ele>368.0</ele><time>2026-04-18T14:35:53.099Z</time></trkpt><trkpt lat="36.9103579" lon="14.5655295"><ele>368.5</ele><time>2026-04-18T14:35:54.099Z</time></trkpt><trkpt lat="36.9103756" lon="14.5656819"><ele>369.0</ele><time>2026-04-18T14:35:55.1Z</time></trkpt><trkpt lat="36.9103927" lon="14.5658354"><ele>369.0</ele><time>2026-04-18T14:35:56.098Z</time></trkpt><trkpt lat="36.9104183" lon="14.5659877"><ele>369.0</ele><time>2026-04-18T14:35:57.099Z</time></trkpt><trkpt lat="36.9104698" lon="14.5661252"><ele>369.0</ele><time>2026-04-18T14:35:58.1Z</time></trkpt><trkpt lat="36.9105546" lon="14.5662392"><ele>369.0</ele><time>2026-04-18T14:35:59.099Z</time></trkpt><trkpt lat="36.9106571" lon="14.5663474"><ele>369.25</ele><time>2026-04-18T14:36:00.098Z</time></trkpt><trkpt lat="36.9107651" lon="14.5664547"><ele>369.5</ele><time>2026-04-18T14:36:01.099Z</time></trkpt><trkpt lat="36.9108759" lon="14.566566"><ele>369.75</ele><time>2026-04-18T14:36:02.1Z</time></trkpt><trkpt lat="36.9109873" lon="14.5666801"><ele>370.0</ele><time>2026-04-18T14:36:03.099Z</time></trkpt><trkpt lat="36.9110996" lon="14.5667962"><ele>370.0</ele><time>2026-04-18T14:36:04.1Z</time></trkpt><trkpt lat="36.9112112" lon="14.5669143"><ele>370.0</ele><time>2026-04-18T14:36:05.099Z</time></trkpt><trkpt lat="36.9113226" lon="14.5670307"><ele>370.0</ele><time>2026-04-18T14:36:06.097Z</time></trkpt><trkpt lat="36.9114384" lon="14.5671439"><ele>370.0</ele><time>2026-04-18T14:36:07.098Z</time></trkpt><trkpt lat="36.9115609" lon="14.567254"><ele>370.75</ele><time>2026-04-18T14:36:08.099Z</time></trkpt><trkpt lat="36.9116829" lon="14.5673586"><ele>371.5</ele><time>2026-04-18T14:36:09.1Z</time></trkpt><trkpt lat="36.9118089" lon="14.5674614"><ele>372.25</ele><time>2026-04-18T14:36:10.099Z</time></trkpt><trkpt lat="36.9119315" lon="14.567567"><ele>373.0</ele><time>2026-04-18T14:36:11.099Z</time></trkpt><trkpt lat="36.9120553" lon="14.5676721"><ele>373.0</ele><time>2026-04-18T14:36:12.098Z</time></trkpt><trkpt lat="36.9121795" lon="14.5677783"><ele>373.0</ele><time>2026-04-18T14:36:13.098Z</time></trkpt><trkpt lat="36.9122987" lon="14.5678832"><ele>373.0</ele><time>2026-04-18T14:36:14.099Z</time></trkpt><trkpt lat="36.9124159" lon="14.5679839"><ele>373.0</ele><time>2026-04-18T14:36:15.1Z</time></trkpt><trkpt lat="36.9125277" lon="14.5680832"><ele>374.0</ele><time>2026-04-18T14:36:16.099Z</time></trkpt><trkpt lat="36.9126417" lon="14.5681813"><ele>375.0</ele><time>2026-04-18T14:36:17.099Z</time></trkpt><trkpt lat="36.9127525" lon="14.5682741"><ele>376.0</ele><time>2026-04-18T14:36:18.098Z</time></trkpt><trkpt lat="36.912856" lon="14.5683589"><ele>377.0</ele><time>2026-04-18T14:36:19.1Z</time></trkpt><trkpt lat="36.9129552" lon="14.5684402"><ele>377.0</ele><time>2026-04-18T14:36:20.099Z</time></trkpt><trkpt lat="36.9130451" lon="14.568516"><ele>377.0</ele><time>2026-04-18T14:36:21.099Z</time></trkpt><trkpt lat="36.9131194" lon="14.5685912"><ele>377.0</ele><time>2026-04-18T14:36:22.097Z</time></trkpt><trkpt lat="36.9131745" lon="14.5686693"><ele>377.0</ele><time>2026-04-18T14:36:23.1Z</time></trkpt><trkpt lat="36.9132086" lon="14.568742"><ele>377.0</ele><time>2026-04-18T14:36:24.098Z</time></trkpt><trkpt lat="36.9132052" lon="14.568827"><ele>377.0</ele><time>2026-04-18T14:36:26.097Z</time></trkpt><trkpt lat="36.9131315" lon="14.5688464"><ele>379.0</ele><time>2026-04-18T14:37:01.098Z</time></trkpt><trkpt lat="36.9130236" lon="14.5688855"><ele>381.0</ele><time>2026-04-18T14:37:03.099Z</time></trkpt><trkpt lat="36.9129662" lon="14.5689523"><ele>383.0</ele><time>2026-04-18T14:37:04.099Z</time></trkpt><trkpt lat="36.9129359" lon="14.5690606"><ele>385.0</ele><time>2026-04-18T14:37:05.1Z</time></trkpt><trkpt lat="36.9129205" lon="14.5691901"><ele>387.0</ele><time>2026-04-18T14:37:06.097Z</time></trkpt><trkpt lat="36.9129099" lon="14.5693347"><ele>387.0</ele><time>2026-04-18T14:37:07.098Z</time></trkpt><trkpt lat="36.9129099" lon="14.5695019"><ele>387.0</ele><time>2026-04-18T14:37:08.098Z</time></trkpt><trkpt lat="36.9129199" lon="14.5696727"><ele>387.0</ele><time>2026-04-18T14:37:09.1Z</time></trkpt><trkpt lat="36.912932" lon="14.5698539"><ele>387.0</ele><time>2026-04-18T14:37:10.099Z</time></trkpt><trkpt lat="36.9129416" lon="14.5700439"><ele>387.0</ele><time>2026-04-18T14:37:11.099Z</time></trkpt><trkpt lat="36.9129473" lon="14.57024"><ele>387.0</ele><time>2026-04-18T14:37:12.097Z</time></trkpt><trkpt lat="36.9129503" lon="14.5704408"><ele>387.0</ele><time>2026-04-18T14:37:13.101Z</time></trkpt><trkpt lat="36.9129512" lon="14.5706428"><ele>387.75</ele><time>2026-04-18T14:37:14.099Z</time></trkpt><trkpt lat="36.9129509" lon="14.5708357"><ele>388.5</ele><time>2026-04-18T14:37:15.099Z</time></trkpt><trkpt lat="36.9129507" lon="14.5710071"><ele>389.25</ele><time>2026-04-18T14:37:16.099Z</time></trkpt><trkpt lat="36.9129517" lon="14.5711598"><ele>390.0</ele><time>2026-04-18T14:37:17.097Z</time></trkpt><trkpt lat="36.912954" lon="14.5712963"><ele>390.4</ele><time>2026-04-18T14:37:18.098Z</time></trkpt><trkpt lat="36.9129599" lon="14.5714273"><ele>390.8</ele><time>2026-04-18T14:37:19.098Z</time></trkpt><trkpt lat="36.9129719" lon="14.5715598"><ele>391.20000000000005</ele><time>2026-04-18T14:37:20.098Z</time></trkpt><trkpt lat="36.9129876" lon="14.5716998"><ele>391.6</ele><time>2026-04-18T14:37:21.099Z</time></trkpt><trkpt lat="36.9130048" lon="14.5718437"><ele>392.0</ele><time>2026-04-18T14:37:22.097Z</time></trkpt><trkpt lat="36.9130236" lon="14.5719877"><ele>392.25</ele><time>2026-04-18T14:37:23.1Z</time></trkpt><trkpt lat="36.913051" lon="14.5721352"><ele>392.5</ele><time>2026-04-18T14:37:24.099Z</time></trkpt><trkpt lat="36.9130881" lon="14.5722879"><ele>392.75</ele><time>2026-04-18T14:37:25.099Z</time></trkpt><trkpt lat="36.9131251" lon="14.5724418"><ele>393.0</ele><time>2026-04-18T14:37:26.098Z</time></trkpt><trkpt lat="36.9131642" lon="14.5725982"><ele>393.0</ele><time>2026-04-18T14:37:27.1Z</time></trkpt><trkpt lat="36.913204" lon="14.5727582"><ele>393.0</ele><time>2026-04-18T14:37:28.099Z</time></trkpt><trkpt lat="36.9132403" lon="14.5729226"><ele>393.0</ele><time>2026-04-18T14:37:29.1Z</time></trkpt><trkpt lat="36.9132714" lon="14.5730915"><ele>393.0</ele><time>2026-04-18T14:37:30.097Z</time></trkpt><trkpt lat="36.9133004" lon="14.5732658"><ele>393.0</ele><time>2026-04-18T14:37:31.1Z</time></trkpt><trkpt lat="36.9133343" lon="14.573446"><ele>393.0</ele><time>2026-04-18T14:37:32.098Z</time></trkpt><trkpt lat="36.913368" lon="14.5736284"><ele>393.0</ele><time>2026-04-18T14:37:33.1Z</time></trkpt><trkpt lat="36.913402" lon="14.5738123"><ele>393.0</ele><time>2026-04-18T14:37:34.098Z</time></trkpt><trkpt lat="36.9134359" lon="14.573997"><ele>393.33333333333337</ele><time>2026-04-18T14:37:35.098Z</time></trkpt><trkpt lat="36.9134703" lon="14.5741827"><ele>393.6666666666667</ele><time>2026-04-18T14:37:36.1Z</time></trkpt><trkpt lat="36.9135047" lon="14.5743746"><ele>394.0</ele><time>2026-04-18T14:37:37.098Z</time></trkpt><trkpt lat="36.9135422" lon="14.5745676"><ele>394.0</ele><time>2026-04-18T14:37:38.098Z</time></trkpt><trkpt lat="36.9135776" lon="14.5747602"><ele>394.0</ele><time>2026-04-18T14:37:39.099Z</time></trkpt><trkpt lat="36.9136105" lon="14.5749458"><ele>394.0</ele><time>2026-04-18T14:37:40.101Z</time></trkpt><trkpt lat="36.9136424" lon="14.5751178"><ele>394.0</ele><time>2026-04-18T14:37:41.098Z</time></trkpt><trkpt lat="36.9136725" lon="14.5752727"><ele>394.0</ele><time>2026-04-18T14:37:42.1Z</time></trkpt><trkpt lat="36.9136972" lon="14.5754138"><ele>394.0</ele><time>2026-04-18T14:37:43.099Z</time></trkpt><trkpt lat="36.9137203" lon="14.5755354"><ele>394.0</ele><time>2026-04-18T14:37:44.098Z</time></trkpt><trkpt lat="36.9137452" lon="14.5756337"><ele>394.0</ele><time>2026-04-18T14:37:45.099Z</time></trkpt><trkpt lat="36.9137879" lon="14.575699"><ele>394.2</ele><time>2026-04-18T14:37:46.099Z</time></trkpt><trkpt lat="36.9138388" lon="14.5757463"><ele>394.4</ele><time>2026-04-18T14:37:47.099Z</time></trkpt><trkpt lat="36.9139228" lon="14.5757725"><ele>394.6</ele><time>2026-04-18T14:37:48.097Z</time></trkpt><trkpt lat="36.9140315" lon="14.5757965"><ele>394.8</ele><time>2026-04-18T14:37:49.099Z</time></trkpt><trkpt lat="36.9141469" lon="14.5758184"><ele>395.0</ele><time>2026-04-18T14:37:50.099Z</time></trkpt><trkpt lat="36.9142768" lon="14.5758369"><ele>394.0</ele><time>2026-04-18T14:37:51.1Z</time></trkpt><trkpt lat="36.9144135" lon="14.5758549"><ele>393.0</ele><time>2026-04-18T14:37:52.099Z</time></trkpt><trkpt lat="36.9145548" lon="14.5758755"><ele>392.0</ele><time>2026-04-18T14:37:53.099Z</time></trkpt><trkpt lat="36.9146999" lon="14.5758906"><ele>391.0</ele><time>2026-04-18T14:37:54.099Z</time></trkpt><trkpt lat="36.9148391" lon="14.5758967"><ele>391.0</ele><time>2026-04-18T14:37:55.1Z</time></trkpt><trkpt lat="36.914976" lon="14.5758956"><ele>391.0</ele><time>2026-04-18T14:37:56.098Z</time></trkpt><trkpt lat="36.9151058" lon="14.5758923"><ele>391.0</ele><time>2026-04-18T14:37:57.099Z</time></trkpt><trkpt lat="36.9152313" lon="14.5758875"><ele>391.0</ele><time>2026-04-18T14:37:58.098Z</time></trkpt><trkpt lat="36.9153538" lon="14.5758819"><ele>388.75</ele><time>2026-04-18T14:37:59.099Z</time></trkpt><trkpt lat="36.9154756" lon="14.5758789"><ele>386.5</ele><time>2026-04-18T14:38:00.098Z</time></trkpt><trkpt lat="36.9155966" lon="14.5758781"><ele>384.25</ele><time>2026-04-18T14:38:01.099Z</time></trkpt><trkpt lat="36.9157201" lon="14.5758787"><ele>382.0</ele><time>2026-04-18T14:38:02.098Z</time></trkpt><trkpt lat="36.9158473" lon="14.5758795"><ele>377.75</ele><time>2026-04-18T14:38:03.101Z</time></trkpt><trkpt lat="36.9159736" lon="14.5758853"><ele>373.5</ele><time>2026-04-18T14:38:04.1Z</time></trkpt><trkpt lat="36.9160993" lon="14.5758978"><ele>369.25</ele><time>2026-04-18T14:38:05.099Z</time></trkpt><trkpt lat="36.9162244" lon="14.5759188"><ele>365.0</ele><time>2026-04-18T14:38:06.098Z</time></trkpt><trkpt lat="36.9163518" lon="14.575947"><ele>365.0</ele><time>2026-04-18T14:38:07.099Z</time></trkpt><trkpt lat="36.9164811" lon="14.5759754"><ele>365.0</ele><time>2026-04-18T14:38:08.097Z</time></trkpt><trkpt lat="36.9166131" lon="14.5759976"><ele>365.0</ele><time>2026-04-18T14:38:09.1Z</time></trkpt><trkpt lat="36.9167503" lon="14.5760174"><ele>365.0</ele><time>2026-04-18T14:38:10.098Z</time></trkpt><trkpt lat="36.9168845" lon="14.5760427"><ele>361.0</ele><time>2026-04-18T14:38:11.097Z</time></trkpt><trkpt lat="36.9170192" lon="14.5760682"><ele>357.0</ele><time>2026-04-18T14:38:12.098Z</time></trkpt><trkpt lat="36.9171598" lon="14.5760964"><ele>353.0</ele><time>2026-04-18T14:38:13.099Z</time></trkpt><trkpt lat="36.9173053" lon="14.5761212"><ele>349.0</ele><time>2026-04-18T14:38:14.099Z</time></trkpt><trkpt lat="36.9174477" lon="14.5761417"><ele>345.66666666666663</ele><time>2026-04-18T14:38:15.1Z</time></trkpt><trkpt lat="36.9175942" lon="14.5761558"><ele>342.3333333333333</ele><time>2026-04-18T14:38:16.101Z</time></trkpt><trkpt lat="36.9177615" lon="14.5761625"><ele>339.0</ele><time>2026-04-18T14:38:17.1Z</time></trkpt><trkpt lat="36.917936" lon="14.5761634"><ele>339.0</ele><time>2026-04-18T14:38:18.098Z</time></trkpt><trkpt lat="36.9181061" lon="14.5761626"><ele>339.0</ele><time>2026-04-18T14:38:19.1Z</time></trkpt><trkpt lat="36.9182723" lon="14.5761661"><ele>339.0</ele><time>2026-04-18T14:38:20.098Z</time></trkpt><trkpt lat="36.9184349" lon="14.5761724"><ele>336.6666666666667</ele><time>2026-04-18T14:38:21.098Z</time></trkpt><trkpt lat="36.9185928" lon="14.5761814"><ele>334.33333333333337</ele><time>2026-04-18T14:38:22.098Z</time></trkpt><trkpt lat="36.9187507" lon="14.5761898"><ele>332.0</ele><time>2026-04-18T14:38:23.098Z</time></trkpt><trkpt lat="36.9189024" lon="14.5761978"><ele>332.0</ele><time>2026-04-18T14:38:24.099Z</time></trkpt><trkpt lat="36.9190509" lon="14.5762056"><ele>332.0</ele><time>2026-04-18T14:38:25.099Z</time></trkpt><trkpt lat="36.919197" lon="14.5762165"><ele>332.0</ele><time>2026-04-18T14:38:26.098Z</time></trkpt><trkpt lat="36.9193402" lon="14.5762292"><ele>332.0</ele><time>2026-04-18T14:38:27.101Z</time></trkpt><trkpt lat="36.9194803" lon="14.5762403"><ele>330.25</ele><time>2026-04-18T14:38:28.099Z</time></trkpt><trkpt lat="36.9196148" lon="14.5762421"><ele>328.5</ele><time>2026-04-18T14:38:29.1Z</time></trkpt><trkpt lat="36.9197453" lon="14.5762275"><ele>326.75</ele><time>2026-04-18T14:38:30.098Z</time></trkpt><trkpt lat="36.9198709" lon="14.5762029"><ele>325.0</ele><time>2026-04-18T14:38:31.1Z</time></trkpt><trkpt lat="36.9200006" lon="14.5761797"><ele>322.75</ele><time>2026-04-18T14:38:32.098Z</time></trkpt><trkpt lat="36.9201367" lon="14.5761572"><ele>320.5</ele><time>2026-04-18T14:38:33.098Z</time></trkpt><trkpt lat="36.9202778" lon="14.576145"><ele>318.25</ele><time>2026-04-18T14:38:34.099Z</time></trkpt><trkpt lat="36.920417" lon="14.5761327"><ele>316.0</ele><time>2026-04-18T14:38:35.098Z</time></trkpt><trkpt lat="36.9205476" lon="14.5761189"><ele>316.0</ele><time>2026-04-18T14:38:36.098Z</time></trkpt><trkpt lat="36.9206747" lon="14.5761005"><ele>316.0</ele><time>2026-04-18T14:38:37.1Z</time></trkpt><trkpt lat="36.9207977" lon="14.5760838"><ele>316.0</ele><time>2026-04-18T14:38:38.098Z</time></trkpt><trkpt lat="36.9209163" lon="14.5760739"><ele>316.0</ele><time>2026-04-18T14:38:39.099Z</time></trkpt><trkpt lat="36.9210396" lon="14.5760724"><ele>314.75</ele><time>2026-04-18T14:38:40.097Z</time></trkpt><trkpt lat="36.9211806" lon="14.5760722"><ele>313.5</ele><time>2026-04-18T14:38:41.098Z</time></trkpt><trkpt lat="36.9213229" lon="14.5760657"><ele>312.25</ele><time>2026-04-18T14:38:42.097Z</time></trkpt><trkpt lat="36.921455" lon="14.576056"><ele>311.0</ele><time>2026-04-18T14:38:43.098Z</time></trkpt><trkpt lat="36.9215789" lon="14.5760485"><ele>311.0</ele><time>2026-04-18T14:38:44.098Z</time></trkpt><trkpt lat="36.9216951" lon="14.5760491"><ele>311.0</ele><time>2026-04-18T14:38:45.1Z</time></trkpt><trkpt lat="36.9217983" lon="14.5760691"><ele>311.0</ele><time>2026-04-18T14:38:46.097Z</time></trkpt><trkpt lat="36.9218948" lon="14.5761146"><ele>311.0</ele><time>2026-04-18T14:38:47.1Z</time></trkpt><trkpt lat="36.9219906" lon="14.5761834"><ele>311.0</ele><time>2026-04-18T14:38:48.098Z</time></trkpt><trkpt lat="36.9220914" lon="14.5762609"><ele>309.5</ele><time>2026-04-18T14:38:49.099Z</time></trkpt><trkpt lat="36.922198" lon="14.5763414"><ele>308.0</ele><time>2026-04-18T14:38:50.1Z</time></trkpt><trkpt lat="36.9223006" lon="14.5764219"><ele>306.5</ele><time>2026-04-18T14:38:51.099Z</time></trkpt><trkpt lat="36.9224001" lon="14.5765019"><ele>305.0</ele><time>2026-04-18T14:38:52.098Z</time></trkpt><trkpt lat="36.9225018" lon="14.5765806"><ele>302.6</ele><time>2026-04-18T14:38:53.097Z</time></trkpt><trkpt lat="36.9226043" lon="14.5766558"><ele>300.2</ele><time>2026-04-18T14:38:54.097Z</time></trkpt><trkpt lat="36.9227011" lon="14.576729"><ele>297.8</ele><time>2026-04-18T14:38:55.1Z</time></trkpt><trkpt lat="36.9227917" lon="14.5767985"><ele>295.4</ele><time>2026-04-18T14:38:56.1Z</time></trkpt><trkpt lat="36.9228738" lon="14.5768664"><ele>293.0</ele><time>2026-04-18T14:38:57.099Z</time></trkpt><trkpt lat="36.9229449" lon="14.5769364"><ele>293.0</ele><time>2026-04-18T14:38:58.099Z</time></trkpt><trkpt lat="36.9229941" lon="14.577009"><ele>293.0</ele><time>2026-04-18T14:38:59.099Z</time></trkpt><trkpt lat="36.9230293" lon="14.5770871"><ele>293.0</ele><time>2026-04-18T14:39:00.099Z</time></trkpt><trkpt lat="36.923053" lon="14.5771778"><ele>293.0</ele><time>2026-04-18T14:39:01.098Z</time></trkpt><trkpt lat="36.9230749" lon="14.5772804"><ele>293.0</ele><time>2026-04-18T14:39:02.099Z</time></trkpt><trkpt lat="36.9230973" lon="14.5773868"><ele>293.0</ele><time>2026-04-18T14:39:03.099Z</time></trkpt><trkpt lat="36.9231234" lon="14.5774921"><ele>291.0</ele><time>2026-04-18T14:39:04.098Z</time></trkpt><trkpt lat="36.9231572" lon="14.5775986"><ele>289.0</ele><time>2026-04-18T14:39:05.1Z</time></trkpt><trkpt lat="36.9231918" lon="14.5777072"><ele>287.0</ele><time>2026-04-18T14:39:06.099Z</time></trkpt><trkpt lat="36.923214" lon="14.5778189"><ele>285.0</ele><time>2026-04-18T14:39:07.097Z</time></trkpt><trkpt lat="36.9232153" lon="14.5779349"><ele>283.0</ele><time>2026-04-18T14:39:08.098Z</time></trkpt><trkpt lat="36.9232087" lon="14.5780548"><ele>282.0</ele><time>2026-04-18T14:39:09.099Z</time></trkpt><trkpt lat="36.923209" lon="14.5781711"><ele>281.0</ele><time>2026-04-18T14:39:10.1Z</time></trkpt><trkpt lat="36.9232202" lon="14.5782825"><ele>280.0</ele><time>2026-04-18T14:39:11.098Z</time></trkpt><trkpt lat="36.9232506" lon="14.5783856"><ele>279.0</ele><time>2026-04-18T14:39:12.098Z</time></trkpt><trkpt lat="36.9232885" lon="14.5784706"><ele>278.0</ele><time>2026-04-18T14:39:13.097Z</time></trkpt><trkpt lat="36.9233236" lon="14.5785393"><ele>277.0</ele><time>2026-04-18T14:39:14.098Z</time></trkpt><trkpt lat="36.9233667" lon="14.5786278"><ele>277.8333333333333</ele><time>2026-04-18T14:39:16.1Z</time></trkpt><trkpt lat="36.923382" lon="14.5787045"><ele>278.66666666666663</ele><time>2026-04-18T14:39:19.099Z</time></trkpt><trkpt lat="36.9234218" lon="14.5787815"><ele>279.5</ele><time>2026-04-18T14:40:08.1Z</time></trkpt><trkpt lat="36.9234873" lon="14.5788351"><ele>280.3333333333333</ele><time>2026-04-18T14:40:12.1Z</time></trkpt><trkpt lat="36.9235543" lon="14.5789006"><ele>281.1666666666667</ele><time>2026-04-18T14:40:15.098Z</time></trkpt><trkpt lat="36.9235125" lon="14.5789784"><ele>282.0</ele><time>2026-04-18T14:40:18.099Z</time></trkpt><trkpt lat="36.923421" lon="14.5790454"><ele>282.0</ele><time>2026-04-18T14:40:20.1Z</time></trkpt><trkpt lat="36.9233614" lon="14.5790911"><ele>282.0</ele><time>2026-04-18T14:40:21.1Z</time></trkpt><trkpt lat="36.9233065" lon="14.5791549"><ele>282.0</ele><time>2026-04-18T14:40:22.1Z</time></trkpt><trkpt lat="36.9232567" lon="14.5792341"><ele>282.0</ele><time>2026-04-18T14:40:23.101Z</time></trkpt><trkpt lat="36.9232206" lon="14.579314"><ele>282.0</ele><time>2026-04-18T14:40:24.101Z</time></trkpt><trkpt lat="36.9231909" lon="14.5793892"><ele>282.0</ele><time>2026-04-18T14:40:25.098Z</time></trkpt><trkpt lat="36.9231584" lon="14.5794715"><ele>282.0</ele><time>2026-04-18T14:40:26.101Z</time></trkpt><trkpt lat="36.9231223" lon="14.5795491"><ele>285.0</ele><time>2026-04-18T14:40:27.099Z</time></trkpt><trkpt lat="36.9230823" lon="14.5796377"><ele>288.0</ele><time>2026-04-18T14:40:28.1Z</time></trkpt><trkpt lat="36.9230436" lon="14.5797301"><ele>291.0</ele><time>2026-04-18T14:40:29.1Z</time></trkpt><trkpt lat="36.923008" lon="14.5798254"><ele>294.0</ele><time>2026-04-18T14:40:30.099Z</time></trkpt><trkpt lat="36.9229734" lon="14.5799216"><ele>297.0</ele><time>2026-04-18T14:40:31.098Z</time></trkpt><trkpt lat="36.9229414" lon="14.5800115"><ele>300.0</ele><time>2026-04-18T14:40:32.099Z</time></trkpt><trkpt lat="36.9229066" lon="14.5800829"><ele>300.0</ele><time>2026-04-18T14:40:33.098Z</time></trkpt><trkpt lat="36.9228676" lon="14.5801503"><ele>300.0</ele><time>2026-04-18T14:40:34.1Z</time></trkpt><trkpt lat="36.9228208" lon="14.5802288"><ele>300.0</ele><time>2026-04-18T14:40:35.1Z</time></trkpt><trkpt lat="36.9227711" lon="14.5803196"><ele>300.0</ele><time>2026-04-18T14:40:36.098Z</time></trkpt><trkpt lat="36.9227165" lon="14.5804103"><ele>300.0</ele><time>2026-04-18T14:40:37.1Z</time></trkpt><trkpt lat="36.9226546" lon="14.5805019"><ele>300.0</ele><time>2026-04-18T14:40:38.101Z</time></trkpt><trkpt lat="36.9225867" lon="14.5806014"><ele>300.1666666666667</ele><time>2026-04-18T14:40:39.1Z</time></trkpt><trkpt lat="36.9225194" lon="14.5806946"><ele>300.3333333333333</ele><time>2026-04-18T14:40:40.097Z</time></trkpt><trkpt lat="36.9224565" lon="14.580782"><ele>300.5</ele><time>2026-04-18T14:40:41.098Z</time></trkpt><trkpt lat="36.9223967" lon="14.5808668"><ele>300.66666666666663</ele><time>2026-04-18T14:40:42.099Z</time></trkpt><trkpt lat="36.9223428" lon="14.5809466"><ele>300.8333333333333</ele><time>2026-04-18T14:40:43.101Z</time></trkpt><trkpt lat="36.9222865" lon="14.5810186"><ele>301.0</ele><time>2026-04-18T14:40:44.099Z</time></trkpt><trkpt lat="36.9222261" lon="14.5810922"><ele>301.0</ele><time>2026-04-18T14:40:45.099Z</time></trkpt><trkpt lat="36.9221738" lon="14.5811597"><ele>301.0</ele><time>2026-04-18T14:40:46.1Z</time></trkpt><trkpt lat="36.9221378" lon="14.5812664"><ele>301.0</ele><time>2026-04-18T14:40:48.099Z</time></trkpt><trkpt lat="36.9221832" lon="14.5813676"><ele>301.0</ele><time>2026-04-18T14:40:50.1Z</time></trkpt><trkpt lat="36.9222406" lon="14.5814577"><ele>301.0</ele><time>2026-04-18T14:40:52.098Z</time></trkpt><trkpt lat="36.9222513" lon="14.5815687"><ele>301.0</ele><time>2026-04-18T14:40:54.099Z</time></trkpt><trkpt lat="36.9222136" lon="14.5816937"><ele>304.2</ele><time>2026-04-18T14:40:56.099Z</time></trkpt><trkpt lat="36.9222134" lon="14.5818279"><ele>307.40000000000003</ele><time>2026-04-18T14:40:58.099Z</time></trkpt><trkpt lat="36.9222347" lon="14.5819184"><ele>310.6</ele><time>2026-04-18T14:41:00.1Z</time></trkpt><trkpt lat="36.922128" lon="14.5820178"><ele>313.8</ele><time>2026-04-18T14:42:11.1Z</time></trkpt><trkpt lat="36.9220355" lon="14.5821051"><ele>317.0</ele><time>2026-04-18T14:42:13.099Z</time></trkpt><trkpt lat="36.9219301" lon="14.5821756"><ele>318.4</ele><time>2026-04-18T14:42:15.101Z</time></trkpt><trkpt lat="36.9218325" lon="14.5822561"><ele>319.79999999999995</ele><time>2026-04-18T14:42:17.101Z</time></trkpt><trkpt lat="36.9217748" lon="14.5822917"><ele>321.2</ele><time>2026-04-18T14:42:18.098Z</time></trkpt><trkpt lat="36.9217227" lon="14.5823372"><ele>322.59999999999997</ele><time>2026-04-18T14:42:19.1Z</time></trkpt><trkpt lat="36.9216387" lon="14.5824244"><ele>324.0</ele><time>2026-04-18T14:42:21.099Z</time></trkpt><trkpt lat="36.9215606" lon="14.5825093"><ele>324.0</ele><time>2026-04-18T14:42:23.099Z</time></trkpt><trkpt lat="36.9214793" lon="14.5826103"><ele>324.0</ele><time>2026-04-18T14:42:25.1Z</time></trkpt><trkpt lat="36.9213944" lon="14.5826975"><ele>324.0</ele><time>2026-04-18T14:42:27.101Z</time></trkpt><trkpt lat="36.9213248" lon="14.582783"><ele>324.0</ele><time>2026-04-18T14:42:29.099Z</time></trkpt><trkpt lat="36.9212448" lon="14.5828643"><ele>324.0</ele><time>2026-04-18T14:42:31.1Z</time></trkpt><trkpt lat="36.9211455" lon="14.582951"><ele>327.0</ele><time>2026-04-18T14:42:33.102Z</time></trkpt><trkpt lat="36.9210483" lon="14.5830339"><ele>330.0</ele><time>2026-04-18T14:42:35.098Z</time></trkpt><trkpt lat="36.9209486" lon="14.5831143"><ele>333.0</ele><time>2026-04-18T14:42:37.098Z</time></trkpt><trkpt lat="36.9208654" lon="14.58319"><ele>336.0</ele><time>2026-04-18T14:42:39.101Z</time></trkpt><trkpt lat="36.9207743" lon="14.5832764"><ele>336.0</ele><time>2026-04-18T14:42:41.099Z</time></trkpt><trkpt lat="36.9206829" lon="14.5833584"><ele>336.0</ele><time>2026-04-18T14:42:43.099Z</time></trkpt><trkpt lat="36.9206028" lon="14.5834181"><ele>336.0</ele><time>2026-04-18T14:42:45.1Z</time></trkpt><trkpt lat="36.9205285" lon="14.5834754"><ele>336.0</ele><time>2026-04-18T14:42:47.1Z</time></trkpt><trkpt lat="36.9204547" lon="14.5835388"><ele>336.0</ele><time>2026-04-18T14:42:49.099Z</time></trkpt><trkpt lat="36.9203697" lon="14.5836124"><ele>341.20000000000005</ele><time>2026-04-18T14:42:51.1Z</time></trkpt><trkpt lat="36.9202961" lon="14.5836928"><ele>346.40000000000003</ele><time>2026-04-18T14:42:53.099Z</time></trkpt><trkpt lat="36.9202189" lon="14.5837737"><ele>351.6</ele><time>2026-04-18T14:42:55.1Z</time></trkpt><trkpt lat="36.9201828" lon="14.5838434"><ele>356.8</ele><time>2026-04-18T14:43:03.097Z</time></trkpt><trkpt lat="36.9203047" lon="14.5837945"><ele>362.0</ele><time>2026-04-18T14:43:06.098Z</time></trkpt><trkpt lat="36.9203715" lon="14.5837604"><ele>362.0</ele><time>2026-04-18T14:43:07.098Z</time></trkpt><trkpt lat="36.9204453" lon="14.5837208"><ele>362.0</ele><time>2026-04-18T14:43:08.097Z</time></trkpt><trkpt lat="36.9205262" lon="14.58368"><ele>362.0</ele><time>2026-04-18T14:43:09.099Z</time></trkpt><trkpt lat="36.9206079" lon="14.5836466"><ele>362.0</ele><time>2026-04-18T14:43:10.1Z</time></trkpt><trkpt lat="36.9206899" lon="14.5836173"><ele>362.0</ele><time>2026-04-18T14:43:11.099Z</time></trkpt><trkpt lat="36.9207718" lon="14.5835838"><ele>362.0</ele><time>2026-04-18T14:43:12.1Z</time></trkpt><trkpt lat="36.9208599" lon="14.5835515"><ele>359.0</ele><time>2026-04-18T14:43:13.098Z</time></trkpt><trkpt lat="36.9209511" lon="14.583519"><ele>356.0</ele><time>2026-04-18T14:43:14.099Z</time></trkpt><trkpt lat="36.9210421" lon="14.583484"><ele>353.0</ele><time>2026-04-18T14:43:15.099Z</time></trkpt><trkpt lat="36.9211312" lon="14.5834497"><ele>350.0</ele><time>2026-04-18T14:43:16.099Z</time></trkpt><trkpt lat="36.9212135" lon="14.5834167"><ele>347.0</ele><time>2026-04-18T14:43:17.099Z</time></trkpt><trkpt lat="36.9212888" lon="14.583399"><ele>344.0</ele><time>2026-04-18T14:43:18.098Z</time></trkpt><trkpt lat="36.921357" lon="14.5834122"><ele>344.0</ele><time>2026-04-18T14:43:19.098Z</time></trkpt><trkpt lat="36.921429" lon="14.5834421"><ele>344.0</ele><time>2026-04-18T14:43:20.097Z</time></trkpt><trkpt lat="36.9215007" lon="14.583471"><ele>344.0</ele><time>2026-04-18T14:43:21.099Z</time></trkpt><trkpt lat="36.9215641" lon="14.5835051"><ele>344.0</ele><time>2026-04-18T14:43:22.099Z</time></trkpt><trkpt lat="36.9216267" lon="14.5835562"><ele>344.0</ele><time>2026-04-18T14:43:23.097Z</time></trkpt><trkpt lat="36.921679" lon="14.5836316"><ele>344.0</ele><time>2026-04-18T14:43:24.099Z</time></trkpt><trkpt lat="36.9217356" lon="14.5837216"><ele>344.6</ele><time>2026-04-18T14:43:25.1Z</time></trkpt><trkpt lat="36.9217935" lon="14.5838125"><ele>345.2</ele><time>2026-04-18T14:43:26.098Z</time></trkpt><trkpt lat="36.9218639" lon="14.5838972"><ele>345.8</ele><time>2026-04-18T14:43:27.1Z</time></trkpt><trkpt lat="36.9219413" lon="14.5839719"><ele>346.40000000000003</ele><time>2026-04-18T14:43:28.098Z</time></trkpt><trkpt lat="36.9220153" lon="14.5840532"><ele>347.0</ele><time>2026-04-18T14:43:29.111Z</time></trkpt><trkpt lat="36.9220747" lon="14.5841409"><ele>347.0</ele><time>2026-04-18T14:43:30.098Z</time></trkpt><trkpt lat="36.9221372" lon="14.5842223"><ele>347.0</ele><time>2026-04-18T14:43:31.098Z</time></trkpt><trkpt lat="36.9222142" lon="14.5842845"><ele>347.0</ele><time>2026-04-18T14:43:32.098Z</time></trkpt><trkpt lat="36.9222854" lon="14.5843378"><ele>347.0</ele><time>2026-04-18T14:43:33.099Z</time></trkpt><trkpt lat="36.9223453" lon="14.5843966"><ele>347.0</ele><time>2026-04-18T14:43:34.097Z</time></trkpt><trkpt lat="36.9223924" lon="14.5844682"><ele>347.0</ele><time>2026-04-18T14:43:35.099Z</time></trkpt><trkpt lat="36.9224247" lon="14.5845427"><ele>348.20000000000005</ele><time>2026-04-18T14:43:36.099Z</time></trkpt><trkpt lat="36.9224605" lon="14.5846671"><ele>349.4</ele><time>2026-04-18T14:43:38.098Z</time></trkpt><trkpt lat="36.9224542" lon="14.5847596"><ele>350.6</ele><time>2026-04-18T14:43:41.099Z</time></trkpt><trkpt lat="36.9226063" lon="14.5846892"><ele>351.79999999999995</ele><time>2026-04-18T14:44:52.098Z</time></trkpt><trkpt lat="36.9226494" lon="14.5847493"><ele>353.0</ele><time>2026-04-18T14:44:57.099Z</time></trkpt><trkpt lat="36.922623" lon="14.5848391"><ele>348.5</ele><time>2026-04-18T14:45:00.097Z</time></trkpt><trkpt lat="36.9226174" lon="14.5847594"><ele>344.0</ele><time>2026-04-18T14:45:12.097Z</time></trkpt><trkpt lat="36.9226474" lon="14.5846569"><ele>339.5</ele><time>2026-04-18T14:45:15.099Z</time></trkpt><trkpt lat="36.9226583" lon="14.5845148"><ele>335.0</ele><time>2026-04-18T14:45:47.099Z</time></trkpt><trkpt lat="36.9226651" lon="14.584414"><ele>330.5</ele><time>2026-04-18T14:45:49.099Z</time></trkpt><trkpt lat="36.9226701" lon="14.5843334"><ele>326.0</ele><time>2026-04-18T14:45:53.099Z</time></trkpt><trkpt lat="36.9227268" lon="14.5843824"><ele>326.0</ele><time>2026-04-18T14:46:13.098Z</time></trkpt><trkpt lat="36.9227641" lon="14.5844514"><ele>326.0</ele><time>2026-04-18T14:46:15.099Z</time></trkpt><trkpt lat="36.9228123" lon="14.584537"><ele>326.0</ele><time>2026-04-18T14:46:18.098Z</time></trkpt><trkpt lat="36.9228553" lon="14.5846026"><ele>326.0</ele><time>2026-04-18T14:46:20.099Z</time></trkpt><trkpt lat="36.9229036" lon="14.5846661"><ele>326.0</ele><time>2026-04-18T14:46:22.1Z</time></trkpt><trkpt lat="36.9229493" lon="14.5847309"><ele>326.0</ele><time>2026-04-18T14:46:24.101Z</time></trkpt><trkpt lat="36.9229949" lon="14.584806"><ele>326.0</ele><time>2026-04-18T14:46:26.099Z</time></trkpt><trkpt lat="36.9230397" lon="14.5849012"><ele>325.5</ele><time>2026-04-18T14:46:28.1Z</time></trkpt><trkpt lat="36.9230818" lon="14.5850146"><ele>325.0</ele><time>2026-04-18T14:46:30.099Z</time></trkpt><trkpt lat="36.9231102" lon="14.5851267"><ele>324.5</ele><time>2026-04-18T14:46:32.1Z</time></trkpt><trkpt lat="36.9231213" lon="14.5852251"><ele>324.0</ele><time>2026-04-18T14:46:34.099Z</time></trkpt><trkpt lat="36.9231324" lon="14.58531"><ele>323.5</ele><time>2026-04-18T14:46:36.098Z</time></trkpt><trkpt lat="36.9231602" lon="14.585396"><ele>323.0</ele><time>2026-04-18T14:46:53.099Z</time></trkpt><trkpt lat="36.9232053" lon="14.5855452"><ele>322.33333333333337</ele><time>2026-04-18T14:46:55.099Z</time></trkpt><trkpt lat="36.9232235" lon="14.5856329"><ele>321.6666666666667</ele><time>2026-04-18T14:46:56.099Z</time></trkpt><trkpt lat="36.9232393" lon="14.5857321"><ele>321.0</ele><time>2026-04-18T14:46:57.1Z</time></trkpt><trkpt lat="36.923237" lon="14.5858325"><ele>320.3333333333333</ele><time>2026-04-18T14:46:58.099Z</time></trkpt><trkpt lat="36.9232361" lon="14.5859298"><ele>319.66666666666663</ele><time>2026-04-18T14:46:59.1Z</time></trkpt><trkpt lat="36.9232372" lon="14.5860225"><ele>319.0</ele><time>2026-04-18T14:47:00.1Z</time></trkpt><trkpt lat="36.9232388" lon="14.586113"><ele>318.66666666666663</ele><time>2026-04-18T14:47:01.101Z</time></trkpt><trkpt lat="36.9232331" lon="14.5862052"><ele>318.3333333333333</ele><time>2026-04-18T14:47:02.098Z</time></trkpt><trkpt lat="36.9232164" lon="14.5862951"><ele>318.0</ele><time>2026-04-18T14:47:03.099Z</time></trkpt><trkpt lat="36.9231916" lon="14.5863762"><ele>317.6666666666667</ele><time>2026-04-18T14:47:04.099Z</time></trkpt><trkpt lat="36.9231672" lon="14.5864672"><ele>317.33333333333337</ele><time>2026-04-18T14:47:05.1Z</time></trkpt><trkpt lat="36.9231474" lon="14.5865701"><ele>317.0</ele><time>2026-04-18T14:47:06.101Z</time></trkpt><trkpt lat="36.9231337" lon="14.5866759"><ele>317.0</ele><time>2026-04-18T14:47:07.1Z</time></trkpt><trkpt lat="36.9231233" lon="14.5867768"><ele>317.0</ele><time>2026-04-18T14:47:08.099Z</time></trkpt><trkpt lat="36.9231073" lon="14.5868816"><ele>317.0</ele><time>2026-04-18T14:47:09.098Z</time></trkpt><trkpt lat="36.9230903" lon="14.58699"><ele>317.0</ele><time>2026-04-18T14:47:10.1Z</time></trkpt><trkpt lat="36.9230737" lon="14.5871069"><ele>317.0</ele><time>2026-04-18T14:47:11.099Z</time></trkpt><trkpt lat="36.923052" lon="14.587217"><ele>317.0</ele><time>2026-04-18T14:47:12.099Z</time></trkpt><trkpt lat="36.9230347" lon="14.5873353"><ele>316.6</ele><time>2026-04-18T14:47:13.1Z</time></trkpt><trkpt lat="36.9230152" lon="14.5874526"><ele>316.2</ele><time>2026-04-18T14:47:14.098Z</time></trkpt><trkpt lat="36.9229946" lon="14.587569"><ele>315.8</ele><time>2026-04-18T14:47:15.1Z</time></trkpt><trkpt lat="36.9229804" lon="14.5876882"><ele>315.4</ele><time>2026-04-18T14:47:16.1Z</time></trkpt><trkpt lat="36.9229644" lon="14.5878191"><ele>315.0</ele><time>2026-04-18T14:47:17.099Z</time></trkpt><trkpt lat="36.9229519" lon="14.5879453"><ele>314.0</ele><time>2026-04-18T14:47:18.099Z</time></trkpt><trkpt lat="36.9229304" lon="14.5880536"><ele>313.0</ele><time>2026-04-18T14:47:19.1Z</time></trkpt><trkpt lat="36.9229019" lon="14.5881487"><ele>312.0</ele><time>2026-04-18T14:47:20.1Z</time></trkpt><trkpt lat="36.9228711" lon="14.5882425"><ele>311.0</ele><time>2026-04-18T14:47:21.099Z</time></trkpt><trkpt lat="36.9228437" lon="14.5883416"><ele>310.0</ele><time>2026-04-18T14:47:22.1Z</time></trkpt><trkpt lat="36.9228159" lon="14.5884433"><ele>309.0</ele><time>2026-04-18T14:47:23.1Z</time></trkpt><trkpt lat="36.9227956" lon="14.5885325"><ele>309.0</ele><time>2026-04-18T14:47:24.1Z</time></trkpt><trkpt lat="36.92279" lon="14.5886122"><ele>309.0</ele><time>2026-04-18T14:47:25.098Z</time></trkpt><trkpt lat="36.9228022" lon="14.5887804"><ele>309.0</ele><time>2026-04-18T14:47:27.101Z</time></trkpt><trkpt lat="36.9228003" lon="14.5888805"><ele>309.0</ele><time>2026-04-18T14:47:28.098Z</time></trkpt><trkpt lat="36.9227992" lon="14.5889713"><ele>309.0</ele><time>2026-04-18T14:47:29.1Z</time></trkpt><trkpt lat="36.9228062" lon="14.5890583"><ele>309.0</ele><time>2026-04-18T14:47:30.1Z</time></trkpt><trkpt lat="36.9228206" lon="14.5891463"><ele>308.8333333333333</ele><time>2026-04-18T14:47:31.1Z</time></trkpt><trkpt lat="36.9228307" lon="14.589233"><ele>308.6666666666667</ele><time>2026-04-18T14:47:32.1Z</time></trkpt><trkpt lat="36.9228317" lon="14.5893243"><ele>308.5</ele><time>2026-04-18T14:47:33.1Z</time></trkpt><trkpt lat="36.9228277" lon="14.5894268"><ele>308.33333333333337</ele><time>2026-04-18T14:47:34.1Z</time></trkpt><trkpt lat="36.9228201" lon="14.5895422"><ele>308.1666666666667</ele><time>2026-04-18T14:47:35.099Z</time></trkpt><trkpt lat="36.9228118" lon="14.589659"><ele>308.0</ele><time>2026-04-18T14:47:36.098Z</time></trkpt><trkpt lat="36.9228001" lon="14.5897736"><ele>307.8</ele><time>2026-04-18T14:47:37.1Z</time></trkpt><trkpt lat="36.9227882" lon="14.5898919"><ele>307.6</ele><time>2026-04-18T14:47:38.099Z</time></trkpt><trkpt lat="36.9227751" lon="14.5900179"><ele>307.4</ele><time>2026-04-18T14:47:39.1Z</time></trkpt><trkpt lat="36.922761" lon="14.5901366"><ele>307.2</ele><time>2026-04-18T14:47:40.1Z</time></trkpt><trkpt lat="36.9227521" lon="14.5902468"><ele>307.0</ele><time>2026-04-18T14:47:41.099Z</time></trkpt><trkpt lat="36.9227519" lon="14.5903426"><ele>306.71428571428567</ele><time>2026-04-18T14:47:42.101Z</time></trkpt><trkpt lat="36.922766" lon="14.590426"><ele>306.42857142857144</ele><time>2026-04-18T14:47:43.1Z</time></trkpt><trkpt lat="36.9227875" lon="14.5905079"><ele>306.1428571428571</ele><time>2026-04-18T14:47:44.099Z</time></trkpt><trkpt lat="36.9228185" lon="14.5905921"><ele>305.85714285714283</ele><time>2026-04-18T14:47:45.099Z</time></trkpt><trkpt lat="36.9228526" lon="14.5906729"><ele>305.57142857142856</ele><time>2026-04-18T14:47:46.098Z</time></trkpt><trkpt lat="36.9228852" lon="14.5907554"><ele>305.2857142857143</ele><time>2026-04-18T14:47:47.1Z</time></trkpt><trkpt lat="36.9229123" lon="14.590841"><ele>305.0</ele><time>2026-04-18T14:47:48.098Z</time></trkpt><trkpt lat="36.9229436" lon="14.5909308"><ele>305.0</ele><time>2026-04-18T14:47:49.1Z</time></trkpt><trkpt lat="36.9229754" lon="14.5910164"><ele>305.0</ele><time>2026-04-18T14:47:50.099Z</time></trkpt><trkpt lat="36.9230013" lon="14.5911039"><ele>305.0</ele><time>2026-04-18T14:47:51.099Z</time></trkpt><trkpt lat="36.923017" lon="14.5911925"><ele>305.0</ele><time>2026-04-18T14:47:52.099Z</time></trkpt><trkpt lat="36.9230334" lon="14.591271"><ele>305.0</ele><time>2026-04-18T14:47:53.107Z</time></trkpt><trkpt lat="36.9230563" lon="14.5913533"><ele>305.0</ele><time>2026-04-18T14:47:55.1Z</time></trkpt><trkpt lat="36.923093" lon="14.5914264"><ele>305.0</ele><time>2026-04-18T14:47:57.099Z</time></trkpt><trkpt lat="36.9231921" lon="14.591541"><ele>306.0</ele><time>2026-04-18T14:47:59.099Z</time></trkpt><trkpt lat="36.9232646" lon="14.591598"><ele>307.0</ele><time>2026-04-18T14:48:00.097Z</time></trkpt><trkpt lat="36.9233376" lon="14.5916608"><ele>308.0</ele><time>2026-04-18T14:48:01.099Z</time></trkpt><trkpt lat="36.9234174" lon="14.5917285"><ele>309.0</ele><time>2026-04-18T14:48:02.097Z</time></trkpt><trkpt lat="36.9234895" lon="14.5918029"><ele>310.0</ele><time>2026-04-18T14:48:03.1Z</time></trkpt><trkpt lat="36.9235485" lon="14.5918876"><ele>305.8</ele><time>2026-04-18T14:48:04.099Z</time></trkpt><trkpt lat="36.9236054" lon="14.5919761"><ele>301.6</ele><time>2026-04-18T14:48:05.099Z</time></trkpt><trkpt lat="36.923658" lon="14.5920646"><ele>297.4</ele><time>2026-04-18T14:48:06.098Z</time></trkpt><trkpt lat="36.9237083" lon="14.5921594"><ele>293.2</ele><time>2026-04-18T14:48:07.098Z</time></trkpt><trkpt lat="36.9237529" lon="14.592273"><ele>289.0</ele><time>2026-04-18T14:48:08.098Z</time></trkpt><trkpt lat="36.9237989" lon="14.5923961"><ele>289.0</ele><time>2026-04-18T14:48:09.099Z</time></trkpt><trkpt lat="36.9238455" lon="14.5925303"><ele>289.0</ele><time>2026-04-18T14:48:10.099Z</time></trkpt><trkpt lat="36.9238867" lon="14.5926619"><ele>289.0</ele><time>2026-04-18T14:48:11.099Z</time></trkpt><trkpt lat="36.9239307" lon="14.5927854"><ele>289.0</ele><time>2026-04-18T14:48:12.101Z</time></trkpt><trkpt lat="36.9239969" lon="14.592899"><ele>291.5</ele><time>2026-04-18T14:48:13.099Z</time></trkpt><trkpt lat="36.9240716" lon="14.5930148"><ele>294.0</ele><time>2026-04-18T14:48:14.099Z</time></trkpt><trkpt lat="36.9241476" lon="14.593133"><ele>296.5</ele><time>2026-04-18T14:48:15.097Z</time></trkpt><trkpt lat="36.9242209" lon="14.5932394"><ele>299.0</ele><time>2026-04-18T14:48:16.098Z</time></trkpt><trkpt lat="36.9242839" lon="14.5933442"><ele>297.0</ele><time>2026-04-18T14:48:17.098Z</time></trkpt><trkpt lat="36.9243332" lon="14.593449"><ele>295.0</ele><time>2026-04-18T14:48:18.099Z</time></trkpt><trkpt lat="36.9243856" lon="14.5935577"><ele>293.0</ele><time>2026-04-18T14:48:19.099Z</time></trkpt><trkpt lat="36.9244464" lon="14.5936717"><ele>291.0</ele><time>2026-04-18T14:48:20.098Z</time></trkpt><trkpt lat="36.9245203" lon="14.593787"><ele>289.0</ele><time>2026-04-18T14:48:21.099Z</time></trkpt><trkpt lat="36.9246107" lon="14.5938992"><ele>289.0</ele><time>2026-04-18T14:48:22.101Z</time></trkpt><trkpt lat="36.9247031" lon="14.5940109"><ele>289.0</ele><time>2026-04-18T14:48:23.099Z</time></trkpt><trkpt lat="36.9247998" lon="14.594118"><ele>289.0</ele><time>2026-04-18T14:48:24.098Z</time></trkpt><trkpt lat="36.9249008" lon="14.5942228"><ele>289.0</ele><time>2026-04-18T14:48:25.099Z</time></trkpt><trkpt lat="36.9250046" lon="14.5943337"><ele>289.5</ele><time>2026-04-18T14:48:26.099Z</time></trkpt><trkpt lat="36.9251087" lon="14.5944528"><ele>290.0</ele><time>2026-04-18T14:48:27.1Z</time></trkpt><trkpt lat="36.9252081" lon="14.5945708"><ele>290.5</ele><time>2026-04-18T14:48:28.098Z</time></trkpt><trkpt lat="36.9253033" lon="14.5946825"><ele>291.0</ele><time>2026-04-18T14:48:29.099Z</time></trkpt><trkpt lat="36.9253827" lon="14.5947859"><ele>291.0</ele><time>2026-04-18T14:48:30.098Z</time></trkpt><trkpt lat="36.9254545" lon="14.5948862"><ele>291.0</ele><time>2026-04-18T14:48:31.1Z</time></trkpt><trkpt lat="36.9255378" lon="14.5949844"><ele>291.0</ele><time>2026-04-18T14:48:32.098Z</time></trkpt><trkpt lat="36.9256288" lon="14.5950745"><ele>291.0</ele><time>2026-04-18T14:48:33.1Z</time></trkpt><trkpt lat="36.9257098" lon="14.5951572"><ele>291.0</ele><time>2026-04-18T14:48:34.098Z</time></trkpt><trkpt lat="36.9257737" lon="14.5952376"><ele>291.0</ele><time>2026-04-18T14:48:35.097Z</time></trkpt><trkpt lat="36.9258153" lon="14.5953232"><ele>291.0</ele><time>2026-04-18T14:48:36.1Z</time></trkpt><trkpt lat="36.9258399" lon="14.5954271"><ele>291.0</ele><time>2026-04-18T14:48:37.099Z</time></trkpt><trkpt lat="36.9258527" lon="14.5955534"><ele>291.0</ele><time>2026-04-18T14:48:38.099Z</time></trkpt><trkpt lat="36.9258478" lon="14.5956857"><ele>291.0</ele><time>2026-04-18T14:48:39.101Z</time></trkpt><trkpt lat="36.9258356" lon="14.5958236"><ele>292.2</ele><time>2026-04-18T14:48:40.099Z</time></trkpt><trkpt lat="36.9258295" lon="14.5959632"><ele>293.40000000000003</ele><time>2026-04-18T14:48:41.1Z</time></trkpt><trkpt lat="36.925834" lon="14.596095"><ele>294.6</ele><time>2026-04-18T14:48:42.097Z</time></trkpt><trkpt lat="36.9258488" lon="14.5962224"><ele>295.8</ele><time>2026-04-18T14:48:43.099Z</time></trkpt><trkpt lat="36.9258835" lon="14.596341"><ele>297.0</ele><time>2026-04-18T14:48:44.1Z</time></trkpt><trkpt lat="36.9259315" lon="14.5964473"><ele>297.0</ele><time>2026-04-18T14:48:45.1Z</time></trkpt><trkpt lat="36.9259858" lon="14.5965583"><ele>297.0</ele><time>2026-04-18T14:48:46.099Z</time></trkpt><trkpt lat="36.9260505" lon="14.5966728"><ele>297.0</ele><time>2026-04-18T14:48:47.098Z</time></trkpt><trkpt lat="36.9261179" lon="14.596782"><ele>297.0</ele><time>2026-04-18T14:48:48.099Z</time></trkpt><trkpt lat="36.9261798" lon="14.5968798"><ele>297.0</ele><time>2026-04-18T14:48:49.1Z</time></trkpt><trkpt lat="36.9262427" lon="14.5969707"><ele>299.2</ele><time>2026-04-18T14:48:50.098Z</time></trkpt><trkpt lat="36.926301" lon="14.5970529"><ele>301.4</ele><time>2026-04-18T14:48:51.1Z</time></trkpt><trkpt lat="36.9263575" lon="14.5971314"><ele>303.6</ele><time>2026-04-18T14:48:52.1Z</time></trkpt><trkpt lat="36.9264125" lon="14.59722"><ele>305.8</ele><time>2026-04-18T14:48:53.1Z</time></trkpt><trkpt lat="36.9264562" lon="14.5973267"><ele>308.0</ele><time>2026-04-18T14:48:54.1Z</time></trkpt><trkpt lat="36.9264893" lon="14.5974563"><ele>308.0</ele><time>2026-04-18T14:48:55.099Z</time></trkpt><trkpt lat="36.9265116" lon="14.5975878"><ele>308.0</ele><time>2026-04-18T14:48:56.099Z</time></trkpt><trkpt lat="36.9265243" lon="14.5976991"><ele>308.0</ele><time>2026-04-18T14:48:57.099Z</time></trkpt><trkpt lat="36.9265412" lon="14.5977867"><ele>308.0</ele><time>2026-04-18T14:48:58.1Z</time></trkpt><trkpt lat="36.9265759" lon="14.5978536"><ele>308.0</ele><time>2026-04-18T14:48:59.1Z</time></trkpt><trkpt lat="36.9266333" lon="14.5978915"><ele>308.0</ele><time>2026-04-18T14:49:00.1Z</time></trkpt><trkpt lat="36.9267016" lon="14.5979258"><ele>308.42857142857144</ele><time>2026-04-18T14:49:01.101Z</time></trkpt><trkpt lat="36.9267642" lon="14.597975"><ele>308.8571428571429</ele><time>2026-04-18T14:49:02.099Z</time></trkpt><trkpt lat="36.9268152" lon="14.598035"><ele>309.2857142857143</ele><time>2026-04-18T14:49:03.1Z</time></trkpt><trkpt lat="36.9268561" lon="14.5981036"><ele>309.7142857142857</ele><time>2026-04-18T14:49:04.098Z</time></trkpt><trkpt lat="36.9269015" lon="14.5981744"><ele>310.14285714285717</ele><time>2026-04-18T14:49:05.1Z</time></trkpt><trkpt lat="36.9269537" lon="14.5982411"><ele>310.57142857142856</ele><time>2026-04-18T14:49:06.097Z</time></trkpt><trkpt lat="36.9270122" lon="14.5982993"><ele>311.0</ele><time>2026-04-18T14:49:07.099Z</time></trkpt><trkpt lat="36.9270802" lon="14.5983443"><ele>311.0</ele><time>2026-04-18T14:49:08.099Z</time></trkpt><trkpt lat="36.9271516" lon="14.5983737"><ele>311.0</ele><time>2026-04-18T14:49:09.099Z</time></trkpt><trkpt lat="36.9272186" lon="14.5983855"><ele>311.0</ele><time>2026-04-18T14:49:10.099Z</time></trkpt><trkpt lat="36.9273063" lon="14.5983519"><ele>311.0</ele><time>2026-04-18T14:49:12.098Z</time></trkpt><trkpt lat="36.9273595" lon="14.5982836"><ele>311.0</ele><time>2026-04-18T14:49:14.099Z</time></trkpt><trkpt lat="36.9274941" lon="14.5983449"><ele>309.33333333333337</ele><time>2026-04-18T14:49:17.099Z</time></trkpt><trkpt lat="36.9275639" lon="14.5984085"><ele>307.6666666666667</ele><time>2026-04-18T14:49:18.1Z</time></trkpt><trkpt lat="36.9276453" lon="14.5984595"><ele>306.0</ele><time>2026-04-18T14:49:19.098Z</time></trkpt><trkpt lat="36.9277275" lon="14.5984966"><ele>304.3333333333333</ele><time>2026-04-18T14:49:20.099Z</time></trkpt><trkpt lat="36.9278124" lon="14.5985238"><ele>302.66666666666663</ele><time>2026-04-18T14:49:21.102Z</time></trkpt><trkpt lat="36.9279056" lon="14.5985471"><ele>301.0</ele><time>2026-04-18T14:49:22.1Z</time></trkpt><trkpt lat="36.9279961" lon="14.5985677"><ele>301.0</ele><time>2026-04-18T14:49:23.1Z</time></trkpt><trkpt lat="36.9280816" lon="14.598581"><ele>301.0</ele><time>2026-04-18T14:49:24.099Z</time></trkpt><trkpt lat="36.9281646" lon="14.5985855"><ele>301.0</ele><time>2026-04-18T14:49:25.098Z</time></trkpt><trkpt lat="36.9282339" lon="14.598584"><ele>301.0</ele><time>2026-04-18T14:49:26.1Z</time></trkpt><trkpt lat="36.9283139" lon="14.5985978"><ele>301.0</ele><time>2026-04-18T14:49:28.099Z</time></trkpt><trkpt lat="36.9283848" lon="14.5985913"><ele>301.0</ele><time>2026-04-18T14:49:30.098Z</time></trkpt><trkpt lat="36.9284757" lon="14.598537"><ele>302.2</ele><time>2026-04-18T14:49:32.1Z</time></trkpt><trkpt lat="36.9285987" lon="14.5985088"><ele>303.40000000000003</ele><time>2026-04-18T14:49:34.099Z</time></trkpt><trkpt lat="36.9286603" lon="14.5985267"><ele>304.6</ele><time>2026-04-18T14:49:35.099Z</time></trkpt><trkpt lat="36.9287446" lon="14.5985979"><ele>305.8</ele><time>2026-04-18T14:49:37.102Z</time></trkpt><trkpt lat="36.9286656" lon="14.5987024"><ele>307.0</ele><time>2026-04-18T14:50:52.099Z</time></trkpt><trkpt lat="36.9285974" lon="14.598707"><ele>307.0</ele><time>2026-04-18T14:50:53.098Z</time></trkpt><trkpt lat="36.9284828" lon="14.5987132"><ele>307.0</ele><time>2026-04-18T14:50:55.099Z</time></trkpt><trkpt lat="36.9283986" lon="14.5987065"><ele>307.0</ele><time>2026-04-18T14:50:57.098Z</time></trkpt><trkpt lat="36.928311" lon="14.5986912"><ele>307.0</ele><time>2026-04-18T14:50:59.097Z</time></trkpt><trkpt lat="36.9281835" lon="14.5986763"><ele>307.0</ele><time>2026-04-18T14:51:01.101Z</time></trkpt><trkpt lat="36.9281135" lon="14.5986759"><ele>306.0</ele><time>2026-04-18T14:51:02.1Z</time></trkpt><trkpt lat="36.9280451" lon="14.5986701"><ele>305.0</ele><time>2026-04-18T14:51:03.101Z</time></trkpt><trkpt lat="36.9279813" lon="14.5986629"><ele>304.0</ele><time>2026-04-18T14:51:04.101Z</time></trkpt><trkpt lat="36.9278755" lon="14.5986614"><ele>303.0</ele><time>2026-04-18T14:51:06.099Z</time></trkpt><trkpt lat="36.9277566" lon="14.5986748"><ele>302.0</ele><time>2026-04-18T14:51:08.099Z</time></trkpt><trkpt lat="36.9276921" lon="14.5986751"><ele>301.0</ele><time>2026-04-18T14:51:09.1Z</time></trkpt><trkpt lat="36.9275957" lon="14.5987061"><ele>305.0</ele><time>2026-04-18T14:51:11.1Z</time></trkpt><trkpt lat="36.9275327" lon="14.5987754"><ele>309.0</ele><time>2026-04-18T14:51:13.099Z</time></trkpt><trkpt lat="36.9274744" lon="14.5988641"><ele>313.0</ele><time>2026-04-18T14:51:15.1Z</time></trkpt><trkpt lat="36.9274123" lon="14.5989376"><ele>317.0</ele><time>2026-04-18T14:51:17.101Z</time></trkpt><trkpt lat="36.9273537" lon="14.5990203"><ele>321.0</ele><time>2026-04-18T14:51:19.101Z</time></trkpt><trkpt lat="36.9273011" lon="14.5990917"><ele>325.0</ele><time>2026-04-18T14:51:21.099Z</time></trkpt><trkpt lat="36.9272342" lon="14.5991571"><ele>325.0</ele><time>2026-04-18T14:51:23.102Z</time></trkpt><trkpt lat="36.9271573" lon="14.5992168"><ele>325.0</ele><time>2026-04-18T14:51:25.098Z</time></trkpt><trkpt lat="36.9270837" lon="14.599293"><ele>325.0</ele><time>2026-04-18T14:51:27.1Z</time></trkpt><trkpt lat="36.9270061" lon="14.5993748"><ele>325.0</ele><time>2026-04-18T14:51:29.099Z</time></trkpt><trkpt lat="36.9269271" lon="14.5994369"><ele>325.0</ele><time>2026-04-18T14:51:31.101Z</time></trkpt><trkpt lat="36.926831" lon="14.5994589"><ele>325.0</ele><time>2026-04-18T14:51:33.099Z</time></trkpt><trkpt lat="36.9267595" lon="14.5994788"><ele>325.0</ele><time>2026-04-18T14:51:35.1Z</time></trkpt><trkpt lat="36.9267234" lon="14.5995462"><ele>325.0</ele><time>2026-04-18T14:51:38.099Z</time></trkpt><trkpt lat="36.9267198" lon="14.5996361"><ele>325.0</ele><time>2026-04-18T14:52:50.099Z</time></trkpt><trkpt lat="36.9267816" lon="14.5997355"><ele>325.0</ele><time>2026-04-18T14:52:52.098Z</time></trkpt><trkpt lat="36.9268442" lon="14.5997896"><ele>325.0</ele><time>2026-04-18T14:52:54.1Z</time></trkpt><trkpt lat="36.9269441" lon="14.5998895"><ele>327.6</ele><time>2026-04-18T14:53:18.098Z</time></trkpt><trkpt lat="36.9270336" lon="14.5999752"><ele>330.2</ele><time>2026-04-18T14:53:20.1Z</time></trkpt><trkpt lat="36.9271067" lon="14.6000679"><ele>332.79999999999995</ele><time>2026-04-18T14:53:22.099Z</time></trkpt><trkpt lat="36.9271484" lon="14.600134"><ele>335.4</ele><time>2026-04-18T14:53:24.099Z</time></trkpt><trkpt lat="36.9271952" lon="14.6002449"><ele>338.0</ele><time>2026-04-18T14:53:27.099Z</time></trkpt><trkpt lat="36.9272449" lon="14.6003602"><ele>339.0</ele><time>2026-04-18T14:53:29.099Z</time></trkpt><trkpt lat="36.9273147" lon="14.6004303"><ele>340.0</ele><time>2026-04-18T14:53:31.1Z</time></trkpt><trkpt lat="36.9273906" lon="14.6004682"><ele>341.0</ele><time>2026-04-18T14:53:33.1Z</time></trkpt><trkpt lat="36.927486" lon="14.6004659"><ele>342.0</ele><time>2026-04-18T14:53:40.098Z</time></trkpt><trkpt lat="36.9275594" lon="14.6004661"><ele>343.0</ele><time>2026-04-18T14:53:44.099Z</time></trkpt><trkpt lat="36.9276225" lon="14.6004848"><ele>344.0</ele><time>2026-04-18T14:54:00.098Z</time></trkpt><trkpt lat="36.9276772" lon="14.6005516"><ele>344.0</ele><time>2026-04-18T14:54:03.1Z</time></trkpt><trkpt lat="36.9276904" lon="14.6006565"><ele>344.0</ele><time>2026-04-18T14:54:06.102Z</time></trkpt><trkpt lat="36.9277258" lon="14.600736"><ele>344.0</ele><time>2026-04-18T14:54:09.1Z</time></trkpt><trkpt lat="36.9278082" lon="14.600792"><ele>344.0</ele><time>2026-04-18T14:54:26.1Z</time></trkpt><trkpt lat="36.9278982" lon="14.6008425"><ele>344.0</ele><time>2026-04-18T14:54:28.099Z</time></trkpt><trkpt lat="36.9279576" lon="14.6008733"><ele>344.0</ele><time>2026-04-18T14:54:30.099Z</time></trkpt><trkpt lat="36.9280231" lon="14.60094"><ele>344.0</ele><time>2026-04-18T14:54:32.098Z</time></trkpt><trkpt lat="36.9280683" lon="14.6010137"><ele>344.0</ele><time>2026-04-18T14:54:34.1Z</time></trkpt><trkpt lat="36.9281198" lon="14.6010806"><ele>344.0</ele><time>2026-04-18T14:54:37.1Z</time></trkpt><trkpt lat="36.92817" lon="14.601133"><ele>344.0</ele><time>2026-04-18T14:55:05.099Z</time></trkpt><trkpt lat="36.9282711" lon="14.6011824"><ele>344.0</ele><time>2026-04-18T14:55:07.099Z</time></trkpt><trkpt lat="36.9283711" lon="14.601221"><ele>344.0</ele><time>2026-04-18T14:55:09.099Z</time></trkpt><trkpt lat="36.9284425" lon="14.6012549"><ele>346.2</ele><time>2026-04-18T14:55:11.098Z</time></trkpt><trkpt lat="36.9285566" lon="14.6012917"><ele>348.4</ele><time>2026-04-18T14:55:32.099Z</time></trkpt><trkpt lat="36.928645" lon="14.6012898"><ele>350.6</ele><time>2026-04-18T14:55:34.098Z</time></trkpt><trkpt lat="36.9287642" lon="14.6012848"><ele>352.8</ele><time>2026-04-18T14:55:36.099Z</time></trkpt><trkpt lat="36.9288282" lon="14.6012806"><ele>355.0</ele><time>2026-04-18T14:55:37.1Z</time></trkpt><trkpt lat="36.9288976" lon="14.6012767"><ele>355.0</ele><time>2026-04-18T14:55:38.099Z</time></trkpt><trkpt lat="36.928963" lon="14.6012743"><ele>355.0</ele><time>2026-04-18T14:55:39.1Z</time></trkpt><trkpt lat="36.9290743" lon="14.6012787"><ele>355.0</ele><time>2026-04-18T14:55:41.1Z</time></trkpt><trkpt lat="36.9291444" lon="14.6012856"><ele>355.0</ele><time>2026-04-18T14:55:42.099Z</time></trkpt><trkpt lat="36.9292089" lon="14.6012926"><ele>355.0</ele><time>2026-04-18T14:55:43.099Z</time></trkpt><trkpt lat="36.9293144" lon="14.6013048"><ele>355.0</ele><time>2026-04-18T14:55:45.101Z</time></trkpt><trkpt lat="36.9293761" lon="14.601325"><ele>353.6</ele><time>2026-04-18T14:55:48.098Z</time></trkpt><trkpt lat="36.9294829" lon="14.6013407"><ele>352.2</ele><time>2026-04-18T14:56:05.099Z</time></trkpt><trkpt lat="36.9295977" lon="14.6013515"><ele>350.79999999999995</ele><time>2026-04-18T14:56:07.099Z</time></trkpt><trkpt lat="36.9296962" lon="14.6013796"><ele>349.4</ele><time>2026-04-18T14:56:09.098Z</time></trkpt><trkpt lat="36.9297699" lon="14.6014507"><ele>348.0</ele><time>2026-04-18T14:56:12.099Z</time></trkpt><trkpt lat="36.9298135" lon="14.6015263"><ele>348.0</ele><time>2026-04-18T14:56:26.099Z</time></trkpt><trkpt lat="36.9299166" lon="14.6015713"><ele>348.0</ele><time>2026-04-18T14:56:28.098Z</time></trkpt><trkpt lat="36.9299794" lon="14.601601"><ele>348.0</ele><time>2026-04-18T14:56:29.099Z</time></trkpt><trkpt lat="36.9300377" lon="14.6016312"><ele>348.0</ele><time>2026-04-18T14:56:30.099Z</time></trkpt><trkpt lat="36.9301439" lon="14.6016854"><ele>348.0</ele><time>2026-04-18T14:56:32.099Z</time></trkpt><trkpt lat="36.9302567" lon="14.6017231"><ele>346.0</ele><time>2026-04-18T14:56:34.098Z</time></trkpt><trkpt lat="36.9303208" lon="14.6017415"><ele>344.0</ele><time>2026-04-18T14:56:35.098Z</time></trkpt><trkpt lat="36.9303837" lon="14.6017639"><ele>342.0</ele><time>2026-04-18T14:56:36.099Z</time></trkpt><trkpt lat="36.9304491" lon="14.6017897"><ele>340.0</ele><time>2026-04-18T14:56:37.099Z</time></trkpt><trkpt lat="36.9305119" lon="14.6018267"><ele>338.0</ele><time>2026-04-18T14:56:38.1Z</time></trkpt><trkpt lat="36.9305695" lon="14.6018725"><ele>336.0</ele><time>2026-04-18T14:56:39.099Z</time></trkpt><trkpt lat="36.9306713" lon="14.6019504"><ele>336.0</ele><time>2026-04-18T14:56:41.099Z</time></trkpt><trkpt lat="36.9307576" lon="14.6019828"><ele>336.0</ele><time>2026-04-18T14:56:43.098Z</time></trkpt><trkpt lat="36.9308641" lon="14.6019976"><ele>336.0</ele><time>2026-04-18T14:56:45.1Z</time></trkpt><trkpt lat="36.9309438" lon="14.602031"><ele>336.0</ele><time>2026-04-18T14:56:47.098Z</time></trkpt><trkpt lat="36.9310176" lon="14.6021034"><ele>336.0</ele><time>2026-04-18T14:56:49.099Z</time></trkpt><trkpt lat="36.9311234" lon="14.6021346"><ele>337.3333333333333</ele><time>2026-04-18T14:56:51.1Z</time></trkpt><trkpt lat="36.9312456" lon="14.6021725"><ele>338.6666666666667</ele><time>2026-04-18T14:56:53.099Z</time></trkpt><trkpt lat="36.9313231" lon="14.6022278"><ele>340.0</ele><time>2026-04-18T14:56:55.1Z</time></trkpt><trkpt lat="36.9313752" lon="14.6022791"><ele>341.33333333333337</ele><time>2026-04-18T14:56:57.1Z</time></trkpt><trkpt lat="36.9314435" lon="14.60233"><ele>342.6666666666667</ele><time>2026-04-18T14:56:59.099Z</time></trkpt><trkpt lat="36.9315066" lon="14.6023849"><ele>344.0</ele><time>2026-04-18T14:57:01.098Z</time></trkpt><trkpt lat="36.9315805" lon="14.6024358"><ele>344.0</ele><time>2026-04-18T14:57:03.099Z</time></trkpt><trkpt lat="36.9316358" lon="14.6024752"><ele>344.0</ele><time>2026-04-18T14:57:05.1Z</time></trkpt><trkpt lat="36.9316973" lon="14.6025463"><ele>344.0</ele><time>2026-04-18T14:57:07.099Z</time></trkpt><trkpt lat="36.9317699" lon="14.6026215"><ele>344.0</ele><time>2026-04-18T14:57:09.101Z</time></trkpt><trkpt lat="36.9318312" lon="14.6026879"><ele>344.0</ele><time>2026-04-18T14:57:11.099Z</time></trkpt><trkpt lat="36.9318723" lon="14.6027605"><ele>344.0</ele><time>2026-04-18T14:57:13.1Z</time></trkpt><trkpt lat="36.9319253" lon="14.6028481"><ele>343.0</ele><time>2026-04-18T14:57:17.098Z</time></trkpt><trkpt lat="36.93197" lon="14.6029282"><ele>342.0</ele><time>2026-04-18T14:57:19.099Z</time></trkpt><trkpt lat="36.9320212" lon="14.6030356"><ele>341.0</ele><time>2026-04-18T14:57:22.099Z</time></trkpt><trkpt lat="36.9320854" lon="14.6031348"><ele>340.0</ele><time>2026-04-18T14:57:24.1Z</time></trkpt><trkpt lat="36.932167" lon="14.6031949"><ele>339.0</ele><time>2026-04-18T14:57:26.099Z</time></trkpt><trkpt lat="36.9322327" lon="14.6032789"><ele>339.0</ele><time>2026-04-18T14:57:29.099Z</time></trkpt><trkpt lat="36.9322991" lon="14.6033583"><ele>339.0</ele><time>2026-04-18T14:57:31.1Z</time></trkpt><trkpt lat="36.9323493" lon="14.60341"><ele>339.0</ele><time>2026-04-18T14:57:32.099Z</time></trkpt><trkpt lat="36.9324074" lon="14.6034772"><ele>339.0</ele><time>2026-04-18T14:57:33.1Z</time></trkpt><trkpt lat="36.9324741" lon="14.6035594"><ele>339.0</ele><time>2026-04-18T14:57:34.099Z</time></trkpt><trkpt lat="36.9325423" lon="14.6036514"><ele>339.0</ele><time>2026-04-18T14:57:35.1Z</time></trkpt><trkpt lat="36.932612" lon="14.6037432"><ele>338.6666666666667</ele><time>2026-04-18T14:57:36.099Z</time></trkpt><trkpt lat="36.9326792" lon="14.6038253"><ele>338.3333333333333</ele><time>2026-04-18T14:57:37.099Z</time></trkpt><trkpt lat="36.9327487" lon="14.6038978"><ele>338.0</ele><time>2026-04-18T14:57:38.099Z</time></trkpt><trkpt lat="36.9328227" lon="14.6039587"><ele>337.66666666666663</ele><time>2026-04-18T14:57:39.101Z</time></trkpt><trkpt lat="36.932894" lon="14.6040145"><ele>337.3333333333333</ele><time>2026-04-18T14:57:40.099Z</time></trkpt><trkpt lat="36.9329465" lon="14.6040732"><ele>337.0</ele><time>2026-04-18T14:57:41.1Z</time></trkpt><trkpt lat="36.9329886" lon="14.6041942"><ele>337.0</ele><time>2026-04-18T14:57:43.098Z</time></trkpt><trkpt lat="36.9330075" lon="14.6042826"><ele>337.0</ele><time>2026-04-18T14:57:45.099Z</time></trkpt><trkpt lat="36.9330188" lon="14.6044051"><ele>337.0</ele><time>2026-04-18T14:57:47.101Z</time></trkpt><trkpt lat="36.9330263" lon="14.6045274"><ele>337.0</ele><time>2026-04-18T14:57:49.101Z</time></trkpt><trkpt lat="36.9330127" lon="14.6046289"><ele>337.0</ele><time>2026-04-18T14:57:51.099Z</time></trkpt><trkpt lat="36.9329778" lon="14.6047123"><ele>337.0</ele><time>2026-04-18T14:57:54.098Z</time></trkpt><trkpt lat="36.9329149" lon="14.604744"><ele>338.66666666666663</ele><time>2026-04-18T14:57:58.113Z</time></trkpt><trkpt lat="36.9328482" lon="14.6047018"><ele>340.3333333333333</ele><time>2026-04-18T14:58:00.099Z</time></trkpt><trkpt lat="36.9327805" lon="14.6047275"><ele>342.0</ele><time>2026-04-18T14:58:02.1Z</time></trkpt><trkpt lat="36.9327022" lon="14.6047649"><ele>343.6666666666667</ele><time>2026-04-18T14:58:04.103Z</time></trkpt><trkpt lat="36.9326412" lon="14.6047884"><ele>345.33333333333337</ele><time>2026-04-18T14:58:05.1Z</time></trkpt><trkpt lat="36.9325321" lon="14.6048406"><ele>347.0</ele><time>2026-04-18T14:58:07.099Z</time></trkpt><trkpt lat="36.9324805" lon="14.6049233"><ele>347.0</ele><time>2026-04-18T14:58:09.102Z</time></trkpt><trkpt lat="36.9325152" lon="14.6050068"><ele>347.0</ele><time>2026-04-18T14:58:11.101Z</time></trkpt><trkpt lat="36.9326032" lon="14.605116"><ele>347.0</ele><time>2026-04-18T14:58:13.1Z</time></trkpt><trkpt lat="36.9326716" lon="14.6052184"><ele>347.0</ele><time>2026-04-18T14:58:15.1Z</time></trkpt><trkpt lat="36.9327127" lon="14.6053092"><ele>347.0</ele><time>2026-04-18T14:58:17.1Z</time></trkpt><trkpt lat="36.9327747" lon="14.6053387"><ele>347.0</ele><time>2026-04-18T14:58:19.101Z</time></trkpt><trkpt lat="36.9328629" lon="14.605298"><ele>347.0</ele><time>2026-04-18T14:58:21.1Z</time></trkpt><trkpt lat="36.9329576" lon="14.605281"><ele>347.0</ele><time>2026-04-18T14:58:23.099Z</time></trkpt><trkpt lat="36.933043" lon="14.6053439"><ele>347.0</ele><time>2026-04-18T14:58:25.098Z</time></trkpt><trkpt lat="36.933124" lon="14.6054222"><ele>347.0</ele><time>2026-04-18T14:58:27.1Z</time></trkpt><trkpt lat="36.9332072" lon="14.6054855"><ele>345.6</ele><time>2026-04-18T14:58:29.099Z</time></trkpt><trkpt lat="36.9333159" lon="14.6054714"><ele>344.20000000000005</ele><time>2026-04-18T14:58:31.101Z</time></trkpt><trkpt lat="36.9334131" lon="14.6053812"><ele>342.8</ele><time>2026-04-18T14:58:33.101Z</time></trkpt><trkpt lat="36.9334694" lon="14.6052725"><ele>341.4</ele><time>2026-04-18T14:58:35.098Z</time></trkpt><trkpt lat="36.9335493" lon="14.6052374"><ele>340.0</ele><time>2026-04-18T14:58:37.1Z</time></trkpt><trkpt lat="36.9336819" lon="14.6052771"><ele>338.8333333333333</ele><time>2026-04-18T14:58:39.101Z</time></trkpt><trkpt lat="36.9337713" lon="14.6052961"><ele>337.66666666666663</ele><time>2026-04-18T14:58:40.099Z</time></trkpt><trkpt lat="36.93386" lon="14.6053052"><ele>336.5</ele><time>2026-04-18T14:58:41.099Z</time></trkpt><trkpt lat="36.9339357" lon="14.6053075"><ele>335.3333333333333</ele><time>2026-04-18T14:58:42.099Z</time></trkpt><trkpt lat="36.9340232" lon="14.6052978"><ele>334.1666666666667</ele><time>2026-04-18T14:58:44.099Z</time></trkpt><trkpt lat="36.9340882" lon="14.6053041"><ele>333.0</ele><time>2026-04-18T14:58:46.099Z</time></trkpt><trkpt lat="36.9341938" lon="14.6053215"><ele>332.79999999999995</ele><time>2026-04-18T14:58:48.1Z</time></trkpt><trkpt lat="36.9343003" lon="14.6053364"><ele>332.6</ele><time>2026-04-18T14:58:50.099Z</time></trkpt><trkpt lat="36.934398" lon="14.6052929"><ele>332.4</ele><time>2026-04-18T14:58:52.099Z</time></trkpt><trkpt lat="36.9344752" lon="14.6052008"><ele>332.20000000000005</ele><time>2026-04-18T14:58:54.099Z</time></trkpt><trkpt lat="36.9344897" lon="14.6050943"><ele>332.0</ele><time>2026-04-18T14:58:56.099Z</time></trkpt><trkpt lat="36.9344753" lon="14.6049695"><ele>330.20000000000005</ele><time>2026-04-18T14:58:58.1Z</time></trkpt><trkpt lat="36.9344658" lon="14.6048415"><ele>328.4</ele><time>2026-04-18T14:59:00.101Z</time></trkpt><trkpt lat="36.9344576" lon="14.6047341"><ele>326.6</ele><time>2026-04-18T14:59:02.098Z</time></trkpt><trkpt lat="36.9345232" lon="14.6046318"><ele>324.79999999999995</ele><time>2026-04-18T14:59:05.098Z</time></trkpt><trkpt lat="36.9346194" lon="14.6046125"><ele>323.0</ele><time>2026-04-18T14:59:07.1Z</time></trkpt><trkpt lat="36.9347408" lon="14.6046085"><ele>323.0</ele><time>2026-04-18T14:59:09.1Z</time></trkpt><trkpt lat="36.93482" lon="14.6046026"><ele>323.0</ele><time>2026-04-18T14:59:10.1Z</time></trkpt><trkpt lat="36.9349014" lon="14.6045869"><ele>323.0</ele><time>2026-04-18T14:59:11.1Z</time></trkpt><trkpt lat="36.9349795" lon="14.6045741"><ele>323.0</ele><time>2026-04-18T14:59:12.099Z</time></trkpt><trkpt lat="36.9350554" lon="14.6045657"><ele>323.0</ele><time>2026-04-18T14:59:13.101Z</time></trkpt><trkpt lat="36.9351285" lon="14.6045556"><ele>323.0</ele><time>2026-04-18T14:59:14.1Z</time></trkpt><trkpt lat="36.9352039" lon="14.6045364"><ele>321.28571428571433</ele><time>2026-04-18T14:59:15.1Z</time></trkpt><trkpt lat="36.9352832" lon="14.6045214"><ele>319.57142857142856</ele><time>2026-04-18T14:59:16.099Z</time></trkpt><trkpt lat="36.9353595" lon="14.6045053"><ele>317.8571428571429</ele><time>2026-04-18T14:59:17.1Z</time></trkpt><trkpt lat="36.9354314" lon="14.6044873"><ele>316.14285714285717</ele><time>2026-04-18T14:59:18.099Z</time></trkpt><trkpt lat="36.9354989" lon="14.604478"><ele>314.42857142857144</ele><time>2026-04-18T14:59:19.101Z</time></trkpt><trkpt lat="36.9355624" lon="14.6044719"><ele>312.7142857142857</ele><time>2026-04-18T14:59:20.099Z</time></trkpt><trkpt lat="36.9356297" lon="14.6044566"><ele>311.0</ele><time>2026-04-18T14:59:21.1Z</time></trkpt><trkpt lat="36.9357233" lon="14.6044195"><ele>309.83333333333337</ele><time>2026-04-18T14:59:23.098Z</time></trkpt><trkpt lat="36.9357873" lon="14.6043586"><ele>308.6666666666667</ele><time>2026-04-18T14:59:25.097Z</time></trkpt><trkpt lat="36.9358085" lon="14.6042665"><ele>307.5</ele><time>2026-04-18T14:59:27.098Z</time></trkpt><trkpt lat="36.9358377" lon="14.6041112"><ele>306.3333333333333</ele><time>2026-04-18T14:59:29.097Z</time></trkpt><trkpt lat="36.9358508" lon="14.6040306"><ele>305.16666666666663</ele><time>2026-04-18T14:59:30.1Z</time></trkpt><trkpt lat="36.9358451" lon="14.6039507"><ele>304.0</ele><time>2026-04-18T14:59:31.099Z</time></trkpt><trkpt lat="36.9358199" lon="14.6038272"><ele>304.0</ele><time>2026-04-18T14:59:33.1Z</time></trkpt><trkpt lat="36.9357976" lon="14.6037521"><ele>304.0</ele><time>2026-04-18T14:59:36.098Z</time></trkpt><trkpt lat="36.9358632" lon="14.6037044"><ele>304.0</ele><time>2026-04-18T14:59:39.102Z</time></trkpt><trkpt lat="36.9359557" lon="14.6036686"><ele>304.0</ele><time>2026-04-18T14:59:41.098Z</time></trkpt><trkpt lat="36.936011" lon="14.6036303"><ele>304.0</ele><time>2026-04-18T14:59:42.098Z</time></trkpt><trkpt lat="36.9360653" lon="14.6035802"><ele>304.0</ele><time>2026-04-18T14:59:43.097Z</time></trkpt><trkpt lat="36.9361758" lon="14.6035122"><ele>300.59999999999997</ele><time>2026-04-18T14:59:45.101Z</time></trkpt><trkpt lat="36.9362452" lon="14.603409"><ele>297.2</ele><time>2026-04-18T14:59:47.099Z</time></trkpt><trkpt lat="36.9362684" lon="14.6032763"><ele>293.79999999999995</ele><time>2026-04-18T14:59:49.1Z</time></trkpt><trkpt lat="36.9363379" lon="14.6031549"><ele>290.4</ele><time>2026-04-18T14:59:51.102Z</time></trkpt><trkpt lat="36.9364226" lon="14.603107"><ele>287.0</ele><time>2026-04-18T14:59:53.099Z</time></trkpt><trkpt lat="36.9364996" lon="14.6030954"><ele>287.0</ele><time>2026-04-18T14:59:56.1Z</time></trkpt><trkpt lat="36.9365658" lon="14.6030011"><ele>287.0</ele><time>2026-04-18T15:00:00.099Z</time></trkpt><trkpt lat="36.9366476" lon="14.6029339"><ele>287.0</ele><time>2026-04-18T15:00:02.101Z</time></trkpt><trkpt lat="36.9367233" lon="14.602939"><ele>287.0</ele><time>2026-04-18T15:00:04.1Z</time></trkpt><trkpt lat="36.9368056" lon="14.6030457"><ele>287.0</ele><time>2026-04-18T15:00:06.1Z</time></trkpt><trkpt lat="36.9368558" lon="14.6031165"><ele>283.8</ele><time>2026-04-18T15:00:07.099Z</time></trkpt><trkpt lat="36.9369042" lon="14.6031773"><ele>280.6</ele><time>2026-04-18T15:00:08.099Z</time></trkpt><trkpt lat="36.9369818" lon="14.6033141"><ele>277.40000000000003</ele><time>2026-04-18T15:00:10.1Z</time></trkpt><trkpt lat="36.9370259" lon="14.6034103"><ele>274.2</ele><time>2026-04-18T15:00:11.099Z</time></trkpt><trkpt lat="36.9370681" lon="14.6035272"><ele>271.0</ele><time>2026-04-18T15:00:12.098Z</time></trkpt><trkpt lat="36.9371136" lon="14.6036502"><ele>272.40000000000003</ele><time>2026-04-18T15:00:13.098Z</time></trkpt><trkpt lat="36.9371613" lon="14.6037693"><ele>273.8</ele><time>2026-04-18T15:00:14.099Z</time></trkpt><trkpt lat="36.9372109" lon="14.6038754"><ele>275.20000000000005</ele><time>2026-04-18T15:00:15.1Z</time></trkpt><trkpt lat="36.9372604" lon="14.6039677"><ele>276.6</ele><time>2026-04-18T15:00:16.099Z</time></trkpt><trkpt lat="36.9372911" lon="14.604059"><ele>278.0</ele><time>2026-04-18T15:00:17.099Z</time></trkpt><trkpt lat="36.9373187" lon="14.6041488"><ele>278.0</ele><time>2026-04-18T15:00:18.099Z</time></trkpt><trkpt lat="36.9373429" lon="14.6042337"><ele>278.0</ele><time>2026-04-18T15:00:19.099Z</time></trkpt><trkpt lat="36.9373568" lon="14.6043118"><ele>278.0</ele><time>2026-04-18T15:00:20.1Z</time></trkpt><trkpt lat="36.9373645" lon="14.6044262"><ele>278.0</ele><time>2026-04-18T15:00:22.099Z</time></trkpt><trkpt lat="36.9373738" lon="14.6045129"><ele>278.0</ele><time>2026-04-18T15:00:24.098Z</time></trkpt><trkpt lat="36.9373802" lon="14.6046781"><ele>278.0</ele><time>2026-04-18T15:00:26.1Z</time></trkpt><trkpt lat="36.9373696" lon="14.6047674"><ele>278.6666666666667</ele><time>2026-04-18T15:00:27.099Z</time></trkpt><trkpt lat="36.9373708" lon="14.6048517"><ele>279.33333333333337</ele><time>2026-04-18T15:00:28.098Z</time></trkpt><trkpt lat="36.9373991" lon="14.6049236"><ele>280.0</ele><time>2026-04-18T15:00:29.099Z</time></trkpt><trkpt lat="36.9374585" lon="14.604979"><ele>280.6666666666667</ele><time>2026-04-18T15:00:30.1Z</time></trkpt><trkpt lat="36.9375422" lon="14.6050262"><ele>281.3333333333333</ele><time>2026-04-18T15:00:31.1Z</time></trkpt><trkpt lat="36.9376266" lon="14.6050663"><ele>282.0</ele><time>2026-04-18T15:00:32.1Z</time></trkpt><trkpt lat="36.9376995" lon="14.605103"><ele>280.0</ele><time>2026-04-18T15:00:33.099Z</time></trkpt><trkpt lat="36.9377626" lon="14.6051429"><ele>278.0</ele><time>2026-04-18T15:00:34.1Z</time></trkpt><trkpt lat="36.9378278" lon="14.6052007"><ele>276.0</ele><time>2026-04-18T15:00:35.099Z</time></trkpt><trkpt lat="36.9379023" lon="14.6052752"><ele>274.0</ele><time>2026-04-18T15:00:36.099Z</time></trkpt><trkpt lat="36.9379807" lon="14.6053472"><ele>272.0</ele><time>2026-04-18T15:00:37.1Z</time></trkpt><trkpt lat="36.9380573" lon="14.6054118"><ele>270.0</ele><time>2026-04-18T15:00:38.099Z</time></trkpt><trkpt lat="36.9381239" lon="14.6054772"><ele>270.0</ele><time>2026-04-18T15:00:39.099Z</time></trkpt><trkpt lat="36.9381821" lon="14.6055462"><ele>270.0</ele><time>2026-04-18T15:00:40.099Z</time></trkpt><trkpt lat="36.938219" lon="14.6056148"><ele>270.0</ele><time>2026-04-18T15:00:41.1Z</time></trkpt><trkpt lat="36.9382435" lon="14.6056947"><ele>270.0</ele><time>2026-04-18T15:00:42.099Z</time></trkpt><trkpt lat="36.9382761" lon="14.6057835"><ele>270.0</ele><time>2026-04-18T15:00:43.099Z</time></trkpt><trkpt lat="36.9383177" lon="14.6058994"><ele>270.0</ele><time>2026-04-18T15:00:44.099Z</time></trkpt><trkpt lat="36.938364" lon="14.6060281"><ele>270.5</ele><time>2026-04-18T15:00:45.099Z</time></trkpt><trkpt lat="36.9384181" lon="14.6061648"><ele>271.0</ele><time>2026-04-18T15:00:46.099Z</time></trkpt><trkpt lat="36.9384733" lon="14.6063069"><ele>271.5</ele><time>2026-04-18T15:00:47.098Z</time></trkpt><trkpt lat="36.9385247" lon="14.6064446"><ele>272.0</ele><time>2026-04-18T15:00:48.098Z</time></trkpt><trkpt lat="36.9385739" lon="14.6065786"><ele>272.0</ele><time>2026-04-18T15:00:49.098Z</time></trkpt><trkpt lat="36.9386204" lon="14.6067075"><ele>272.0</ele><time>2026-04-18T15:00:50.098Z</time></trkpt><trkpt lat="36.9386683" lon="14.6068233"><ele>272.0</ele><time>2026-04-18T15:00:51.097Z</time></trkpt><trkpt lat="36.938728" lon="14.6069073"><ele>272.0</ele><time>2026-04-18T15:00:52.097Z</time></trkpt><trkpt lat="36.9387962" lon="14.6069591"><ele>272.0</ele><time>2026-04-18T15:00:53.099Z</time></trkpt><trkpt lat="36.9388802" lon="14.6069887"><ele>272.0</ele><time>2026-04-18T15:00:54.097Z</time></trkpt><trkpt lat="36.9389636" lon="14.607022"><ele>272.0</ele><time>2026-04-18T15:00:55.098Z</time></trkpt><trkpt lat="36.9390497" lon="14.6070677"><ele>272.0</ele><time>2026-04-18T15:00:56.099Z</time></trkpt><trkpt lat="36.9391459" lon="14.6071229"><ele>272.0</ele><time>2026-04-18T15:00:57.099Z</time></trkpt><trkpt lat="36.9392401" lon="14.6071864"><ele>272.0</ele><time>2026-04-18T15:00:58.1Z</time></trkpt><trkpt lat="36.9393266" lon="14.607255"><ele>272.0</ele><time>2026-04-18T15:00:59.099Z</time></trkpt><trkpt lat="36.9393988" lon="14.6073268"><ele>272.0</ele><time>2026-04-18T15:01:00.1Z</time></trkpt><trkpt lat="36.9394599" lon="14.6074036"><ele>272.0</ele><time>2026-04-18T15:01:01.101Z</time></trkpt><trkpt lat="36.9395088" lon="14.6074852"><ele>272.0</ele><time>2026-04-18T15:01:02.099Z</time></trkpt><trkpt lat="36.9395555" lon="14.6075705"><ele>272.0</ele><time>2026-04-18T15:01:03.1Z</time></trkpt><trkpt lat="36.9395976" lon="14.6076453"><ele>272.0</ele><time>2026-04-18T15:01:04.1Z</time></trkpt><trkpt lat="36.9396839" lon="14.6077406"><ele>272.0</ele><time>2026-04-18T15:01:06.099Z</time></trkpt><trkpt lat="36.9397726" lon="14.6077692"><ele>272.0</ele><time>2026-04-18T15:01:08.1Z</time></trkpt><trkpt lat="36.9398479" lon="14.6077294"><ele>272.0</ele><time>2026-04-18T15:01:10.101Z</time></trkpt><trkpt lat="36.9399532" lon="14.6076555"><ele>272.0</ele><time>2026-04-18T15:01:12.1Z</time></trkpt><trkpt lat="36.940051" lon="14.6076293"><ele>272.0</ele><time>2026-04-18T15:01:14.1Z</time></trkpt><trkpt lat="36.9401142" lon="14.6075504"><ele>269.6</ele><time>2026-04-18T15:01:16.099Z</time></trkpt><trkpt lat="36.9401956" lon="14.6074566"><ele>267.2</ele><time>2026-04-18T15:01:18.099Z</time></trkpt><trkpt lat="36.9402906" lon="14.6074344"><ele>264.8</ele><time>2026-04-18T15:01:20.1Z</time></trkpt><trkpt lat="36.9403846" lon="14.607477"><ele>262.4</ele><time>2026-04-18T15:01:22.1Z</time></trkpt><trkpt lat="36.9404821" lon="14.6075409"><ele>260.0</ele><time>2026-04-18T15:01:24.099Z</time></trkpt><trkpt lat="36.9405254" lon="14.6076631"><ele>260.0</ele><time>2026-04-18T15:01:26.1Z</time></trkpt><trkpt lat="36.9405309" lon="14.6077976"><ele>260.0</ele><time>2026-04-18T15:01:28.1Z</time></trkpt><trkpt lat="36.940536" lon="14.6079343"><ele>260.0</ele><time>2026-04-18T15:01:30.1Z</time></trkpt><trkpt lat="36.940529" lon="14.6080563"><ele>260.0</ele><time>2026-04-18T15:01:32.099Z</time></trkpt><trkpt lat="36.9405495" lon="14.608155"><ele>260.0</ele><time>2026-04-18T15:01:34.1Z</time></trkpt><trkpt lat="36.9405854" lon="14.6082583"><ele>261.4</ele><time>2026-04-18T15:01:36.099Z</time></trkpt><trkpt lat="36.9406159" lon="14.6083653"><ele>262.8</ele><time>2026-04-18T15:01:38.1Z</time></trkpt><trkpt lat="36.9406412" lon="14.6085051"><ele>264.2</ele><time>2026-04-18T15:01:40.101Z</time></trkpt><trkpt lat="36.9406522" lon="14.6085991"><ele>265.6</ele><time>2026-04-18T15:01:41.1Z</time></trkpt><trkpt lat="36.9406598" lon="14.6087044"><ele>267.0</ele><time>2026-04-18T15:01:42.099Z</time></trkpt><trkpt lat="36.9406649" lon="14.6088162"><ele>267.8333333333333</ele><time>2026-04-18T15:01:43.099Z</time></trkpt><trkpt lat="36.9406908" lon="14.6089195"><ele>268.6666666666667</ele><time>2026-04-18T15:01:44.099Z</time></trkpt><trkpt lat="36.9407213" lon="14.6090206"><ele>269.5</ele><time>2026-04-18T15:01:45.1Z</time></trkpt><trkpt lat="36.9407433" lon="14.6091214"><ele>270.33333333333337</ele><time>2026-04-18T15:01:46.1Z</time></trkpt><trkpt lat="36.9407564" lon="14.6092056"><ele>271.1666666666667</ele><time>2026-04-18T15:01:47.1Z</time></trkpt><trkpt lat="36.9407729" lon="14.6093415"><ele>272.0</ele><time>2026-04-18T15:01:49.099Z</time></trkpt><trkpt lat="36.9407855" lon="14.6094671"><ele>273.4</ele><time>2026-04-18T15:01:51.099Z</time></trkpt><trkpt lat="36.9407917" lon="14.609581"><ele>274.79999999999995</ele><time>2026-04-18T15:01:53.1Z</time></trkpt><trkpt lat="36.9407649" lon="14.6097036"><ele>276.2</ele><time>2026-04-18T15:01:55.102Z</time></trkpt><trkpt lat="36.9407195" lon="14.609816"><ele>277.59999999999997</ele><time>2026-04-18T15:01:57.101Z</time></trkpt><trkpt lat="36.9406905" lon="14.6099291"><ele>279.0</ele><time>2026-04-18T15:01:59.1Z</time></trkpt><trkpt lat="36.9406501" lon="14.6099998"><ele>279.0</ele><time>2026-04-18T15:02:01.102Z</time></trkpt><trkpt lat="36.9407029" lon="14.6100894"><ele>279.0</ele><time>2026-04-18T15:02:04.108Z</time></trkpt><trkpt lat="36.9407791" lon="14.610127"><ele>279.0</ele><time>2026-04-18T15:02:06.099Z</time></trkpt><trkpt lat="36.9408454" lon="14.6101129"><ele>279.0</ele><time>2026-04-18T15:02:08.099Z</time></trkpt><trkpt lat="36.9409028" lon="14.6100649"><ele>279.0</ele><time>2026-04-18T15:02:10.099Z</time></trkpt><trkpt lat="36.9409758" lon="14.6100413"><ele>279.0</ele><time>2026-04-18T15:02:12.1Z</time></trkpt><trkpt lat="36.941059" lon="14.6100356"><ele>279.6666666666667</ele><time>2026-04-18T15:02:14.098Z</time></trkpt><trkpt lat="36.9411416" lon="14.6100583"><ele>280.3333333333333</ele><time>2026-04-18T15:02:16.099Z</time></trkpt><trkpt lat="36.9412093" lon="14.6100984"><ele>281.0</ele><time>2026-04-18T15:02:18.1Z</time></trkpt><trkpt lat="36.9412771" lon="14.6101366"><ele>281.66666666666663</ele><time>2026-04-18T15:02:20.098Z</time></trkpt><trkpt lat="36.9413509" lon="14.6101781"><ele>282.3333333333333</ele><time>2026-04-18T15:02:22.097Z</time></trkpt><trkpt lat="36.9413519" lon="14.6102682"><ele>283.0</ele><time>2026-04-18T15:02:24.099Z</time></trkpt><trkpt lat="36.9413268" lon="14.6103713"><ele>283.4</ele><time>2026-04-18T15:02:26.098Z</time></trkpt><trkpt lat="36.941334" lon="14.610476"><ele>283.8</ele><time>2026-04-18T15:02:28.1Z</time></trkpt><trkpt lat="36.9414132" lon="14.6105432"><ele>284.2</ele><time>2026-04-18T15:02:30.099Z</time></trkpt><trkpt lat="36.9415056" lon="14.6105504"><ele>284.6</ele><time>2026-04-18T15:02:32.101Z</time></trkpt><trkpt lat="36.9416049" lon="14.6104594"><ele>285.0</ele><time>2026-04-18T15:02:34.098Z</time></trkpt><trkpt lat="36.9416629" lon="14.6103892"><ele>283.8333333333333</ele><time>2026-04-18T15:02:35.101Z</time></trkpt><trkpt lat="36.9417175" lon="14.6103213"><ele>282.6666666666667</ele><time>2026-04-18T15:02:36.1Z</time></trkpt><trkpt lat="36.9417636" lon="14.6102671"><ele>281.5</ele><time>2026-04-18T15:02:37.1Z</time></trkpt><trkpt lat="36.9418583" lon="14.6102532"><ele>280.33333333333337</ele><time>2026-04-18T15:02:39.1Z</time></trkpt><trkpt lat="36.9419172" lon="14.6102974"><ele>279.1666666666667</ele><time>2026-04-18T15:02:40.1Z</time></trkpt><trkpt lat="36.9419777" lon="14.6103604"><ele>278.0</ele><time>2026-04-18T15:02:41.1Z</time></trkpt><trkpt lat="36.942032" lon="14.6104248"><ele>278.0</ele><time>2026-04-18T15:02:42.1Z</time></trkpt><trkpt lat="36.942082" lon="14.6104879"><ele>278.0</ele><time>2026-04-18T15:02:43.101Z</time></trkpt><trkpt lat="36.9421378" lon="14.61054"><ele>278.0</ele><time>2026-04-18T15:02:44.099Z</time></trkpt><trkpt lat="36.9422444" lon="14.6106012"><ele>278.0</ele><time>2026-04-18T15:02:46.1Z</time></trkpt><trkpt lat="36.9423348" lon="14.6106485"><ele>278.0</ele><time>2026-04-18T15:02:48.1Z</time></trkpt><trkpt lat="36.9423968" lon="14.6107282"><ele>278.0</ele><time>2026-04-18T15:02:51.098Z</time></trkpt><trkpt lat="36.942448" lon="14.6107808"><ele>278.0</ele><time>2026-04-18T15:02:53.1Z</time></trkpt><trkpt lat="36.9425029" lon="14.6108608"><ele>278.0</ele><time>2026-04-18T15:02:55.098Z</time></trkpt><trkpt lat="36.9425488" lon="14.6109238"><ele>278.0</ele><time>2026-04-18T15:02:56.099Z</time></trkpt><trkpt lat="36.9426024" lon="14.6109948"><ele>278.0</ele><time>2026-04-18T15:02:57.1Z</time></trkpt><trkpt lat="36.9426567" lon="14.6110718"><ele>278.0</ele><time>2026-04-18T15:02:58.099Z</time></trkpt><trkpt lat="36.9427066" lon="14.6111593"><ele>278.0</ele><time>2026-04-18T15:02:59.098Z</time></trkpt><trkpt lat="36.9427563" lon="14.6112519"><ele>275.6</ele><time>2026-04-18T15:03:00.101Z</time></trkpt><trkpt lat="36.9427989" lon="14.6113304"><ele>273.20000000000005</ele><time>2026-04-18T15:03:01.102Z</time></trkpt><trkpt lat="36.9428405" lon="14.6114524"><ele>270.8</ele><time>2026-04-18T15:03:03.102Z</time></trkpt><trkpt lat="36.9428484" lon="14.6115792"><ele>268.40000000000003</ele><time>2026-04-18T15:03:05.1Z</time></trkpt><trkpt lat="36.9428668" lon="14.6116713"><ele>266.0</ele><time>2026-04-18T15:03:07.102Z</time></trkpt><trkpt lat="36.9428857" lon="14.6118135"><ele>266.0</ele><time>2026-04-18T15:03:09.1Z</time></trkpt><trkpt lat="36.9428871" lon="14.611907"><ele>266.0</ele><time>2026-04-18T15:03:10.1Z</time></trkpt><trkpt lat="36.942882" lon="14.6120068"><ele>266.0</ele><time>2026-04-18T15:03:11.099Z</time></trkpt><trkpt lat="36.9428581" lon="14.6121141"><ele>266.0</ele><time>2026-04-18T15:03:12.1Z</time></trkpt><trkpt lat="36.9428431" lon="14.6122154"><ele>266.0</ele><time>2026-04-18T15:03:13.098Z</time></trkpt><trkpt lat="36.942835" lon="14.6123105"><ele>266.0</ele><time>2026-04-18T15:03:14.1Z</time></trkpt><trkpt lat="36.9428375" lon="14.6124026"><ele>267.33333333333337</ele><time>2026-04-18T15:03:15.1Z</time></trkpt><trkpt lat="36.9428539" lon="14.6124903"><ele>268.6666666666667</ele><time>2026-04-18T15:03:16.098Z</time></trkpt><trkpt lat="36.9428901" lon="14.6125684"><ele>270.0</ele><time>2026-04-18T15:03:17.1Z</time></trkpt><trkpt lat="36.9429369" lon="14.6126302"><ele>271.3333333333333</ele><time>2026-04-18T15:03:18.1Z</time></trkpt><trkpt lat="36.9429939" lon="14.612679"><ele>272.66666666666663</ele><time>2026-04-18T15:03:19.1Z</time></trkpt><trkpt lat="36.9430529" lon="14.6127157"><ele>274.0</ele><time>2026-04-18T15:03:20.098Z</time></trkpt><trkpt lat="36.943167" lon="14.6127304"><ele>274.0</ele><time>2026-04-18T15:03:22.1Z</time></trkpt><trkpt lat="36.9432528" lon="14.6127198"><ele>274.0</ele><time>2026-04-18T15:03:24.102Z</time></trkpt><trkpt lat="36.9433195" lon="14.6126776"><ele>274.0</ele><time>2026-04-18T15:03:27.101Z</time></trkpt><trkpt lat="36.9433791" lon="14.6127032"><ele>274.0</ele><time>2026-04-18T15:03:30.099Z</time></trkpt><trkpt lat="36.9434747" lon="14.6127643"><ele>274.0</ele><time>2026-04-18T15:03:33.099Z</time></trkpt><trkpt lat="36.943607" lon="14.6127714"><ele>273.0</ele><time>2026-04-18T15:03:35.101Z</time></trkpt><trkpt lat="36.9436968" lon="14.6127599"><ele>272.0</ele><time>2026-04-18T15:03:36.1Z</time></trkpt><trkpt lat="36.9437937" lon="14.6127326"><ele>271.0</ele><time>2026-04-18T15:03:37.101Z</time></trkpt><trkpt lat="36.9438928" lon="14.612701"><ele>270.0</ele><time>2026-04-18T15:03:38.099Z</time></trkpt><trkpt lat="36.9439896" lon="14.6126872"><ele>269.0</ele><time>2026-04-18T15:03:39.099Z</time></trkpt><trkpt lat="36.944082" lon="14.6126994"><ele>269.0</ele><time>2026-04-18T15:03:40.1Z</time></trkpt><trkpt lat="36.9441576" lon="14.6127362"><ele>269.0</ele><time>2026-04-18T15:03:41.1Z</time></trkpt><trkpt lat="36.9442242" lon="14.6128028"><ele>269.0</ele><time>2026-04-18T15:03:42.101Z</time></trkpt><trkpt lat="36.9442948" lon="14.6128811"><ele>269.0</ele><time>2026-04-18T15:03:43.1Z</time></trkpt><trkpt lat="36.9443772" lon="14.6129503"><ele>269.0</ele><time>2026-04-18T15:03:44.1Z</time></trkpt><trkpt lat="36.9444541" lon="14.6130133"><ele>270.0</ele><time>2026-04-18T15:03:45.099Z</time></trkpt><trkpt lat="36.9445246" lon="14.6130738"><ele>271.0</ele><time>2026-04-18T15:03:46.1Z</time></trkpt><trkpt lat="36.9446019" lon="14.6131463"><ele>272.0</ele><time>2026-04-18T15:03:47.101Z</time></trkpt><trkpt lat="36.9446816" lon="14.6132225"><ele>273.0</ele><time>2026-04-18T15:03:48.1Z</time></trkpt><trkpt lat="36.9447545" lon="14.6132825"><ele>274.0</ele><time>2026-04-18T15:03:49.1Z</time></trkpt><trkpt lat="36.9448196" lon="14.6133259"><ele>275.0</ele><time>2026-04-18T15:03:50.099Z</time></trkpt><trkpt lat="36.9449282" lon="14.6133709"><ele>275.0</ele><time>2026-04-18T15:03:52.1Z</time></trkpt><trkpt lat="36.9449939" lon="14.6133763"><ele>275.0</ele><time>2026-04-18T15:03:53.099Z</time></trkpt><trkpt lat="36.9450667" lon="14.6133961"><ele>275.0</ele><time>2026-04-18T15:03:54.099Z</time></trkpt><trkpt lat="36.9451271" lon="14.6134344"><ele>275.0</ele><time>2026-04-18T15:03:55.1Z</time></trkpt><trkpt lat="36.9452305" lon="14.6134921"><ele>275.0</ele><time>2026-04-18T15:03:57.1Z</time></trkpt><trkpt lat="36.9453317" lon="14.6134769"><ele>275.0</ele><time>2026-04-18T15:03:59.1Z</time></trkpt><trkpt lat="36.9453938" lon="14.6134934"><ele>272.33333333333337</ele><time>2026-04-18T15:04:00.1Z</time></trkpt><trkpt lat="36.9454555" lon="14.6135226"><ele>269.6666666666667</ele><time>2026-04-18T15:04:01.1Z</time></trkpt><trkpt lat="36.9455496" lon="14.6135331"><ele>267.0</ele><time>2026-04-18T15:04:03.1Z</time></trkpt><trkpt lat="36.9456372" lon="14.6135065"><ele>264.3333333333333</ele><time>2026-04-18T15:04:05.1Z</time></trkpt><trkpt lat="36.9457089" lon="14.613433"><ele>261.66666666666663</ele><time>2026-04-18T15:04:07.101Z</time></trkpt><trkpt lat="36.9457895" lon="14.6134393"><ele>259.0</ele><time>2026-04-18T15:04:10.099Z</time></trkpt><trkpt lat="36.9458523" lon="14.6135005"><ele>257.8</ele><time>2026-04-18T15:04:11.098Z</time></trkpt><trkpt lat="36.9459224" lon="14.6135746"><ele>256.59999999999997</ele><time>2026-04-18T15:04:12.1Z</time></trkpt><trkpt lat="36.9459901" lon="14.6136615"><ele>255.4</ele><time>2026-04-18T15:04:13.101Z</time></trkpt><trkpt lat="36.9460583" lon="14.6137543"><ele>254.2</ele><time>2026-04-18T15:04:14.101Z</time></trkpt><trkpt lat="36.9461173" lon="14.6138442"><ele>253.0</ele><time>2026-04-18T15:04:15.1Z</time></trkpt><trkpt lat="36.9461662" lon="14.6139297"><ele>252.99999999999997</ele><time>2026-04-18T15:04:16.101Z</time></trkpt><trkpt lat="36.9462106" lon="14.6140001"><ele>253.0</ele><time>2026-04-18T15:04:17.1Z</time></trkpt><trkpt lat="36.9462596" lon="14.6140652"><ele>253.0</ele><time>2026-04-18T15:04:18.099Z</time></trkpt><trkpt lat="36.9463011" lon="14.6141465"><ele>253.0</ele><time>2026-04-18T15:04:19.1Z</time></trkpt><trkpt lat="36.9463494" lon="14.6142373"><ele>252.99999999999997</ele><time>2026-04-18T15:04:20.1Z</time></trkpt><trkpt lat="36.9463932" lon="14.6143281"><ele>253.0</ele><time>2026-04-18T15:04:21.099Z</time></trkpt><trkpt lat="36.9464358" lon="14.6144078"><ele>252.99999999999997</ele><time>2026-04-18T15:04:22.1Z</time></trkpt><trkpt lat="36.9464841" lon="14.6144808"><ele>253.0</ele><time>2026-04-18T15:04:23.1Z</time></trkpt><trkpt lat="36.9465407" lon="14.6145378"><ele>253.0</ele><time>2026-04-18T15:04:24.099Z</time></trkpt><trkpt lat="36.946608" lon="14.6145692"><ele>253.0</ele><time>2026-04-18T15:04:25.1Z</time></trkpt><trkpt lat="36.9466799" lon="14.6145905"><ele>252.99999999999997</ele><time>2026-04-18T15:04:26.099Z</time></trkpt><trkpt lat="36.9467526" lon="14.6146238"><ele>253.0</ele><time>2026-04-18T15:04:27.1Z</time></trkpt><trkpt lat="36.9468201" lon="14.6146818"><ele>252.4</ele><time>2026-04-18T15:04:28.099Z</time></trkpt><trkpt lat="36.9468729" lon="14.614765"><ele>251.8</ele><time>2026-04-18T15:04:29.098Z</time></trkpt><trkpt lat="36.9469304" lon="14.6148616"><ele>251.2</ele><time>2026-04-18T15:04:30.1Z</time></trkpt><trkpt lat="36.9469964" lon="14.6149541"><ele>250.6</ele><time>2026-04-18T15:04:31.1Z</time></trkpt><trkpt lat="36.9470509" lon="14.6150454"><ele>250.0</ele><time>2026-04-18T15:04:32.102Z</time></trkpt><trkpt lat="36.947092" lon="14.6151485"><ele>250.0</ele><time>2026-04-18T15:04:33.101Z</time></trkpt><trkpt lat="36.9471114" lon="14.6152498"><ele>250.0</ele><time>2026-04-18T15:04:34.099Z</time></trkpt><trkpt lat="36.9471205" lon="14.6153347"><ele>250.0</ele><time>2026-04-18T15:04:35.1Z</time></trkpt><trkpt lat="36.9471465" lon="14.6154211"><ele>250.0</ele><time>2026-04-18T15:04:36.099Z</time></trkpt><trkpt lat="36.9471619" lon="14.6155065"><ele>250.0</ele><time>2026-04-18T15:04:37.101Z</time></trkpt><trkpt lat="36.9471763" lon="14.6155953"><ele>250.0</ele><time>2026-04-18T15:04:38.1Z</time></trkpt><trkpt lat="36.9471916" lon="14.6156794"><ele>250.0</ele><time>2026-04-18T15:04:39.1Z</time></trkpt><trkpt lat="36.9472104" lon="14.6157668"><ele>253.2</ele><time>2026-04-18T15:04:40.1Z</time></trkpt><trkpt lat="36.9472428" lon="14.615862"><ele>256.4</ele><time>2026-04-18T15:04:41.1Z</time></trkpt><trkpt lat="36.9472812" lon="14.6159706"><ele>259.6</ele><time>2026-04-18T15:04:42.1Z</time></trkpt><trkpt lat="36.9473084" lon="14.6160802"><ele>262.8</ele><time>2026-04-18T15:04:43.101Z</time></trkpt><trkpt lat="36.9473256" lon="14.6161914"><ele>266.0</ele><time>2026-04-18T15:04:44.1Z</time></trkpt><trkpt lat="36.9473512" lon="14.6163053"><ele>267.8</ele><time>2026-04-18T15:04:45.099Z</time></trkpt><trkpt lat="36.947385" lon="14.6164259"><ele>269.6</ele><time>2026-04-18T15:04:46.098Z</time></trkpt><trkpt lat="36.9474161" lon="14.6165538"><ele>271.4</ele><time>2026-04-18T15:04:47.099Z</time></trkpt><trkpt lat="36.9474383" lon="14.6166804"><ele>273.2</ele><time>2026-04-18T15:04:48.1Z</time></trkpt><trkpt lat="36.947461" lon="14.6167914"><ele>275.0</ele><time>2026-04-18T15:04:49.098Z</time></trkpt><trkpt lat="36.9474847" lon="14.6168916"><ele>277.2</ele><time>2026-04-18T15:04:50.1Z</time></trkpt><trkpt lat="36.9475115" lon="14.616998"><ele>279.4</ele><time>2026-04-18T15:04:51.101Z</time></trkpt><trkpt lat="36.9475464" lon="14.6171024"><ele>281.6</ele><time>2026-04-18T15:04:52.1Z</time></trkpt><trkpt lat="36.9475834" lon="14.6172003"><ele>283.8</ele><time>2026-04-18T15:04:53.099Z</time></trkpt><trkpt lat="36.9476316" lon="14.6173048"><ele>286.0</ele><time>2026-04-18T15:04:54.1Z</time></trkpt><trkpt lat="36.9476885" lon="14.6174225"><ele>282.8</ele><time>2026-04-18T15:04:55.099Z</time></trkpt><trkpt lat="36.9477366" lon="14.6175443"><ele>279.6</ele><time>2026-04-18T15:04:56.099Z</time></trkpt><trkpt lat="36.9477825" lon="14.6176605"><ele>276.4</ele><time>2026-04-18T15:04:57.098Z</time></trkpt><trkpt lat="36.9478199" lon="14.6177676"><ele>273.2</ele><time>2026-04-18T15:04:58.1Z</time></trkpt><trkpt lat="36.9478477" lon="14.6178639"><ele>270.0</ele><time>2026-04-18T15:04:59.099Z</time></trkpt><trkpt lat="36.9478722" lon="14.6179535"><ele>270.0</ele><time>2026-04-18T15:05:00.1Z</time></trkpt><trkpt lat="36.9478852" lon="14.6180367"><ele>270.0</ele><time>2026-04-18T15:05:01.101Z</time></trkpt><trkpt lat="36.947879" lon="14.6181178"><ele>270.0</ele><time>2026-04-18T15:05:02.099Z</time></trkpt><trkpt lat="36.9478523" lon="14.618243"><ele>270.0</ele><time>2026-04-18T15:05:04.099Z</time></trkpt><trkpt lat="36.9478019" lon="14.6183791"><ele>270.0</ele><time>2026-04-18T15:05:06.1Z</time></trkpt><trkpt lat="36.9477841" lon="14.6184659"><ele>270.0</ele><time>2026-04-18T15:05:07.1Z</time></trkpt><trkpt lat="36.9477816" lon="14.6185618"><ele>271.6</ele><time>2026-04-18T15:05:08.099Z</time></trkpt><trkpt lat="36.9478007" lon="14.6186711"><ele>273.2</ele><time>2026-04-18T15:05:09.101Z</time></trkpt><trkpt lat="36.9478218" lon="14.6187627"><ele>274.8</ele><time>2026-04-18T15:05:10.099Z</time></trkpt><trkpt lat="36.9478201" lon="14.6189082"><ele>276.4</ele><time>2026-04-18T15:05:12.101Z</time></trkpt><trkpt lat="36.9477719" lon="14.61901"><ele>278.0</ele><time>2026-04-18T15:05:14.1Z</time></trkpt><trkpt lat="36.9476542" lon="14.6190652"><ele>278.0</ele><time>2026-04-18T15:05:16.1Z</time></trkpt><trkpt lat="36.9475567" lon="14.6190875"><ele>278.0</ele><time>2026-04-18T15:05:18.105Z</time></trkpt><trkpt lat="36.9475674" lon="14.6191831"><ele>278.0</ele><time>2026-04-18T15:05:21.1Z</time></trkpt><trkpt lat="36.9475171" lon="14.6192708"><ele>278.0</ele><time>2026-04-18T15:05:24.099Z</time></trkpt><trkpt lat="36.9474349" lon="14.6193283"><ele>278.0</ele><time>2026-04-18T15:05:26.098Z</time></trkpt><trkpt lat="36.9473217" lon="14.6193881"><ele>281.6666666666667</ele><time>2026-04-18T15:05:28.098Z</time></trkpt><trkpt lat="36.9472531" lon="14.6194535"><ele>285.33333333333337</ele><time>2026-04-18T15:05:30.097Z</time></trkpt><trkpt lat="36.9472439" lon="14.6195626"><ele>289.0</ele><time>2026-04-18T15:05:32.102Z</time></trkpt><trkpt lat="36.9472571" lon="14.6196572"><ele>292.6666666666667</ele><time>2026-04-18T15:05:34.099Z</time></trkpt><trkpt lat="36.9472498" lon="14.6197813"><ele>296.3333333333333</ele><time>2026-04-18T15:05:37.1Z</time></trkpt><trkpt lat="36.9472284" lon="14.6199009"><ele>300.0</ele><time>2026-04-18T15:05:39.1Z</time></trkpt><trkpt lat="36.9472132" lon="14.6200334"><ele>301.4285714285714</ele><time>2026-04-18T15:05:41.101Z</time></trkpt><trkpt lat="36.9472131" lon="14.6201276"><ele>302.85714285714283</ele><time>2026-04-18T15:05:43.099Z</time></trkpt><trkpt lat="36.9472633" lon="14.6200751"><ele>304.2857142857143</ele><time>2026-04-18T15:05:58.1Z</time></trkpt><trkpt lat="36.9472357" lon="14.6199977"><ele>305.71428571428567</ele><time>2026-04-18T15:06:03.1Z</time></trkpt><trkpt lat="36.9472355" lon="14.6199146"><ele>307.1428571428571</ele><time>2026-04-18T15:06:57.098Z</time></trkpt><trkpt lat="36.9472414" lon="14.6198094"><ele>308.57142857142856</ele><time>2026-04-18T15:06:59.099Z</time></trkpt><trkpt lat="36.9472648" lon="14.6197076"><ele>310.0</ele><time>2026-04-18T15:07:01.098Z</time></trkpt><trkpt lat="36.9472668" lon="14.6196092"><ele>310.0</ele><time>2026-04-18T15:07:04.1Z</time></trkpt><trkpt lat="36.9472795" lon="14.6195199"><ele>310.0</ele><time>2026-04-18T15:07:06.1Z</time></trkpt><trkpt lat="36.9472901" lon="14.6194342"><ele>310.0</ele><time>2026-04-18T15:07:08.098Z</time></trkpt><trkpt lat="36.9473707" lon="14.6193693"><ele>310.0</ele><time>2026-04-18T15:07:11.097Z</time></trkpt><trkpt lat="36.9474639" lon="14.6193307"><ele>310.0</ele><time>2026-04-18T15:07:13.098Z</time></trkpt><trkpt lat="36.9475324" lon="14.6192847"><ele>310.0</ele><time>2026-04-18T15:07:16.099Z</time></trkpt><trkpt lat="36.9475767" lon="14.6191925"><ele>304.66666666666663</ele><time>2026-04-18T15:07:20.1Z</time></trkpt><trkpt lat="36.9476179" lon="14.6191101"><ele>299.3333333333333</ele><time>2026-04-18T15:07:23.099Z</time></trkpt><trkpt lat="36.9476873" lon="14.6190787"><ele>294.0</ele><time>2026-04-18T15:07:25.1Z</time></trkpt><trkpt lat="36.9477684" lon="14.6190233"><ele>288.6666666666667</ele><time>2026-04-18T15:07:27.099Z</time></trkpt><trkpt lat="36.9478305" lon="14.618946"><ele>283.33333333333337</ele><time>2026-04-18T15:07:29.1Z</time></trkpt><trkpt lat="36.9478537" lon="14.6188478"><ele>278.0</ele><time>2026-04-18T15:07:31.099Z</time></trkpt><trkpt lat="36.9478372" lon="14.6187298"><ele>276.4</ele><time>2026-04-18T15:07:33.1Z</time></trkpt><trkpt lat="36.947799" lon="14.6185981"><ele>274.8</ele><time>2026-04-18T15:07:35.099Z</time></trkpt><trkpt lat="36.9478008" lon="14.6184769"><ele>273.2</ele><time>2026-04-18T15:07:37.101Z</time></trkpt><trkpt lat="36.9478321" lon="14.6183547"><ele>271.6</ele><time>2026-04-18T15:07:39.099Z</time></trkpt><trkpt lat="36.947858" lon="14.6182491"><ele>270.0</ele><time>2026-04-18T15:07:41.101Z</time></trkpt><trkpt lat="36.9478829" lon="14.6181544"><ele>270.0</ele><time>2026-04-18T15:07:45.1Z</time></trkpt><trkpt lat="36.9478911" lon="14.6180396"><ele>270.0</ele><time>2026-04-18T15:07:48.098Z</time></trkpt><trkpt lat="36.9478646" lon="14.6179456"><ele>270.0</ele><time>2026-04-18T15:07:50.098Z</time></trkpt><trkpt lat="36.9478479" lon="14.6178646"><ele>270.0</ele><time>2026-04-18T15:07:52.098Z</time></trkpt><trkpt lat="36.9478281" lon="14.6177837"><ele>270.0</ele><time>2026-04-18T15:07:54.099Z</time></trkpt><trkpt lat="36.9477846" lon="14.6176923"><ele>270.0</ele><time>2026-04-18T15:07:56.099Z</time></trkpt><trkpt lat="36.9477469" lon="14.6175905"><ele>268.5</ele><time>2026-04-18T15:07:58.099Z</time></trkpt><trkpt lat="36.9477134" lon="14.6174812"><ele>267.0</ele><time>2026-04-18T15:08:00.099Z</time></trkpt><trkpt lat="36.9476654" lon="14.6173797"><ele>265.5</ele><time>2026-04-18T15:08:02.101Z</time></trkpt><trkpt lat="36.9476231" lon="14.6172907"><ele>264.0</ele><time>2026-04-18T15:08:04.099Z</time></trkpt><trkpt lat="36.9475745" lon="14.6171958"><ele>262.5</ele><time>2026-04-18T15:08:06.099Z</time></trkpt><trkpt lat="36.9475521" lon="14.6171182"><ele>261.0</ele><time>2026-04-18T15:08:08.099Z</time></trkpt><trkpt lat="36.9475361" lon="14.617041"><ele>263.3333333333333</ele><time>2026-04-18T15:08:10.098Z</time></trkpt><trkpt lat="36.9475077" lon="14.6169358"><ele>265.6666666666667</ele><time>2026-04-18T15:08:13.101Z</time></trkpt><trkpt lat="36.9474817" lon="14.616826"><ele>268.0</ele><time>2026-04-18T15:08:16.099Z</time></trkpt><trkpt lat="36.9474575" lon="14.6167185"><ele>270.33333333333337</ele><time>2026-04-18T15:08:18.1Z</time></trkpt><trkpt lat="36.9474381" lon="14.6166055"><ele>272.6666666666667</ele><time>2026-04-18T15:08:20.1Z</time></trkpt><trkpt lat="36.9474194" lon="14.6165065"><ele>275.0</ele><time>2026-04-18T15:08:22.098Z</time></trkpt><trkpt lat="36.94739" lon="14.6164196"><ele>275.0</ele><time>2026-04-18T15:08:24.099Z</time></trkpt><trkpt lat="36.9473545" lon="14.6163249"><ele>275.0</ele><time>2026-04-18T15:08:26.103Z</time></trkpt><trkpt lat="36.94733" lon="14.6162351"><ele>275.0</ele><time>2026-04-18T15:08:28.1Z</time></trkpt><trkpt lat="36.9473153" lon="14.6161337"><ele>275.0</ele><time>2026-04-18T15:08:30.099Z</time></trkpt><trkpt lat="36.9472957" lon="14.6160342"><ele>275.0</ele><time>2026-04-18T15:08:32.096Z</time></trkpt><trkpt lat="36.9472644" lon="14.6159384"><ele>275.0</ele><time>2026-04-18T15:08:34.098Z</time></trkpt><trkpt lat="36.9472284" lon="14.6158506"><ele>273.5</ele><time>2026-04-18T15:08:36.099Z</time></trkpt><trkpt lat="36.9471995" lon="14.6157569"><ele>272.0</ele><time>2026-04-18T15:08:38.101Z</time></trkpt><trkpt lat="36.9471685" lon="14.6156743"><ele>270.5</ele><time>2026-04-18T15:08:40.102Z</time></trkpt><trkpt lat="36.9471463" lon="14.6155919"><ele>269.0</ele><time>2026-04-18T15:08:42.101Z</time></trkpt><trkpt lat="36.9471362" lon="14.6154807"><ele>267.5</ele><time>2026-04-18T15:08:44.099Z</time></trkpt><trkpt lat="36.9471088" lon="14.6153754"><ele>266.0</ele><time>2026-04-18T15:08:46.1Z</time></trkpt><trkpt lat="36.947086" lon="14.6152855"><ele>263.33333333333337</ele><time>2026-04-18T15:08:48.1Z</time></trkpt><trkpt lat="36.9470545" lon="14.6151912"><ele>260.6666666666667</ele><time>2026-04-18T15:08:50.098Z</time></trkpt><trkpt lat="36.9470068" lon="14.6151037"><ele>258.0</ele><time>2026-04-18T15:08:52.101Z</time></trkpt><trkpt lat="36.9469728" lon="14.6150311"><ele>255.33333333333331</ele><time>2026-04-18T15:08:54.1Z</time></trkpt><trkpt lat="36.9469299" lon="14.6149567"><ele>252.66666666666666</ele><time>2026-04-18T15:08:57.099Z</time></trkpt><trkpt lat="36.9468735" lon="14.6148893"><ele>250.0</ele><time>2026-04-18T15:09:00.101Z</time></trkpt><trkpt lat="36.9468326" lon="14.6148181"><ele>250.0</ele><time>2026-04-18T15:09:02.099Z</time></trkpt><trkpt lat="36.9467904" lon="14.6147455"><ele>250.0</ele><time>2026-04-18T15:09:04.1Z</time></trkpt><trkpt lat="36.946742" lon="14.6146756"><ele>250.0</ele><time>2026-04-18T15:09:06.098Z</time></trkpt><trkpt lat="36.9466832" lon="14.6146167"><ele>250.0</ele><time>2026-04-18T15:09:08.1Z</time></trkpt><trkpt lat="36.9466166" lon="14.6145871"><ele>250.0</ele><time>2026-04-18T15:09:10.099Z</time></trkpt><trkpt lat="36.9465487" lon="14.6145622"><ele>250.0</ele><time>2026-04-18T15:09:12.099Z</time></trkpt><trkpt lat="36.9464939" lon="14.6145184"><ele>250.0</ele><time>2026-04-18T15:09:14.099Z</time></trkpt><trkpt lat="36.946453" lon="14.6144582"><ele>250.42857142857142</ele><time>2026-04-18T15:09:16.098Z</time></trkpt><trkpt lat="36.9464035" lon="14.614397"><ele>250.8571428571429</ele><time>2026-04-18T15:09:19.098Z</time></trkpt><trkpt lat="36.9463753" lon="14.6143212"><ele>251.2857142857143</ele><time>2026-04-18T15:09:22.097Z</time></trkpt><trkpt lat="36.9463365" lon="14.614236"><ele>251.71428571428572</ele><time>2026-04-18T15:09:25.098Z</time></trkpt><trkpt lat="36.9462961" lon="14.6141636"><ele>252.14285714285717</ele><time>2026-04-18T15:09:28.099Z</time></trkpt><trkpt lat="36.9462503" lon="14.6140849"><ele>252.5714285714286</ele><time>2026-04-18T15:09:31.098Z</time></trkpt><trkpt lat="36.9461902" lon="14.6140107"><ele>253.00000000000003</ele><time>2026-04-18T15:09:34.098Z</time></trkpt><trkpt lat="36.9461455" lon="14.6139276"><ele>252.99999999999997</ele><time>2026-04-18T15:09:37.098Z</time></trkpt><trkpt lat="36.9460995" lon="14.6138365"><ele>253.0</ele><time>2026-04-18T15:09:40.099Z</time></trkpt><trkpt lat="36.9460474" lon="14.6137638"><ele>253.0</ele><time>2026-04-18T15:09:43.099Z</time></trkpt><trkpt lat="36.9459872" lon="14.6136767"><ele>253.0</ele><time>2026-04-18T15:09:46.1Z</time></trkpt><trkpt lat="36.9459223" lon="14.6135965"><ele>252.99999999999997</ele><time>2026-04-18T15:09:49.097Z</time></trkpt><trkpt lat="36.9458715" lon="14.6135461"><ele>253.0</ele><time>2026-04-18T15:09:51.1Z</time></trkpt><trkpt lat="36.9457984" lon="14.6134727"><ele>253.99999999999997</ele><time>2026-04-18T15:09:54.098Z</time></trkpt><trkpt lat="36.9457333" lon="14.6134157"><ele>255.0</ele><time>2026-04-18T15:09:57.1Z</time></trkpt><trkpt lat="36.9456768" lon="14.6134585"><ele>256.0</ele><time>2026-04-18T15:10:03.1Z</time></trkpt><trkpt lat="36.9456057" lon="14.6135206"><ele>257.0</ele><time>2026-04-18T15:10:11.098Z</time></trkpt><trkpt lat="36.9455387" lon="14.613553"><ele>258.0</ele><time>2026-04-18T15:10:26.1Z</time></trkpt><trkpt lat="36.9454588" lon="14.6135457"><ele>259.0</ele><time>2026-04-18T15:10:29.099Z</time></trkpt><trkpt lat="36.9453876" lon="14.6135121"><ele>259.0</ele><time>2026-04-18T15:10:32.099Z</time></trkpt><trkpt lat="36.9453163" lon="14.6134767"><ele>259.0</ele><time>2026-04-18T15:10:34.099Z</time></trkpt><trkpt lat="36.9452291" lon="14.613485"><ele>259.0</ele><time>2026-04-18T15:10:37.1Z</time></trkpt><trkpt lat="36.9451595" lon="14.6134981"><ele>259.0</ele><time>2026-04-18T15:10:40.1Z</time></trkpt><trkpt lat="36.945099" lon="14.6134517"><ele>259.0</ele><time>2026-04-18T15:10:43.098Z</time></trkpt><trkpt lat="36.9450393" lon="14.6134204"><ele>259.0</ele><time>2026-04-18T15:10:45.1Z</time></trkpt><trkpt lat="36.9449835" lon="14.6133813"><ele>259.0</ele><time>2026-04-18T15:10:47.098Z</time></trkpt><trkpt lat="36.9449013" lon="14.6133664"><ele>261.66666666666663</ele><time>2026-04-18T15:10:50.099Z</time></trkpt><trkpt lat="36.9448234" lon="14.6133658"><ele>264.3333333333333</ele><time>2026-04-18T15:10:52.099Z</time></trkpt><trkpt lat="36.9447828" lon="14.6132948"><ele>267.0</ele><time>2026-04-18T15:11:00.1Z</time></trkpt><trkpt lat="36.9447095" lon="14.6132244"><ele>269.6666666666667</ele><time>2026-04-18T15:11:03.1Z</time></trkpt><trkpt lat="36.9446544" lon="14.6131735"><ele>272.33333333333337</ele><time>2026-04-18T15:11:05.099Z</time></trkpt><trkpt lat="36.9445983" lon="14.6131219"><ele>275.0</ele><time>2026-04-18T15:11:08.1Z</time></trkpt><trkpt lat="36.9445403" lon="14.6130687"><ele>275.0</ele><time>2026-04-18T15:11:12.1Z</time></trkpt><trkpt lat="36.9444548" lon="14.6130252"><ele>275.0</ele><time>2026-04-18T15:11:15.101Z</time></trkpt><trkpt lat="36.9443955" lon="14.6129699"><ele>275.0</ele><time>2026-04-18T15:11:18.1Z</time></trkpt><trkpt lat="36.944327" lon="14.6129026"><ele>275.0</ele><time>2026-04-18T15:11:21.1Z</time></trkpt><trkpt lat="36.9442374" lon="14.612813"><ele>275.0</ele><time>2026-04-18T15:11:25.1Z</time></trkpt><trkpt lat="36.9441774" lon="14.612763"><ele>275.0</ele><time>2026-04-18T15:11:27.101Z</time></trkpt><trkpt lat="36.944115" lon="14.6127155"><ele>273.8</ele><time>2026-04-18T15:11:29.1Z</time></trkpt><trkpt lat="36.9440314" lon="14.6126919"><ele>272.6</ele><time>2026-04-18T15:11:31.1Z</time></trkpt><trkpt lat="36.9439683" lon="14.6126961"><ele>271.4</ele><time>2026-04-18T15:11:32.101Z</time></trkpt><trkpt lat="36.943856" lon="14.6127264"><ele>270.2</ele><time>2026-04-18T15:11:34.098Z</time></trkpt><trkpt lat="36.9437664" lon="14.6127661"><ele>269.0</ele><time>2026-04-18T15:11:36.098Z</time></trkpt><trkpt lat="36.9436723" lon="14.6127736"><ele>269.0</ele><time>2026-04-18T15:11:38.098Z</time></trkpt><trkpt lat="36.943588" lon="14.6127821"><ele>269.0</ele><time>2026-04-18T15:11:40.099Z</time></trkpt><trkpt lat="36.9434903" lon="14.6127936"><ele>269.0</ele><time>2026-04-18T15:11:42.1Z</time></trkpt><trkpt lat="36.9434093" lon="14.6127096"><ele>269.0</ele><time>2026-04-18T15:11:54.099Z</time></trkpt><trkpt lat="36.9433442" lon="14.6126803"><ele>269.0</ele><time>2026-04-18T15:11:58.099Z</time></trkpt><trkpt lat="36.9432847" lon="14.6127065"><ele>269.0</ele><time>2026-04-18T15:12:09.098Z</time></trkpt><trkpt lat="36.9432049" lon="14.6127364"><ele>269.83333333333337</ele><time>2026-04-18T15:12:13.1Z</time></trkpt><trkpt lat="36.9431397" lon="14.6127327"><ele>270.6666666666667</ele><time>2026-04-18T15:12:15.099Z</time></trkpt><trkpt lat="36.9430413" lon="14.6127351"><ele>271.5</ele><time>2026-04-18T15:12:17.1Z</time></trkpt><trkpt lat="36.9429733" lon="14.612684"><ele>272.3333333333333</ele><time>2026-04-18T15:12:19.098Z</time></trkpt><trkpt lat="36.9429223" lon="14.6126159"><ele>273.16666666666663</ele><time>2026-04-18T15:12:21.099Z</time></trkpt><trkpt lat="36.9428773" lon="14.6125478"><ele>274.0</ele><time>2026-04-18T15:12:23.1Z</time></trkpt><trkpt lat="36.942833" lon="14.6124223"><ele>274.00000000000006</ele><time>2026-04-18T15:12:34.099Z</time></trkpt><trkpt lat="36.9428336" lon="14.6123389"><ele>274.0</ele><time>2026-04-18T15:12:36.099Z</time></trkpt><trkpt lat="36.9428411" lon="14.6122385"><ele>274.0</ele><time>2026-04-18T15:12:39.1Z</time></trkpt><trkpt lat="36.9428393" lon="14.612146"><ele>274.0</ele><time>2026-04-18T15:12:42.099Z</time></trkpt><trkpt lat="36.9428542" lon="14.6120458"><ele>274.0</ele><time>2026-04-18T15:12:46.1Z</time></trkpt><trkpt lat="36.9428799" lon="14.6119687"><ele>274.00000000000006</ele><time>2026-04-18T15:12:51.101Z</time></trkpt><trkpt lat="36.9428936" lon="14.6118896"><ele>274.0</ele><time>2026-04-18T15:12:54.1Z</time></trkpt><trkpt lat="36.9428907" lon="14.6117909"><ele>272.66666666666663</ele><time>2026-04-18T15:12:57.099Z</time></trkpt><trkpt lat="36.9428807" lon="14.6116876"><ele>271.3333333333333</ele><time>2026-04-18T15:13:00.099Z</time></trkpt><trkpt lat="36.942851" lon="14.6116046"><ele>270.0</ele><time>2026-04-18T15:13:04.099Z</time></trkpt><trkpt lat="36.9428345" lon="14.6114353"><ele>268.6666666666667</ele><time>2026-04-18T15:14:12.156Z</time></trkpt><trkpt lat="36.9427951" lon="14.6113578"><ele>267.33333333333337</ele><time>2026-04-18T15:14:15.086Z</time></trkpt><trkpt lat="36.9427387" lon="14.6112849"><ele>266.0</ele><time>2026-04-18T15:14:18.187Z</time></trkpt><trkpt lat="36.9427162" lon="14.6111931"><ele>265.2857142857143</ele><time>2026-04-18T15:14:21.63Z</time></trkpt><trkpt lat="36.9426696" lon="14.6111125"><ele>264.57142857142856</ele><time>2026-04-18T15:14:25.098Z</time></trkpt><trkpt lat="36.9426239" lon="14.611054"><ele>263.8571428571429</ele><time>2026-04-18T15:14:28.099Z</time></trkpt><trkpt lat="36.9425574" lon="14.6109972"><ele>263.1428571428571</ele><time>2026-04-18T15:14:33.1Z</time></trkpt><trkpt lat="36.942513" lon="14.6109329"><ele>262.42857142857144</ele><time>2026-04-18T15:14:36.099Z</time></trkpt><trkpt lat="36.9424605" lon="14.6108591"><ele>261.7142857142857</ele><time>2026-04-18T15:14:40.102Z</time></trkpt><trkpt lat="36.9424169" lon="14.6107895"><ele>261.0</ele><time>2026-04-18T15:14:45.1Z</time></trkpt><trkpt lat="36.9423632" lon="14.6107479"><ele>263.8333333333333</ele><time>2026-04-18T15:14:56.098Z</time></trkpt><trkpt lat="36.9422891" lon="14.6106822"><ele>266.6666666666667</ele><time>2026-04-18T15:15:09.099Z</time></trkpt><trkpt lat="36.9422294" lon="14.6106572"><ele>269.5</ele><time>2026-04-18T15:15:12.1Z</time></trkpt><trkpt lat="36.9421591" lon="14.610623"><ele>272.33333333333337</ele><time>2026-04-18T15:15:15.1Z</time></trkpt><trkpt lat="36.9420806" lon="14.6105537"><ele>275.1666666666667</ele><time>2026-04-18T15:15:25.099Z</time></trkpt><trkpt lat="36.9420163" lon="14.6104575"><ele>278.0</ele><time>2026-04-18T15:15:27.101Z</time></trkpt><trkpt lat="36.9419441" lon="14.6103674"><ele>277.2857142857143</ele><time>2026-04-18T15:15:29.099Z</time></trkpt><trkpt lat="36.9418803" lon="14.610309"><ele>276.57142857142856</ele><time>2026-04-18T15:15:31.098Z</time></trkpt><trkpt lat="36.9418153" lon="14.6102758"><ele>275.8571428571429</ele><time>2026-04-18T15:15:33.1Z</time></trkpt><trkpt lat="36.9417519" lon="14.6102777"><ele>275.1428571428571</ele><time>2026-04-18T15:15:35.1Z</time></trkpt><trkpt lat="36.9417054" lon="14.6103452"><ele>274.42857142857144</ele><time>2026-04-18T15:15:44.099Z</time></trkpt><trkpt lat="36.9416491" lon="14.6104071"><ele>273.7142857142857</ele><time>2026-04-18T15:15:46.1Z</time></trkpt><trkpt lat="36.9415935" lon="14.6104542"><ele>273.0</ele><time>2026-04-18T15:15:48.098Z</time></trkpt><trkpt lat="36.9415408" lon="14.6105088"><ele>274.6666666666667</ele><time>2026-04-18T15:15:50.1Z</time></trkpt><trkpt lat="36.9414835" lon="14.6105567"><ele>276.3333333333333</ele><time>2026-04-18T15:15:52.101Z</time></trkpt><trkpt lat="36.941413" lon="14.6105651"><ele>278.0</ele><time>2026-04-18T15:15:55.099Z</time></trkpt><trkpt lat="36.9413479" lon="14.6105083"><ele>279.66666666666663</ele><time>2026-04-18T15:15:58.099Z</time></trkpt><trkpt lat="36.9413378" lon="14.610406"><ele>281.3333333333333</ele><time>2026-04-18T15:16:07.099Z</time></trkpt><trkpt lat="36.9413482" lon="14.6103108"><ele>283.0</ele><time>2026-04-18T15:16:11.098Z</time></trkpt><trkpt lat="36.9413585" lon="14.6102206"><ele>283.0</ele><time>2026-04-18T15:16:15.098Z</time></trkpt><trkpt lat="36.9413008" lon="14.6101526"><ele>283.0</ele><time>2026-04-18T15:16:27.098Z</time></trkpt><trkpt lat="36.9412394" lon="14.6101295"><ele>283.0</ele><time>2026-04-18T15:16:37.1Z</time></trkpt><trkpt lat="36.9411761" lon="14.6100918"><ele>283.0</ele><time>2026-04-18T15:16:41.1Z</time></trkpt><trkpt lat="36.9410859" lon="14.6100257"><ele>283.0</ele><time>2026-04-18T15:17:00.099Z</time></trkpt><trkpt lat="36.9409697" lon="14.6100794"><ele>283.0</ele><time>2026-04-18T15:17:28.099Z</time></trkpt></trkseg></trk></gpx>